[[{"header":{"parameterUnit":"m.s-1","parameterCategory":1,"la1":31.0,"la2":29.5877,"lo1":-88.7671,"lo2":-86.6584,"dy":0.0162,"dx":0.0185,"nx":115,"ny":88,"refTime":"2026-04-09T00:00:00:Z","depth":0,"parameterNumber":2,"parameterNumberName":"U-component_of_WINDS"},"data":[0.0,0.0,0.0,0.0,0.0,0.0,0.0,0.0,0.0,0.0,0.0,0.0,0.0,0.0,0.0,0.0,0.0,0.0,0.0,0.0,0.0,0.0,0.0,0.0,0.0,0.0,0.0,0.0,0.0,0.0,0.0,0.0,0.0,0.0,0.0,0.0,0.0,0.0,0.0,0.0,0.0,0.0,0.0,0.0,0.0,0.0,0.0,0.0,0.0,0.0,0.0,0.0,0.0,0.0,0.0,0.0,0.0,0.0,0.0,0.0,0.0,0.0,0.0,0.0,0.0,0.0,0.0,0.0,0.0,0.0,0.0,0.0,0.0,0.0,0.0,0.0,0.0,0.0,0.0,0.0,0.0,0.0,0.0,0.0,0.0,0.0,0.0,0.0,0.0,0.0,0.0,0.0,0.0,0.0,0.0,0.0,0.0,0.0,0.0,0.0,0.0,0.0,0.0,0.0,0.0,0.0,0.0,0.0,0.0,0.0,0.0,0.0,0.0,0.0,0.0,0.0,0.0,0.0,0.0,0.0,0.0,0.0,0.0,0.0,0.0,0.0,0.0,0.0,0.0,0.0,0.0,0.0,0.0,0.0,0.0,0.0,0.0,0.0,0.0,0.0,0.0,0.0,0.0,0.0,0.0,0.0,0.0,0.0,0.0,0.0,0.0,0.0,0.0,0.0,0.0,0.0,0.0,0.0,0.0,0.0,0.0,0.0,0.0,0.0,0.0,0.0,0.0,0.0,0.0,0.0,0.0,0.0,0.0,0.0,0.0,0.0,0.0,0.0,0.0,0.0,0.0,0.0,0.0,0.0,0.0,0.0,0.0,0.0,0.0,0.0,0.0,0.0,0.0,0.0,0.0,0.0,0.0,0.0,0.0,0.0,0.0,0.0,0.0,0.0,0.0,0.0,0.0,0.0,0.0,0.0,0.0,0.0,0.0,0.0,0.0,0.0,0.0,0.0,0.0,0.0,0.0,0.0,0.0,0.0,0.0,0.0,0.0,0.0,0.0,0.0,0.0,0.0,0.0,0.0,0.0,0.0,0.0,0.0,0.0,0.0,0.0,0.0,0.0,0.0,0.0,0.0,0.0,0.0,0.0,0.0,0.0,0.0,0.0,0.0,0.0,0.0,0.0,0.0,0.0,0.0,0.0,0.0,0.0,0.0,0.0,0.0,0.0,0.0,0.0,0.0,0.0,0.0,0.0,0.0,0.0,0.0,0.0,0.0,0.0,0.0,0.0,0.0,0.0,0.0,0.0,0.0,0.0,0.0,0.0,0.0,0.0,0.0,0.0,0.0,0.0,0.0,0.0,0.0,0.0,0.0,0.0,0.0,0.0,0.0,0.0,0.0,0.0,0.0,0.0,0.0,0.0,0.0,0.0,0.0,0.0,0.0,0.0,0.0,0.0,0.0,0.0,0.0,0.0,0.0,0.0,0.0,0.0,0.0,0.0,0.0,0.0,0.0,0.0,0.0,0.0,0.0,0.0,0.0,0.0,0.0,0.0,0.0,0.0,0.0,0.0,0.0,0.0,0.0,0.0,0.0,0.0,0.0,0.0,0.0,0.0,0.0,0.0,0.0,0.0,0.0,0.0,0.0,0.0,0.0,0.0,0.0,0.0,0.0,0.0,0.0,0.0,0.0,0.0,0.0,0.0,0.0,0.0,0.0,0.0,0.0,0.0,0.0,0.0,0.0,0.0,0.0,0.0,0.0,0.0,0.0,0.0,0.0,0.0,0.0,0.0,0.0,0.0,0.0,0.0,0.0,0.0,0.0,0.0,0.0,0.0,0.0,0.0,0.0,0.0,0.0,0.0,0.0,0.0,0.0,0.0,0.0,0.0,0.0,0.0,0.0,0.0,0.0,0.0,0.0,0.0,0.0,0.0,0.0,0.0,0.0,0.0,0.0,0.0,0.0,0.0,0.0,0.0,0.0,0.0,0.0,0.0,0.0,0.0,0.0,0.0,0.0,0.0,0.0,0.0,0.0,0.0,0.0,0.0,0.0,0.0,0.0,0.0,0.0,0.0,0.0,0.0,0.0,0.0,0.0,0.0,0.0,0.0,0.0,0.0,0.0,0.0,0.0,0.0,0.0,0.0,0.0,0.0,0.0,0.0,0.0,0.0,0.0,0.0,0.0,0.0,0.0,0.0,0.0,0.0,0.0,0.0,0.0,0.0,0.0,0.0,0.0,0.0,0.0,0.0,0.0,0.0,0.0,0.0,0.0,0.0,0.0,0.0,0.0,0.0,0.0,0.0,0.0,0.0,0.0,0.0,0.0,0.0,0.0,0.0,0.0,0.0,0.0,0.0,0.0,0.0,0.0,0.0,0.0,0.0,0.0,0.0,0.0,0.0,0.0,0.0,0.0,0.0,0.0,0.0,0.0,0.0,0.0,0.0,0.0,0.0,0.0,0.0,0.0,0.0,0.0,0.0,0.0,0.0,0.0,0.0,0.0,0.0,0.0,0.0,0.0,0.0,0.0,0.0,0.0,0.0,0.0,0.0,0.0,0.0,0.0,0.0,0.0,0.0,0.0,0.0,0.0,0.0,0.0,0.0,0.0,0.0,0.0,0.0,0.0,0.0,0.0,0.0,0.0,0.0,0.0,0.0,0.0,0.0,0.0,0.0,0.0,0.0,0.0,0.0,0.0,0.0,0.0,0.0,0.0,0.0,0.0,0.0,0.0,0.0,0.0,0.0,0.0,0.0,0.0,0.0,0.0,0.0,0.0,0.0,0.0,0.0,0.0,0.0,0.0,0.0,0.0,0.0,0.0,0.0,0.0,0.0,0.0,0.0,0.0,0.0,0.0,0.0,0.0,0.0,0.0,0.0,0.0,0.0,0.0,0.0,0.0,0.0,0.0,0.0,0.0,0.0,0.0,0.0,0.0,0.0,0.0,0.0,0.0,0.0,0.0,0.0,0.0,0.0,0.0,0.0,0.0,0.0,0.0,0.0,0.0,0.0,0.0,0.0,0.0,0.0,0.0,0.0,0.0,0.0,0.0,0.0,0.0,0.0,0.0,0.0,0.0,0.0,0.0,0.0,0.0,0.0,0.0,0.0,0.0,0.0,0.0,0.0,0.0,0.0,0.0,0.0,0.0,0.0,0.0,0.0,0.0,0.0,0.0,0.0,0.0,0.0,0.0,0.0,0.0,0.0,0.0,0.0,0.0,0.0,0.0,0.0,0.0,0.0,0.0,0.0,0.0,0.0,0.0,0.0,0.0,0.0,0.0,0.0,0.0,0.0,0.0,0.0,0.0,0.0,0.0,0.0,0.0,0.0,0.0,0.0,0.0,0.0,0.0,0.0,0.0,0.0,0.0,0.0,0.0,0.0,0.0,0.0,0.0,0.0,0.0,0.0,0.0,0.0,0.0,0.0,0.0,0.0,0.0,0.0,0.0,0.0,0.0,0.0,0.0,0.0,0.0,0.0,0.0,0.0,0.0,0.0,0.0,0.0,0.0,0.0,0.0,0.0,0.0,0.0,0.0,0.0,0.0,0.0,0.0,0.0,0.0,0.0,0.0,0.0,0.0,0.0,0.0,0.0,0.0,0.0,0.0,0.0,0.0,0.0,0.0,0.0,0.0,0.0,0.0,0.0,0.0,0.0,0.0,0.0,0.0,0.0,0.0,0.0,0.0,0.0,0.0,0.0,0.0,0.0,0.0,0.0,0.0,0.0,0.0,0.0,0.0,0.0,0.0,0.0,0.0,0.0,0.0,0.0,0.0,0.0,0.0,0.0,0.0,0.0,0.0,0.0,0.0,0.0,0.0,0.0,0.0,0.0,0.0,0.0,0.0,0.0,0.0,0.0,0.0,0.0,0.0,0.0,0.0,0.0,0.0,0.0,0.0,0.0,0.0,0.0,0.0,0.0,0.0,0.0,0.0,0.0,0.0,0.0,0.0,0.0,0.0,0.0,0.0,0.0,0.0,0.0,0.0,0.0,0.0,0.0,0.0,0.0,0.0,0.0,0.0,0.0,0.0,0.0,0.0,0.0,0.0,0.0,0.0,0.0,0.0,0.0,0.0,0.0,0.0,0.0,0.0,0.0,0.0,0.0,0.0,0.0,0.0,0.0,0.0,0.0,0.0,0.0,0.0,0.0,0.0,0.0,0.0,0.0,0.0,0.0,0.0,0.0,0.0,0.0,0.0,0.0,0.0,0.0,0.0,0.0,0.0,0.0,0.0,0.0,0.0,0.0,0.0,0.0,0.0,0.0,0.0,0.0,0.0,0.0,0.0,0.0,0.0,0.0,0.0,0.0,0.0,0.0,0.0,0.0,0.0,0.0,0.0,0.0,0.0,0.0,0.0,0.0,0.0,0.0,0.0,0.0,0.0,0.0,0.0,0.0,0.0,0.0,0.0,0.0,0.0,0.0,0.0,0.0,0.0,0.0,0.0,0.0,0.0,0.0,0.0,0.0,0.0,0.0,0.0,0.0,0.0,0.0,0.0,0.0,0.0,0.0,0.0,0.0,0.0,0.0,0.0,0.0,0.0,0.0,0.0,0.0,0.0,0.0,0.0,0.0,0.0,0.0,0.0,0.0,0.0,0.0,0.0,0.0,0.0,0.0,0.0,0.0,0.0,0.0,0.0,0.0,0.0,0.0,0.0,0.0,0.0,0.0,0.0,0.0,0.0,0.0,0.0,0.0,0.0,0.0,0.0,0.0,0.0,0.0,0.0,0.0,0.0,0.0,0.0,0.0,0.0,0.0,0.0,0.0,0.0,0.0,0.0,0.0,0.0,0.0,0.0,0.0,0.0,0.0,0.0,0.0298,0.0954,0.0,0.0,0.0,0.0,0.0,0.0,0.0,0.0,0.0,0.0,0.0,0.0,0.0,0.0,0.0,0.0,0.0,0.0,0.0,0.0,0.0,0.0,0.0,0.0,0.0,0.0,0.0,0.0,0.0,0.0,0.0,0.0,0.0,0.0,0.0,0.0,0.0,0.0,0.0,0.0,0.0,0.0,0.0,0.0,0.0,0.0,0.0,0.0,0.0,0.0,0.0,0.0,0.0,0.0,0.0,0.0,0.0,0.0,0.0,0.0,0.0,0.0,0.0,0.0,0.0,0.0,0.0,0.0,0.0,0.0,0.0,0.0,0.0,0.0,0.0,0.0,0.0,0.0,0.0,0.0,0.0,0.0,0.0,0.0,0.0,0.0,0.0,0.0,0.0,0.0,0.0,0.0,0.0,0.0,0.0,0.0,0.0,0.0,0.0,0.0,0.0,0.0,0.0,0.0,0.0,0.0,0.0,0.0,0.0,0.0,0.0,0.0,0.0,0.0422,0.1335,0.0,0.0,0.0,0.0,0.0,0.0,0.0,0.0,0.0,0.0,0.0,0.0,0.0,0.0,0.0,0.0,0.0,0.0,0.0,0.0,0.0,0.0,0.0,0.0,0.0,0.0,0.0,0.0,0.0,0.0,0.0,0.0,0.0,0.0,0.0,0.0,0.0,0.0,0.0,0.0,0.0,0.0,0.0,0.0,0.0,0.0,0.0,0.0,0.0,0.0,0.0,0.0,0.0,0.0,0.0,0.0,0.0,0.0,0.0,0.0,0.0,0.0,0.0,0.0,0.0,0.0,0.0,0.0,0.0,0.0,0.0,0.0,0.0,0.0,0.0,0.0,0.0,0.0,0.0,0.0,0.0,0.0,0.0,0.0,0.0,0.0,0.0,0.0,0.0,0.0,0.0,0.0,0.0,0.0,0.0,0.0,0.0,0.0,0.0,0.0,0.0,0.0,0.0,0.0,0.0,0.0,0.0,0.0,0.0,0.0,0.0,0.0,0.0,0.0,0.0143,0.0,0.0,0.0,0.0,0.0,0.0,0.0,0.0,0.0,0.0,0.0,0.0,0.0,0.0,0.0,0.0,0.0,0.0,0.0,0.0,0.0,0.0,0.0,0.0,0.0,0.0,0.0,0.0,0.0,0.0,0.0,0.0,0.0,0.0,0.0,0.0,0.0,0.0,0.0,0.0,0.0,0.0,0.0,0.0,0.0,0.0,0.0,0.0,0.0,0.0,0.0,0.0,0.0,0.0,0.0,0.0,0.0,0.0,0.0,0.0,0.0,0.0,0.0,0.0,0.0,0.0,0.0,0.0,0.0,0.0,0.0,0.0,0.0,0.0,0.0,0.0,0.0,0.0,0.0,0.0,0.0,0.0,0.0,0.0,0.0,0.0,0.0,0.0,0.0,0.0,0.0,0.0,0.0,0.0,0.0,0.0,0.0,0.0,0.0,0.0,0.0,0.0,0.0,0.0,0.0,0.0,0.0,0.0,0.0,0.0,0.0,0.0,0.0691,0.075,0.0,0.0,0.0,0.0,0.0,0.0,0.0,0.0,0.0,0.0,0.0,0.0,0.0,0.0,0.0,0.0,0.0,0.0,0.0,0.0,0.0,0.0,0.0,0.0,0.0,0.0,0.0,0.0,0.0,0.0,0.0,0.0,0.0,0.0,0.0,0.0,0.0,0.0,0.0,0.0,0.0,0.0,0.0,0.0,0.0,0.0,0.0,0.0,0.0,0.0,0.0,0.0,0.0,0.0,0.0,0.0,0.0,0.0,0.0,0.0,0.0,0.0,0.0,0.0,0.0,0.0,0.0,0.0,0.0,0.0,0.0,0.0,0.0,0.0,0.0,0.0,0.0,0.0,0.0,0.0,0.0,0.0,0.0,0.0,0.0,0.0,0.0,0.0,0.0,0.0,0.0,0.0,0.0,0.0,0.0,0.0,0.0,0.0,0.0,0.0,0.0,0.0,0.0,0.0,0.0,0.0,0.0,0.0,0.0,0.0,0.0,0.0,0.0,0.0857,0.0888,0.0024,0.0,0.0,0.0,0.0,0.0,0.0,0.0,0.0,0.0,0.0,0.0,0.0,0.0,0.0,0.0,0.0,0.0,0.0,0.0,0.0,0.0,0.0,0.0,0.0,0.0,0.0,0.0,0.0,0.0,0.0,0.0,0.0,0.0,0.0,0.0,0.0,0.0,0.0,0.0,0.0,0.0,0.0,0.0,0.0,0.0,0.0,0.0,0.0,0.0,0.0,0.0,0.0,0.0,0.0,0.0,0.0,0.0,0.0,0.0,0.0,0.0,0.0,0.0,0.0,0.0,0.0,0.0,0.0,0.0,0.0,0.0,0.0,0.0,0.0,0.0,0.0,0.0,0.0,0.0,0.0,0.0,0.0,0.0,0.0,0.0,0.0,0.0,0.0,0.0,0.0,0.0,0.0,0.0,0.0,0.0,0.0,0.0,0.0,0.0,0.0,0.0,0.0,0.0,0.0,0.0,0.0,0.0,0.0,0.0,0.0,0.0,0.0,0.0,0.0,0.0,0.0,0.0,0.0,0.0,0.0,0.0,0.0,0.0,0.0,0.0,0.0,0.0,0.0,0.0,0.0,0.0,0.0,0.0,0.0,0.0,0.0,0.0,0.0,0.0,0.0,0.0,0.0,0.0,0.0,0.0,0.0,0.0,0.0,0.0,0.0,0.0,0.0,0.0,0.0,0.0,0.0,0.0,0.0,0.0,0.0,0.0,0.0,0.0,0.0,0.0,0.0,0.0,0.0,0.0,0.0,0.0,0.0,0.0,0.0,0.0,0.0,0.0,0.0,0.0,0.0,0.0,0.0,0.0,0.0,0.0,0.0,0.0,0.0,0.0,0.0,0.0,0.0,0.0,0.0,0.0,0.0,0.0,0.0,0.0,0.0,0.0,0.0,0.0,0.0,0.0,0.0,0.0,0.0,0.0,0.0,0.0,0.0,0.0,0.0,0.0,0.0,0.0,0.0,0.0,0.0,0.0,0.0,0.0,0.0,0.0,0.0,0.0,0.0,0.0,0.0,0.0,0.0,0.0,0.0,0.0,0.0,0.0,0.0,0.0,0.0,0.0,0.0,0.0,0.0,0.0,0.0,0.0,0.0,0.0,0.0,0.0,0.0,0.0,0.0,0.0,0.0,0.0,0.0,0.0,0.0,0.0,0.0,0.0,0.0,0.0,0.0,0.0,0.0,0.0,0.0,0.0,0.0,0.0,0.0,0.0,0.0,0.0,0.0,0.0,0.0,0.0,0.0,0.0,0.0,0.0,0.0,0.0,0.0,0.0,0.0,0.0,0.0,0.0,0.0,0.0,0.0,0.0,0.0,0.0,0.0,0.0,0.0,0.0,0.0,0.0,0.0,0.0,0.0,0.0,0.0,0.0,0.0,0.0,0.0,0.0,0.0,0.0,0.0,0.0,0.0,0.0,0.0,0.0,0.0,0.0,0.0,0.0,0.0,0.0,0.0,0.0,0.0,0.0,0.0,0.0,0.0,0.0,0.0,0.0,0.0,0.0,0.0,0.0,0.0,0.0,0.0,0.0,0.0,0.0,0.0,0.0,0.0,0.0,0.0,0.0,0.0,0.0,0.0,0.0,0.0,0.0,0.0,0.0,0.0,0.0,0.0,0.0,0.0,0.0,0.0,0.0,0.0,0.0,0.0,0.0,0.0,0.0,0.0,0.0,0.0,0.0,0.0,0.0,0.0,0.0,0.0,0.0,0.0,0.0,0.0,0.0,0.0,0.0,0.0,0.0,0.0,0.0,0.0,0.0,0.0,0.0,0.0,0.0,0.0,0.0,0.0,0.0,0.0,0.0,0.0,0.0,0.0,0.0,0.0,0.0,0.0,0.0,0.0,0.0,0.0,0.0,0.0,0.0,0.0,0.0,0.0,0.0,0.0,0.0,0.0,0.0,0.0,0.0,0.0,0.0,0.0,0.0,0.0,0.0,0.0,0.0,0.0,0.0,0.0,0.0,0.0,0.0,0.0,0.0,0.0,0.0,0.0,0.0,0.0,0.0,0.0,0.0,0.0,0.0,0.0,0.0,0.0,0.0,0.0,0.0,0.0,0.0,0.0,0.0,0.0,0.0,0.0,0.0,0.0,0.0,0.0,0.0,0.0,0.0,0.0,0.0,0.0,0.0,0.0,0.0,0.0,0.0,0.0,0.0,0.0,0.0,0.0,0.0,0.0,0.0,0.0,0.0,0.0,0.0,0.0,0.0,0.0,0.0,0.0,0.0,0.0,0.0,0.0,0.0,0.0,0.0,0.0,0.0,0.0,0.0,0.0,0.0,0.0,0.0,0.0,0.0,0.0,0.0,0.0,0.0,0.0,0.0,0.0,0.0,0.0,0.0,0.0,0.0,0.0,0.0,0.0,0.0,0.0,0.0,0.0,0.0,0.0,0.0,0.0,0.0,0.0,0.0,0.0,0.0,0.0,0.0,0.0,0.0,0.0,0.0,0.0,0.0,0.0,0.0,0.0,0.0,0.0,0.0,0.0,0.0,0.0,0.0,0.0,0.1396,0.2292,0.23,0.1436,0.1383,0.093,0.0,0.0,0.0,0.0,0.0,0.0,0.0,0.0,0.0,0.0,0.0,0.0,0.0,0.0,0.0,0.0,0.0,0.0,0.0,0.0,0.0,0.0,0.0,0.0,0.0,0.0,0.0,0.0,0.0,0.0,0.0,0.0,0.0,0.0,0.0,0.0,0.0,0.0,0.0,0.0,0.0,0.0,0.0,0.0,0.0,0.0,0.0,0.0,0.0,0.0,0.0,0.0,0.0,0.0,0.0,0.0,0.0,0.0,0.0,0.0,0.0,0.0,0.0,0.0,0.0,0.0,0.0,0.0,0.0,0.0,0.0,0.0,0.0,0.0,0.0,0.0,0.0,0.0,0.0,0.0,0.0,0.0,0.0,0.0,0.0,0.0,0.0,0.0,0.0,0.0,0.0,0.0,0.0,0.0,0.0,0.0,0.0,0.0,0.0,0.0,0.0,0.0,0.0,0.0,0.0,0.0,0.0,0.0,0.0,0.2843,0.3642,0.3654,0.2763,0.2791,0.2172,0.081,0.0,0.0,0.0,0.0,0.0,0.0,0.0,0.0,0.0,0.0,0.0,0.0,0.0,0.0,0.0,0.0,0.0,0.0,0.0,0.0,0.0,0.0,0.0,0.0,0.0,0.0,0.0,0.0,0.0,0.0,0.0,0.0,0.0,0.0,0.0,0.0,0.0,0.0,0.0,0.0,0.0,0.0,0.0,0.0,0.0,0.0,0.0,0.0,0.0,0.0,0.0,0.0,0.0,0.0,0.0,0.0,0.0,0.0,0.0,0.0,0.0,0.0,0.0,0.0,0.0,0.0,0.0,0.0,0.0,0.0,0.0,0.0,0.0,0.0,0.0,0.0,0.0,0.0,0.0,0.0,0.0,0.0,0.0,0.0,0.0,0.0,0.0,0.0,0.0,0.0,0.0,0.0,0.0,0.0,0.0,0.0,0.0,0.0,0.0,0.0,0.0,0.0,0.0,0.0,0.0,0.0,0.0,0.0,0.4074,0.415,0.4202,0.4128,0.4232,0.3583,0.0,0.0,0.0,0.0,0.0,0.0,0.0,0.0,0.0,0.0,0.0,0.0,0.0,0.0,0.0,0.0,0.0,0.0,0.0,0.0,0.0,0.0,0.0,0.0,0.0,0.0,0.0,0.0,0.0,0.0,0.0,0.0,0.0,0.0,0.0,0.0,0.0,0.0,0.0,0.0,0.0,0.0,0.0,0.0,0.0,0.0,0.0,0.0,0.0,0.0,0.0,0.0,0.0,0.0,0.0,0.0,0.0,0.0,0.0,0.0,0.0,0.0,0.0,0.0,0.0,0.0,0.0,0.0,0.0,0.0,0.0,0.0,0.0,0.0,0.0,0.0,0.0,0.0,0.0,0.0,0.0,0.0,0.0,0.0,0.0,0.0,0.0,0.0,0.0,0.0,0.0,0.0,0.0,0.0,0.0,0.0,0.0,0.0,0.0,0.0,0.0,0.0,0.0,0.0,0.0,0.0,0.0,0.0,0.0,0.2594,0.3625,0.4673,0.5657,0.5726,0.4571,0.0,0.0,0.0,0.0,0.0,0.0,0.0,0.0,0.0,0.0,0.0,0.0,0.0,0.0,0.0,0.0,0.0,0.0,0.0,0.0,0.0,0.0,0.0,0.0,0.0,0.0,0.0,0.0,0.0,0.0,0.0,0.0,0.0,0.0,0.0,0.0,0.0,0.0,0.0,0.0,0.0,0.0,0.0,0.0,0.0,0.0,0.0,0.0,0.0,0.0,0.0,0.0,0.0,0.0,0.0,0.0,0.0,0.0,0.0,0.0,0.0,0.0,0.0,0.0,0.0,0.0,0.0,0.0,0.0,0.0,0.0,0.0,0.0,0.0,0.0,0.0,0.0,0.0,0.0,0.0,0.0,0.0,0.0,0.0,0.0,0.0,0.0,0.0,0.0,0.0,0.0,0.0,0.0,0.0,0.0,0.0,0.0,0.0,0.0,0.0,0.0,0.0,0.0,0.0,0.0,0.0,0.0,0.0,0.2025,0.2094,0.3466,0.4582,0.5413,0.5421,0.4358,0.0,0.0,0.0,0.0,0.0,0.0,0.0,0.0,0.0,0.0,0.0,0.0,0.0,0.0,0.0,0.0,0.0,0.0,0.0,0.0,0.0,0.0,0.0,0.0,0.0,0.0,0.0,0.0,0.0,0.0,0.0,0.0,0.0,0.0,0.0,0.0,0.0,0.0,0.0,0.0,0.0,0.0,0.0,0.0,0.0,0.0,0.0,0.0,0.0,0.0,0.0,0.0,0.0,0.0,0.0,0.0,0.0,0.0,0.0,0.0,0.0,0.0,0.0,0.0,0.0,0.0,0.0,0.0,0.0,0.0,0.0,0.0,0.0,0.0,0.0,0.0,0.0,0.0,0.0,0.0,0.0,0.0,0.0,0.0,0.0,0.0,0.0,0.0,0.0,0.0,0.0,0.0,0.0,0.0,0.0,0.0,0.0,0.0,0.0,0.0,0.0,0.0,0.0,0.0,0.0,0.0,0.0,0.0,0.1859,0.1972,0.3142,0.3769,0.3766,0.4046,0.3499,0.0,0.0,0.0,0.0,0.0,0.0,0.0,0.0,0.0,0.0,0.0,0.0,0.0,0.0,0.0,0.0,0.0,0.0,0.0,0.0,0.0,0.0,0.0,0.0,0.0,0.0,0.0,0.0,0.0,0.0,0.0,0.0,0.0,0.0,0.0,0.0,0.0,0.0,0.0,0.0,0.0,0.0,0.0,0.0,0.0,0.0,0.0,0.0,0.0,0.0,0.0,0.0,0.0,0.0,0.0,0.0,0.0,0.0,0.0,0.0,0.0,0.0,0.0,0.0,0.0,0.0,0.0,0.0,0.0,0.0,0.0,0.0,0.0,0.0,0.0,0.0,0.0,0.0,0.0,0.0,0.0,0.0,0.0,0.0,0.0,0.0,0.0,0.0,0.0,0.0,0.0,0.0,0.0,0.0,0.0,0.0,0.0,0.0,0.0,0.0,0.0,0.0,0.0,0.0,0.0,0.0,0.0,0.0,0.0428,0.0463,0.0746,0.0891,0.0891,0.3048,0.3499,0.0,0.0,0.0,0.0,0.0,0.0,0.0,0.0,0.0,0.0,0.0,0.0,0.0,0.0,0.0,0.0,0.0,0.0,0.0,0.0,0.0,0.0,0.0,0.0,0.0,0.0,0.0,0.0,0.0,0.0,0.0,0.0,0.0,0.0,0.0,0.0,0.0,0.0,0.0,0.0,0.0,0.0,0.0,0.0,0.0,0.0,0.0,0.0,0.8865,0.0,0.0,0.0,0.0,0.0,0.0,0.0,0.0,0.0,0.0,0.0,0.0,0.0,0.0,0.0,0.0,0.0,0.0,0.0,0.0,0.0,0.0,0.0,0.0,0.0,0.0,0.0,0.0,0.0,0.0,0.0,0.0,0.0,0.0,0.0,0.0,0.0,0.0,0.0,0.0,0.0,0.0,0.0,0.0,0.0,0.0,0.0,0.0,0.0,0.0,0.0,0.0,0.0,0.0,0.0,0.0,0.0,0.0,0.0,0.0,0.0,0.0,0.0,0.0,0.1446,0.1868,0.0,0.0,0.0,0.0,0.0,0.0,0.0,0.0,0.0,0.0,0.0,0.0,0.0,0.0,0.0,0.0,0.0,0.0,0.0,0.0,0.0,0.0,0.0,0.0,0.0,0.0,0.0,0.0,0.0,0.0,0.0,0.0,0.0,0.0,0.0,0.0,0.0,0.0,0.0,0.0,0.0,0.0,0.0,0.0,0.0,0.0,0.0,0.0,0.0,0.0,0.0,0.0,0.0,0.0,0.0,0.0,0.0,0.0,0.0,0.0,0.0,0.0,0.0,0.0,0.0,0.0,0.0,0.0,0.0,0.0,0.0,0.0,0.0,0.0,0.0,0.0,0.0,0.0,0.0,0.0,0.0,0.0,0.0,0.0,0.0,0.0,0.0,0.0,0.0,0.0,0.0,0.0,0.0,0.0,0.0,0.0,0.0,0.0,0.0,0.0,0.0,0.0,0.0,0.0,0.0,0.0,0.0,0.0,0.0,0.0,0.0,0.0,0.0,0.0,0.0,0.0,0.0,0.0,0.0,0.0,0.0,0.0,0.0,0.0,0.0,0.0,0.0,0.0,0.0,0.0,0.0,0.0,0.0,0.0,0.0,0.0,0.0,0.0,0.0,0.0,0.0,0.0,0.0,0.0,0.0,0.0,0.0,0.0,0.0,0.0,0.0,0.0,0.0,0.0,0.4166,0.5672,0.0,0.0,0.0,0.0,0.0,0.0,0.0,0.0,0.8798,0.0,0.0,0.0,0.0,0.0,0.0,0.0,0.0,0.0,0.0,0.0,0.0,0.0,0.0,0.0,0.0,0.0,0.0,0.0,0.0,0.0,0.0,0.0,0.0,0.0,0.0,0.0,0.0,0.0,0.0,0.0,0.0,0.0,0.0,0.0,0.0,0.0,0.0,0.0,0.0,0.0,0.0,0.0,0.0,0.0,0.0,0.0,0.0,0.0,0.0,0.0,0.0,0.0,0.0,0.0,0.0,0.0,0.0,0.0,0.0,0.0,0.0,0.0,0.0,0.0,0.0,0.0,0.0,0.0,0.0,0.0,0.0,0.0,0.0,0.0,0.0,0.0,0.0,0.0,0.0,0.0,0.0,0.0,0.0,0.0,0.0,0.0,0.0,0.0,0.0,0.0,0.0,0.0,0.0,0.0,0.0,0.0,0.0,0.0,0.0,0.0,0.0,0.0,0.0,0.0,0.5727,0.6921,0.0,0.0,0.0,0.0,0.0,0.0,0.0,0.0,0.8852,0.0,0.0,0.0,0.0,0.0,0.0,0.0,0.0,0.0,0.0,0.0,0.0,0.0,0.0,0.0,0.0,0.0,0.0,0.0,0.0,0.0,0.0,0.0,0.0,0.0,0.0,0.0,0.0,0.0,0.0,0.0,0.0,0.0,0.0,0.0,0.0,0.0,0.0,0.0,0.0,0.0,0.0,0.0,0.0,0.0,0.0,0.0,0.0,0.0,0.0,0.0,0.0,0.0,0.0,0.0,0.0,0.0,0.0,0.0,0.0,0.0,0.0,0.0,0.0,0.0,0.0,0.0,0.0,0.0,0.0,0.0,0.0,0.0,0.0,0.0,0.0,0.0,0.0,0.0,0.0,0.0,0.0,0.0,0.0,0.0,0.0,0.0,0.0,0.0,0.0,0.0,0.0,0.0,0.0,0.0,0.0,0.0,0.0,0.0,0.0,0.0,0.0,0.0,0.0,0.5311,0.614,0.6931,0.0,0.0,0.0,0.0,0.0,0.0,0.892,0.8927,0.0,0.0,0.0,0.0,0.0,0.0,0.0,0.0,0.0,0.0,0.0,0.0,0.0,0.0,0.0,0.0,0.0,0.0,0.0,0.0,0.0,0.0,0.0,0.0,0.0,0.0,0.0,0.0,0.0,0.0,0.0,0.0,0.0,0.0,0.0,0.0,0.0,0.0,0.0,0.0,0.0,0.0,0.0,0.0,0.0,0.0,0.0,0.0,0.0,0.0,0.0,0.0,0.0,0.0,0.0,0.0,0.0,0.0,0.0,0.0,0.0,0.0,0.0,0.0,0.0,0.0,0.0,0.0,0.0,0.0,0.0,0.0,0.0,0.0,0.0,0.0,0.0,0.0,0.0,0.0,0.0,0.0,0.0,0.0,0.0,0.0,0.0,0.0,0.0,0.0,0.0,0.0,0.0,0.0,0.0,0.0,0.0,0.0,0.0,0.0,0.0,0.0,0.0,0.0,0.0,0.5409,0.6728,0.8242,0.0,0.0,0.0,0.0,0.9054,0.9068,0.0,0.0,0.0,0.0,0.0,0.0,0.0,0.0,0.0,0.0,0.0,0.0,0.0,0.0,0.0,0.0,0.0,0.0,0.0,0.0,0.0,0.0,0.0,0.0,0.0,0.0,0.0,0.0,0.0,0.0,0.0,0.0,0.0,0.0,0.0,0.0,0.0,0.0,0.0,0.0,0.0,0.0,0.0,0.0,0.0,0.0,0.0,0.0,0.0,0.0,0.0,0.0,0.0,0.0,0.0,0.0,0.0,0.0,0.0,0.0,0.0,0.0,0.0,0.0,0.0,0.0,0.0,0.0,0.0,0.0,0.0,0.0,0.0,0.0,0.0,0.0,0.0,0.0,0.0,0.0,0.0,0.0,0.0,0.0,0.0,0.0,0.0,0.0,0.0,0.0,0.0,0.0,0.0,0.0,0.0,0.0,0.0,0.0,0.0,0.0,0.0,0.0,0.0,0.0,0.0,0.0,0.5104,0.5182,0.7595,0.9376,0.0,0.0,0.943,0.9517,0.9609,0.0,0.0,0.0,0.0,0.0,0.0,0.0,0.0,0.0,0.0,0.0,0.0,0.0,0.0,0.0,0.0,0.0,0.0,0.0,0.0,0.0,0.0,0.0,0.0,0.0,0.0,0.0,0.0,0.0,0.0,0.0,0.0,0.0,0.0,0.0,0.0,0.0,0.0,0.0,0.0,0.0,0.0,0.0,0.0,0.0,0.0,0.0,0.0,0.0,0.0,0.0,0.0,0.0,0.0,0.0,0.0,0.0,0.0,0.0,0.0,0.0,0.0,0.0,0.0,0.0,0.0,0.0,0.0,0.0,0.0,0.0,0.0,0.0,0.0,0.0,0.0,0.0,0.0,0.0,0.0,0.0,0.0,0.0,0.0,0.0,0.0,0.0,0.0,0.0,0.0,0.0,0.0,0.0,0.0,0.0,0.0,0.0,0.0,0.0,0.0,0.0,0.0,0.0,0.0,0.0,0.0,0.0,0.4885,0.6857,0.0,0.0,0.0,0.9856,0.9717,0.0,0.0,0.0,0.0,0.0,0.0,0.0,0.0,0.0,0.0,0.0,0.0,0.0,0.0,0.0,0.0,0.0,0.0,0.0,0.0,0.0,0.0,0.0,0.0,0.0,0.0,0.0,0.0,0.0,0.0,0.0,0.0,0.0,0.0,0.0,0.0,0.0,0.0,0.0,0.0,0.0,0.0,0.0,0.0,0.0,0.0,0.0,0.0,0.0,0.0,0.0,0.0,0.0,0.0,0.0,0.0,0.0,0.0,0.0,0.0,0.0,0.0,0.0,0.0,0.0,0.0,0.0,0.0,0.0,0.0,0.0,0.0,0.0,0.0,0.0,0.0,0.0,0.0,0.0,0.0,0.0,0.0,0.0,0.0,0.0,0.0,0.0,0.0,0.0,0.0,0.0,0.0,0.0,0.0,0.0,0.0,0.0,0.0,0.0,0.0,0.0,0.0,0.0,0.0,0.0,0.0,0.0,0.3122,0.4322,0.6206,0.7949,0.0,0.0,1.027,1.008,1.0304,1.0315,0.0,0.0,0.0,0.0,0.0,0.0,0.0,0.0,0.0,0.0,0.0,0.0,0.0,0.0,0.0,0.0,0.0,0.0,0.0,0.0,0.0,0.0,0.0,0.0,0.0,0.0,0.0,0.0,0.0,0.0,0.0,0.0,0.0,0.0,0.0,0.0,0.0,0.0,0.0,0.0,0.0,0.0,0.0,0.0,0.0,0.0,0.0,0.0,0.0,0.0,0.0,0.0,0.0,0.0,0.0,0.0,0.0,0.0,0.0,0.0,0.0,0.0,0.0,0.0,0.0,0.0,0.0,0.0,0.0,0.0,0.0,0.0,0.0,0.0,0.0,0.0,0.0,0.0,0.0,0.0,0.0,0.0,0.0,0.0,0.0,0.0,0.0,0.0,0.0,0.0,0.0,0.0,0.0,0.0,0.0,0.0,0.0,0.0,0.0,0.0,0.0,0.0,0.0,0.0,0.0,0.2758,0.2856,0.5577,0.7721,0.0,0.9483,1.0521,1.0603,1.0874,1.0853,1.0089,0.0,0.0,0.0,0.0,0.0,0.0,0.0,0.0,0.0,0.0,0.0,0.0,0.0,0.0,0.0,0.0,0.0,0.0,0.0,0.0,0.0,0.0,0.0,0.0,0.0,0.0,0.0,0.0,0.0,0.0,0.0,0.0,0.0,0.0,0.0,0.0,0.0,0.0,0.0,0.0,0.0,0.0,0.0,0.0,0.0,0.0,0.0,0.0,0.0,0.0,0.0,0.0,0.0,0.0,0.0,0.0,0.0,0.0,0.0,0.0,0.0,0.0,0.0,0.0,0.0,0.0,0.0,0.0,0.0,0.0,0.0,0.0,0.0,0.0,0.0,0.0,0.0,0.0,0.0,0.0,0.0,0.0,0.0,0.0,0.0,0.0,0.0,0.0,0.0,0.0,0.0,0.1122,0.0816,0.0762,0.0,0.0,0.0,0.0,0.0,0.0,0.0,0.0,0.0,0.0,0.3483,0.6027,0.5301,0.0,0.0,0.779,0.738,0.7434,0.763,0.7555,0.694,0.685,0.0,0.0,0.0,0.0,0.0,0.0,0.0,0.0,0.0,0.0,0.0,0.0,0.0,0.0,0.0,0.0,0.0,0.0,0.0,0.0,0.0,0.0,0.0,0.0,0.0,0.0,0.0,0.0,0.0,0.0,0.0,0.0,0.0,0.0,0.0,0.0,0.0,0.0,0.0,0.0,0.0,0.0,0.0,0.0,0.0,0.0,0.0,0.0,0.0,0.0,0.0,0.0,0.0,0.0,0.0,0.0,0.0,0.0,0.0,0.0,0.0,0.0,0.0,0.0,0.0,0.0,0.0,0.0,0.0,0.0,0.0,0.0,0.0,0.0,0.0,0.0,0.0,0.0,0.0,0.0,0.0,0.0,0.0,0.0,0.0,0.0,0.0,0.0,0.0,0.0,0.0707,0.0168,0.0616,0.0,0.0,0.0,0.0,0.0,0.0,0.0,0.0,0.0,0.0,0.3656,0.6527,0.4426,0.3562,0.6429,0.6062,0.547,0.5512,0.5594,0.5519,0.5101,0.0,0.0,0.0,0.0,0.0,0.0,0.0,0.0,0.0,0.0,0.0,0.0,0.0,0.0,0.0,0.0,0.0,0.0,0.0,0.0,0.0,0.0,0.0,0.0,0.0,0.0,0.0,-0.7055,0.0,0.0,-0.6837,0.0,0.0,0.0,0.0,0.0,0.0,0.0,0.0,0.0,0.0,0.0,0.0,0.0,0.0,0.0,0.0,0.0,0.0,0.0,0.0,0.0,0.0,0.0,0.0,0.0,0.0,0.0,0.0,0.0,0.0,0.0,0.0,0.0,0.0,0.0,0.0,0.0,0.0,0.0,0.0,0.0,0.0,0.0,0.0,0.0,0.0,0.0,0.0,0.0,0.0,0.0,0.0,0.0,0.0,0.0,0.0,0.0,0.0,0.0,0.0173,0.0057,0.0617,0.0,0.0,0.0,0.0,0.0,0.0,0.0,0.0,0.0,0.0,0.3978,0.2948,0.3163,0.2852,0.2749,0.3068,0.4461,0.557,0.5643,0.5676,0.5676,0.0,0.0,0.0,0.0,0.0,0.0,0.0,0.0,0.0,0.0,0.0,0.0,0.0,0.0,0.0,0.0,0.0,0.0,0.0,0.0,0.0,0.0,0.0,0.0,0.0,0.0,0.0,-0.5742,-0.558,0.0,0.0,0.0,0.0,0.0,0.0,0.0,0.0,0.0,0.0,0.0,0.0,0.0,0.0,0.0,0.0,0.0,0.0,0.0,0.0,0.0,0.0,0.0,0.0,0.0,0.0,0.0,0.0,0.0,0.0,0.0,0.0,0.0,0.0,0.0,0.0,0.0,0.0,0.0,0.0,0.0,0.0,0.0,0.0,0.0,0.0,0.0,0.0,0.0,0.0,0.0,0.0,0.0,0.0,0.0,0.0,0.0,0.0,0.0,0.0,0.0,0.1671,0.0,0.0,0.0,0.0,0.0,0.0,0.0,0.0,0.0,0.0,0.0,0.657,0.7349,0.5792,0.5083,0.6546,0.3383,0.1397,0.0,0.0,0.0,0.0,0.0,0.0,0.0,0.0,0.0,0.0,0.0,0.0,0.0,0.0,1.143,1.0424,1.0236,1.0249,1.0209,0.0,0.0,0.0,0.0,0.0,0.0,0.0,0.0,0.0,0.0,0.0,0.0,0.0,0.0,-0.4118,-0.4017,-0.3456,0.0,0.0,0.0,0.0,0.0,0.0,0.0,0.0,-0.1763,-0.0931,0.0,0.0,0.0,0.0,0.0,0.0,0.0,0.0,0.0,0.0,0.0,0.0,0.0,0.0,0.0,0.0,0.0,0.0,0.0,0.0,0.0,0.0,0.0,0.0,0.0,0.0,0.0,0.0,0.0,0.0,0.0,0.0,0.0,0.0,0.0,0.0,0.0,0.0,0.0,0.0,0.0,0.0,0.0,0.0,0.0,0.0,0.0,0.0,0.0,0.0,0.1629,0.0,0.0,0.0,0.0,0.0,0.0,0.0,0.0,0.0,0.4941,0.6768,0.8574,0.9472,0.7243,0.6108,0.7552,0.0,0.0,0.0,0.0,0.0,0.0,0.0,0.0284,0.1066,0.1173,0.1825,0.3759,0.6864,0.9643,1.1098,0.0,0.0,1.1213,1.1043,1.1023,1.0968,1.1083,1.1427,1.2219,1.3518,1.4989,0.0,0.0,0.0,0.0,-0.5399,0.0,0.0,0.0,-0.3322,-0.2521,0.0,-0.0794,0.0,0.0,0.0,0.0,-0.4558,-0.309,0.0,0.0,-0.0777,0.0,0.0,0.0,0.0,0.0,0.0,0.0,0.0,0.0,0.0,0.0,0.0,0.0,0.0,0.0,0.0,0.0,0.0,0.0,0.0,0.0,0.0,0.0,0.0,0.0,0.0,0.0,0.0,0.0,0.0,0.0,0.0,0.0,0.0,0.0,0.0,0.0,0.0,0.0,0.0,0.0,0.0,0.0,0.0,0.0,0.0,0.0,0.0,0.0,0.0,0.0063,0.0,0.0,0.0,0.0,0.0,0.0,0.0,0.0,0.0,0.0,0.8393,0.8677,0.9492,1.1337,0.0,0.0,0.0,0.0,0.026,0.033,0.0254,0.0,0.0,0.0,0.1022,0.3174,0.0,0.0,0.6442,0.8354,0.9648,0.9763,1.1479,1.2625,1.2366,1.2193,1.205,1.1877,1.196,1.2692,1.4589,1.5455,1.6847,-0.3579,0.0,0.0,0.0,0.0,-0.4019,-0.3452,-0.3266,-0.1516,-0.0752,-0.0701,-0.0192,0.0,0.0,0.0,0.0,0.0,0.0,-0.0729,-0.071,-0.0201,0.0,0.0,0.0,0.0,0.0,0.0,0.0,0.0,0.0,0.0,0.0,0.0,0.0,0.0,0.0,0.0,0.0,0.0,0.0,0.0,0.0,0.0,0.0,0.0,0.0,0.0,0.0,0.0,0.0,0.0,0.0,0.0,0.0,0.0,0.0,0.0,0.0,0.0,0.0,0.0,0.0,0.0,0.0,0.0,0.0,0.0,0.0,0.0,0.0,0.166,0.1775,0.2357,0.0,0.0,0.0,0.0,0.0,0.0,0.0,0.0,0.0,1.1259,1.1055,1.1077,0.0,0.0,0.8141,0.7938,0.6049,0.4662,0.4763,0.4874,0.0,0.4904,0.4909,0.5106,0.5688,0.5761,0.6501,0.867,0.9536,1.0416,1.1978,1.278,1.318,1.3085,1.2786,1.2542,1.2558,1.3685,1.4944,1.5829,1.8201,2.0729,-0.1974,-0.1633,-0.1623,-0.2255,-0.3128,-0.2096,-0.1627,-0.1569,-0.0467,0.0,0.0,0.0,0.0,0.0,0.0,0.0,0.0,0.0,0.0,0.0,0.0,0.0,0.0,0.0,0.0,0.0,0.0,0.0,0.0,0.0,0.0,0.0,0.0,0.0,0.0,0.0,0.0,0.0,0.0,0.0,0.0,0.0,0.0,0.0,0.0,0.0,0.0,0.0,0.0,0.0,0.0,0.0,0.0,0.0,0.0,0.0,0.0,0.0,0.0,0.0,0.0,0.0,0.0,0.0,0.0,0.0,0.0,0.0,0.0,0.0714,0.2485,0.2696,0.0,0.0,0.0,0.0,0.0,0.0,0.0,1.0194,1.1408,1.2379,1.2644,1.2549,1.2381,1.2338,1.0714,0.9475,0.934,0.0,0.6749,0.6843,0.6938,0.6963,0.6959,0.7,0.725,0.8095,0.8971,0.9906,1.1195,1.1484,1.1999,1.3146,1.3531,1.3867,1.4774,1.4728,1.4418,1.4286,1.5928,1.765,1.8631,2.0941,2.2957,0.0,0.0,0.0,0.0,0.0,0.0,0.0,0.0,0.0,0.0,0.0,0.0,0.0,0.0,0.0,0.0,0.0,0.0,0.0,0.0,0.0,0.0,0.0,0.0,0.0,0.0,0.0,0.0,0.0,0.0,0.0,0.0,0.0,0.0,0.0,0.0,0.0,0.0,0.0,0.0,0.0,0.0,0.0,0.0,0.0,0.0,0.0,0.0,0.0,0.0,0.0,0.0,0.0,0.0,0.0,0.0,0.0,0.0,0.0,0.0,0.0,0.0,0.0,0.0,0.0,0.0,0.0,0.0,0.0503,0.0,0.3012,0.329,0.0,0.0,0.0,0.915,0.965,1.1176,1.2281,1.2522,0.0,0.0,1.3071,1.3275,1.3458,1.3471,1.16,1.0337,1.0495,0.8975,0.7641,0.79,0.774,0.773,0.8102,0.8029,0.8679,1.0465,1.2454,1.3505,1.3633,1.3646,1.3745,1.3781,1.3966,1.4721,1.6909,1.745,1.7673,1.7228,1.8662,2.0612,2.2327,2.3217,2.4172,0.0,0.0,0.0,0.0,0.0,0.0,0.0,0.0,0.0,0.0,0.0,0.0,0.0,0.0,0.0,0.0,0.0,0.0,0.0,0.0,0.0,0.0,0.0,0.0,0.0,0.0,0.0,0.0,0.0,0.0,0.0,0.0,0.0,0.0,0.0,0.0,0.0,0.0,0.0,0.0,0.0,0.0,0.0,0.0,0.0,0.0,0.0,0.0,0.0,0.0,0.0,0.0,0.0,0.0,0.0,0.0,0.0,0.0,0.0,0.0,0.0,0.0,0.0,0.0588,0.1956,0.0,0.2697,0.0,0.4759,0.5116,0.5601,0.576,0.0,0.0,0.9236,1.0165,1.1933,1.2528,1.2853,1.299,1.3281,1.3512,1.3578,1.3797,1.4003,1.4061,1.3232,1.2595,1.2499,1.2293,1.2077,1.2083,1.2173,1.2435,1.2275,1.2319,1.2289,1.2925,1.3495,1.3795,1.3795,1.3795,1.3795,1.3923,1.531,1.6578,1.7307,1.9977,2.2148,2.2221,2.2639,2.309,2.3674,2.5053,2.6419,0.0,0.0,0.0,0.0,0.0,0.0,0.0,0.0,0.0,0.0,0.0,0.0,0.0597,0.1678,0.1681,0.2323,0.3337,0.3401,0.3383,0.3368,0.3396,0.2779,0.1707,0.1697,0.1093,0.0,0.0,0.0,0.0,0.0,0.0,0.0,0.0,0.0,0.0,0.0,0.0,0.0,0.0,0.0,0.0,0.0,0.0,0.0,0.0,0.0,0.0,0.0,0.0,0.0,0.0,0.0,0.0,0.0,0.0,0.0,0.0,0.0,0.0,0.0,0.0,0.0,0.0,0.0,0.0,0.0,0.475,0.607,0.6491,0.7036,0.788,0.8168,0.911,1.1104,1.1362,1.1903,1.3192,1.3459,1.3554,1.3661,1.3824,1.396,1.4034,1.4116,1.4204,1.4292,1.4014,1.377,1.3709,1.3831,1.396,1.3991,1.4116,1.417,1.4221,1.4102,1.4004,1.4048,1.4004,1.3998,1.4004,1.3998,1.4345,1.5406,1.6642,1.8265,2.022,2.2434,2.455,2.5607,2.587,2.577,2.5557,2.6423,2.7309,0.0,0.0,0.0,0.0,0.0,0.0,0.0,0.0,0.0,0.0193,0.0478,0.0473,0.1882,0.4219,0.3954,0.5025,0.7073,0.6795,0.6638,0.6645,0.697,0.5944,0.384,0.416,0.3104,0.1004,0.0638,0.0499,0.0494,0.0178,0.0,0.0,0.0,0.0,0.0,0.0,0.0,0.0,0.0,0.0,0.0,0.0,0.0,0.0,0.0,0.0,0.0,0.0,0.0,0.0,0.0,0.0,0.0,0.0288,0.0421,0.0,0.0681,0.0,0.0,0.0,0.0,0.0,0.0,0.0,0.0,0.6805,0.7039,0.7473,0.767,0.8457,1.0117,1.0572,1.1447,1.3109,1.3539,1.3749,1.3869,1.4034,1.4156,1.4285,1.4299,1.4299,1.4285,1.4299,1.4299,1.4299,1.4278,1.4238,1.4278,1.4265,1.4265,1.4299,1.4299,1.4278,1.4285,1.4285,1.4285,1.4292,1.4278,1.4299,1.4278,1.4285,1.4896,1.6757,1.7773,1.96,2.3598,2.4582,2.5841,2.762,2.7957,2.7824,2.7425,2.7346,2.7416,0.0,0.0,0.0,0.0,0.0,0.0,0.0,0.0,0.0,0.1167,0.3033,0.3076,0.4488,0.6627,0.473,0.407,0.4407,0.2374,0.1427,0.1524,0.3537,0.4269,0.3932,0.5891,0.6638,0.6061,0.4062,0.3089,0.3038,0.0989,0.0,0.0,0.0,0.0,0.0,0.0,0.0,0.0,0.0,0.0,0.0,0.0,0.0,0.0,0.0,0.0,0.0,0.0,0.0,0.0,0.0,0.0,0.0,0.0,0.0,0.0,0.0,0.0,0.0,0.0,0.0,0.0,0.8788,0.8571,0.8825,1.0408,1.1538,1.1777,1.214,1.249,1.2829,1.304,1.3383,1.4011,1.4027,1.4089,1.4346,1.4312,1.4272,1.4292,1.4299,1.4299,1.4312,1.4299,1.4306,1.4312,1.4299,1.4299,1.4306,1.4306,1.4299,1.4299,1.4299,1.4299,1.4299,1.4299,1.4299,1.4299,1.4299,1.4299,1.4299,1.4299,1.4343,1.53,1.8025,2.0702,2.1954,2.485,2.7532,2.8094,2.8192,2.8152,2.8045,2.8018,2.8018,0.0,0.0,0.0,0.0,0.0,0.0,0.0765,0.2001,0.1982,0.3434,0.5871,0.5871,0.7256,0.958,0.8329,0.8425,0.9576,0.8284,0.7708,0.7752,0.8956,0.8916,0.7774,0.8924,0.8859,0.7653,0.6342,0.567,0.5625,0.4371,0.3697,0.3641,0.3641,0.3603,0.3528,0.3507,0.2364,0.0,0.0,0.0,0.0,0.0,0.0,0.0,0.0,0.0,0.0,0.0,0.0,0.0,0.0,0.0,0.0,0.0,0.0,0.515,0.6201,0.7308,0.8455,0.8639,0.9587,1.167,1.1966,1.1849,1.1417,1.2639,1.3458,1.3656,1.3892,1.4018,1.4068,1.4197,1.4302,1.4451,1.4448,1.4468,1.459,1.4563,1.4471,1.4471,1.4471,1.4471,1.4516,1.4516,1.4516,1.4471,1.4471,1.4482,1.4414,1.434,1.4299,1.4299,1.4299,1.4299,1.4299,1.4299,1.4299,1.4299,1.4299,1.4299,1.4299,1.4299,1.4948,1.7159,1.9715,2.1739,2.4337,2.666,2.8192,2.8192,2.8192,2.8192,2.8192,2.8192,2.8192,0.0261,0.073,0.073,0.1041,0.1507,0.1507,0.2995,0.5464,0.4915,0.0,0.0,0.8664,1.0073,1.2401,1.2013,1.294,1.4848,1.4461,1.4267,1.4261,1.4629,1.3704,1.1856,1.2009,1.1116,0.9228,0.8567,0.8285,0.8285,0.7841,0.7537,0.7466,0.7456,0.7334,0.7146,0.7179,0.5239,0.1509,0.1264,0.1226,0.1269,0.1248,0.1237,0.1231,0.125,0.1279,0.123,0.1239,0.2118,0.3913,0.3996,0.4828,0.6645,0.7173,0.741,0.7525,0.7892,0.8939,1.0854,1.1132,1.1952,1.3857,1.4258,1.4197,1.3675,1.3973,1.4238,1.4367,1.4509,1.4584,1.4557,1.4613,1.4714,1.4762,1.4728,1.4708,1.4755,1.4714,1.4681,1.4694,1.4681,1.4694,1.4681,1.4681,1.4694,1.4687,1.4667,1.4654,1.4518,1.4407,1.4299,1.4299,1.4326,1.4346,1.434,1.4346,1.434,1.4346,1.4319,1.4299,1.4343,1.4646,1.6422,1.9367,2.1048,2.3341,2.663,2.7757,2.8136,2.8192,2.8192,2.8192,2.8192,2.8192,2.8192,0.1442,0.3602,0.3602,0.5058,0.7315,0.7315,0.8836,1.1064,0.8543,0.8879,1.122,1.127,1.2699,1.4951,1.2795,1.2013,1.2159,1.0056,0.9079,0.918,1.1314,1.2132,1.1939,1.4,1.486,1.4354,1.2147,1.1048,1.0793,0.8775,0.7586,0.7615,0.7565,0.7533,0.7396,0.7467,0.7152,0.6367,0.6188,0.6117,0.6117,0.6092,0.6102,0.6093,0.605,0.6113,0.6101,0.6066,0.623,0.6547,0.656,0.6715,0.709,0.8948,0.997,1.0074,1.1751,1.3103,1.3672,1.3782,1.4009,1.45,1.4774,1.478,1.4577,1.4559,1.4606,1.464,1.4828,1.4848,1.4687,1.4701,1.4829,1.5065,1.485,1.4796,1.5072,1.4909,1.4721,1.4714,1.4694,1.4708,1.4721,1.4714,1.4721,1.4701,1.4728,1.4694,1.4633,1.4475,1.4319,1.4319,1.4407,1.4468,1.4482,1.4482,1.4482,1.4437,1.4387,1.4319,1.434,1.5675,1.7227,1.8287,2.1381,2.4049,2.547,2.6885,2.7926,2.8192,2.8192,2.8192,2.8192,2.8192,2.8179,0.465,0.4582,0.6085,0.6553,0.6524,0.9522,1.1459,1.26,1.2635,1.3189,1.4189,1.4239,1.4868,1.5739,1.4712,1.4206,1.4084,1.3012,1.2457,1.2492,1.3516,1.4061,1.4213,1.5175,1.5683,1.5639,1.4414,1.3782,1.3674,1.2506,1.1872,1.1744,1.1524,1.1408,1.1358,1.1437,1.1411,1.1312,0.8744,0.739,0.7351,0.7389,0.7374,0.7385,0.7385,0.7356,0.7367,0.7363,0.7925,0.913,0.9171,0.9711,1.0929,1.2027,1.2612,1.2686,1.3631,1.4306,1.4523,1.4618,1.4753,1.4964,1.5126,1.5221,1.5181,1.51,1.5093,1.5174,1.5249,1.5303,1.5188,1.5181,1.5282,1.537,1.5303,1.5248,1.5276,1.5201,1.5072,1.4997,1.4977,1.4977,1.4984,1.4977,1.4977,1.497,1.4923,1.4869,1.4862,1.4679,1.4536,1.4543,1.459,1.4586,1.4593,1.4631,1.4586,1.4586,1.4516,1.4462,1.4502,1.5579,1.696,1.927,2.1664,2.3787,2.5817,2.7405,2.8052,2.8192,2.8192,2.8192,2.8192,2.8192,2.8125,0.6394,0.5721,0.7894,0.8274,0.7773,1.1876,1.3729,1.3941,1.5756,1.6564,1.6463,1.6395,1.6293,1.6198,1.6307,1.6293,1.6205,1.6307,1.6243,1.6178,1.6105,1.6069,1.6151,1.594,1.5879,1.5983,1.5805,1.5723,1.5689,1.5607,1.552,1.5282,1.5005,1.4877,1.485,1.4877,1.4877,1.4606,1.1238,0.933,0.9178,0.918,0.918,0.9186,0.9238,0.9198,0.9218,0.9214,0.9979,1.1604,1.1738,1.2547,1.4222,1.4401,1.4448,1.455,1.4563,1.4599,1.4782,1.4984,1.5133,1.5276,1.5425,1.556,1.5662,1.5615,1.5574,1.5587,1.56,1.5614,1.5566,1.5573,1.56,1.5676,1.5607,1.5539,1.5527,1.5486,1.5418,1.5309,1.5282,1.5282,1.5282,1.5282,1.5269,1.5215,1.5113,1.5071,1.5051,1.4909,1.4848,1.4789,1.4769,1.4794,1.4748,1.4794,1.4748,1.4748,1.462,1.4586,1.4763,1.4941,1.6831,2.0435,2.1926,2.3988,2.7336,2.8219,2.8192,2.8192,2.8192,2.8192,2.8192,2.8112,2.8058,0.3874,0.8015,0.8828,1.17,1.583,1.6489,1.6709,1.6835,1.6954,1.6931,1.689,1.6632,1.6503,1.6483,1.6497,1.649,1.6469,1.6497,1.649,1.6469,1.6469,1.6469,1.6463,1.6435,1.6381,1.6259,1.611,1.5974,1.5859,1.5723,1.558,1.5546,1.5519,1.5424,1.5323,1.5424,1.5431,1.5357,1.5035,1.4594,1.4088,1.4029,1.4036,1.4056,1.3977,1.4023,1.3795,1.4049,1.4101,1.4329,1.4296,1.4426,1.466,1.466,1.466,1.4681,1.4681,1.4841,1.5113,1.5282,1.5432,1.5539,1.5716,1.5854,1.5888,1.5947,1.59,1.5744,1.5764,1.5778,1.5607,1.5607,1.5716,1.5867,1.5737,1.5676,1.5806,1.5696,1.5566,1.5553,1.5512,1.5546,1.5512,1.5506,1.5472,1.5398,1.5282,1.5181,1.5167,1.5167,1.5133,1.5113,1.5038,1.4964,1.495,1.4996,1.495,1.4936,1.4821,1.4851,1.5255,1.6688,1.8836,2.167,2.3348,2.5386,2.7315,2.8406,2.8219,2.8259,2.8245,2.8205,2.8165,2.8018,2.7924,0.9275,1.1653,1.3421,1.5468,1.7547,1.7521,1.75,1.7473,1.7331,1.7243,1.7229,1.7107,1.6856,1.653,1.656,1.656,1.653,1.6567,1.6554,1.6524,1.6517,1.6517,1.6517,1.6517,1.649,1.6435,1.6368,1.6313,1.6232,1.6103,1.5995,1.5893,1.5811,1.5689,1.5512,1.556,1.556,1.5547,1.556,1.5465,1.5262,1.5222,1.5222,1.5222,1.5228,1.5222,1.5222,1.5222,1.5222,1.5222,1.5222,1.5222,1.5222,1.5222,1.5222,1.5228,1.5222,1.5276,1.5445,1.5513,1.5608,1.5757,1.5867,1.5935,1.603,1.6049,1.6022,1.594,1.5954,1.601,1.5906,1.59,1.5927,1.6024,1.5934,1.5893,1.5901,1.5805,1.5737,1.5607,1.5587,1.5593,1.5587,1.5587,1.5566,1.5506,1.5479,1.5418,1.5343,1.5391,1.5404,1.5337,1.5262,1.5194,1.512,1.5092,1.5092,1.5072,1.4977,1.5073,1.6919,1.759,1.9617,2.3402,2.4663,2.6117,2.8102,2.8508,2.846,2.8417,2.8417,2.8417,2.846,2.8219,2.8112,1.279,1.3933,1.6707,1.7956,1.7902,1.7711,1.7615,1.7677,1.7507,1.7439,1.7426,1.7385,1.7182,1.6763,1.679,1.6757,1.6727,1.6781,1.6702,1.6653,1.6646,1.6646,1.6646,1.6646,1.6625,1.6592,1.6585,1.6506,1.6466,1.6422,1.6307,1.6198,1.609,1.5981,1.5844,1.583,1.583,1.5886,1.583,1.583,1.583,1.583,1.5756,1.5614,1.5587,1.5587,1.5587,1.5587,1.5587,1.5587,1.5587,1.5587,1.5587,1.5587,1.5587,1.5593,1.5627,1.5696,1.5696,1.5737,1.5805,1.5956,1.5996,1.6078,1.6123,1.6178,1.6205,1.6205,1.6198,1.6185,1.6133,1.6133,1.6133,1.6133,1.6133,1.6078,1.599,1.5962,1.5879,1.5778,1.5742,1.5757,1.5757,1.5737,1.5703,1.5696,1.5655,1.5566,1.5465,1.5506,1.5539,1.5445,1.5424,1.5411,1.5276,1.5194,1.5194,1.5167,1.5126,1.5936,1.8297,1.8643,2.0318,2.3944,2.5183,2.6629,2.8378,2.8841,2.8724,2.8711,2.8671,2.8617,2.8564,2.8379,2.8219,1.1221,1.4092,1.689,1.8002,1.7915,1.7724,1.7731,1.7833,1.7561,1.7507,1.7554,1.7446,1.7412,1.7351,1.7229,1.7168,1.7141,1.7032,1.6978,1.6958,1.6958,1.701,1.6965,1.6958,1.689,1.6736,1.673,1.6648,1.6558,1.6473,1.6459,1.6497,1.6483,1.6483,1.6435,1.6429,1.6469,1.6422,1.6415,1.6456,1.6405,1.6456,1.6134,1.5695,1.5607,1.5634,1.5621,1.56,1.5607,1.56,1.5627,1.5621,1.5607,1.5614,1.5627,1.5634,1.5784,1.5901,1.5879,1.5988,1.6069,1.6096,1.6198,1.6286,1.63,1.6395,1.6456,1.649,1.6463,1.6368,1.6157,1.6137,1.6173,1.6117,1.6096,1.6096,1.6083,1.6096,1.6126,1.6062,1.6049,1.6035,1.6049,1.5983,1.5908,1.5874,1.5737,1.56,1.5642,1.5593,1.5607,1.5593,1.5566,1.5526,1.5432,1.5343,1.5248,1.5235,1.5498,1.6065,1.7615,1.941,2.2122,2.4412,2.5793,2.7221,2.8699,2.9272,2.9085,2.8951,2.8778,2.8698,2.8711,2.8419,2.8232,1.3942,1.6701,1.7802,1.8206,1.8138,1.7996,1.7962,1.7989,1.7792,1.7731,1.7772,1.7731,1.7704,1.7745,1.7548,1.7433,1.7344,1.7283,1.7263,1.7263,1.7263,1.7263,1.7263,1.7263,1.7236,1.7188,1.7122,1.71,1.6951,1.6863,1.6761,1.67,1.6768,1.6727,1.6571,1.6567,1.6574,1.653,1.6517,1.6517,1.653,1.6517,1.6408,1.6175,1.6155,1.6205,1.6155,1.6155,1.6155,1.6155,1.6205,1.6205,1.6155,1.6155,1.6155,1.6155,1.6252,1.6279,1.6286,1.6327,1.6361,1.6368,1.6408,1.6449,1.6449,1.649,1.6517,1.6524,1.6524,1.6456,1.6408,1.6361,1.6361,1.6361,1.6361,1.6347,1.6361,1.6361,1.6361,1.6347,1.6293,1.6225,1.6185,1.6096,1.6001,1.6044,1.5954,1.5879,1.5818,1.5852,1.5879,1.5847,1.5771,1.5757,1.5765,1.5574,1.5479,1.5431,1.5705,1.6762,1.8119,2.0145,2.2681,2.4763,2.6269,2.7882,2.9287,2.9472,2.9325,2.9272,2.9085,2.8898,2.8885,2.8511,2.8312,1.6543,1.8225,1.8389,1.8362,1.8308,1.8206,1.8165,1.8152,1.8057,1.8009,1.8009,1.8009,1.8009,1.7996,1.7852,1.7757,1.7684,1.7521,1.7419,1.7419,1.7419,1.7419,1.7419,1.7419,1.7419,1.7412,1.7419,1.7365,1.727,1.7168,1.7066,1.6932,1.708,1.7026,1.6856,1.6865,1.6858,1.6822,1.6761,1.6741,1.6734,1.6693,1.6666,1.6666,1.6666,1.6619,1.653,1.6517,1.6544,1.6585,1.6547,1.654,1.654,1.6493,1.6517,1.6524,1.6513,1.652,1.6537,1.6564,1.652,1.653,1.6571,1.6547,1.6547,1.6639,1.6666,1.6666,1.6673,1.6673,1.6673,1.6673,1.6632,1.6551,1.6517,1.6517,1.6517,1.6517,1.649,1.6429,1.6354,1.6293,1.6239,1.6144,1.611,1.6144,1.6123,1.6092,1.6029,1.6029,1.6056,1.6003,1.5976,1.5976,1.5956,1.5818,1.5655,1.5587,1.5615,1.6844,1.8271,2.0512,2.2447,2.4714,2.6704,2.8367,2.9356,2.9557,2.9606,2.9593,2.9392,2.9165,2.8951,2.8644,2.8446,1.8609,1.8545,1.8474,1.8464,1.8369,1.8328,1.8321,1.8314,1.8301,1.8274,1.826,1.8294,1.8267,1.8287,1.8247,1.828,1.8158,1.7738,1.7521,1.7514,1.7487,1.7473,1.7487,1.7473,1.7473,1.746,1.7433,1.7426,1.7419,1.7392,1.7365,1.7392,1.7385,1.7318,1.7392,1.7358,1.7385,1.7324,1.7209,1.7161,1.7175,1.7046,1.6978,1.6978,1.6985,1.6863,1.6585,1.6564,1.6594,1.6709,1.673,1.6709,1.6723,1.668,1.6564,1.6619,1.6642,1.6628,1.6592,1.6635,1.6642,1.6574,1.6628,1.6716,1.6716,1.6876,1.6951,1.6924,1.6937,1.6951,1.6958,1.6944,1.6836,1.6592,1.6578,1.6578,1.6558,1.6537,1.6483,1.6408,1.6374,1.6266,1.6151,1.6144,1.6191,1.6259,1.6218,1.6164,1.6218,1.6171,1.6103,1.6069,1.6092,1.6071,1.6098,1.6105,1.5886,1.575,1.5772,1.6347,1.7658,1.9505,2.0654,2.2727,2.5559,2.7325,2.9565,2.978,2.9806,2.9753,2.9566,2.9366,2.9125,2.8831,2.8511,1.8735,1.8694,1.8687,1.8667,1.8613,1.8511,1.8464,1.845,1.8369,1.8321,1.8321,1.8321,1.8321,1.8321,1.8321,1.8321,1.8301,1.8118,1.7981,1.8016,1.7928,1.7874,1.786,1.7772,1.7724,1.7704,1.7623,1.7521,1.7514,1.7433,1.7419,1.7433,1.748,1.746,1.7399,1.7467,1.748,1.7426,1.7372,1.7351,1.7344,1.7304,1.7283,1.7283,1.7283,1.7229,1.7141,1.7039,1.706,1.7195,1.7156,1.7209,1.7142,1.7168,1.7141,1.7134,1.708,1.7046,1.6985,1.6931,1.6897,1.687,1.6971,1.6992,1.6937,1.7046,1.708,1.7005,1.6985,1.7012,1.7087,1.7032,1.6944,1.6849,1.6836,1.6829,1.6822,1.6829,1.6822,1.6775,1.668,1.6547,1.653,1.6456,1.6388,1.6435,1.6402,1.6381,1.632,1.6286,1.6191,1.611,1.6146,1.6153,1.6117,1.6103,1.5995,1.59,1.5922,1.5889,1.7113,1.8679,1.9686,2.1692,2.4415,2.6707,2.8899,2.9913,2.9913,2.9847,2.9659,2.9486,2.9325,2.9072,2.8751,1.8843,1.8843,1.8902,1.8877,1.8918,1.8816,1.8749,1.8694,1.8606,1.8538,1.8498,1.8484,1.8484,1.8484,1.8484,1.8484,1.8484,1.8484,1.8484,1.8443,1.826,1.8179,1.8172,1.8084,1.8036,1.8023,1.7941,1.7845,1.7839,1.7751,1.7703,1.7724,1.7798,1.7826,1.769,1.7751,1.7738,1.7602,1.748,1.7507,1.7494,1.7453,1.7419,1.7419,1.7419,1.7392,1.7487,1.7412,1.7405,1.7433,1.7453,1.7453,1.7446,1.7446,1.7419,1.7399,1.7338,1.727,1.727,1.7188,1.7141,1.7161,1.7229,1.7243,1.7182,1.7236,1.7222,1.7161,1.7154,1.7182,1.7243,1.7202,1.7148,1.7141,1.7087,1.7066,1.7105,1.7012,1.6937,1.687,1.6788,1.6682,1.6601,1.6598,1.6551,1.6527,1.6558,1.6544,1.6456,1.6429,1.6327,1.6246,1.6218,1.6212,1.6178,1.6137,1.6133,1.6105,1.6085,1.5976,1.644,1.8528,1.9998,2.2863,2.5605,2.7093,2.9079,2.9689,2.99,2.9806,2.974,2.9619,2.9472,2.9285,2.9018,1.8796,1.8979,1.8972,1.902,1.9122,1.9115,1.9027,1.8966,1.8959,1.8864,1.8762,1.8749,1.8749,1.8807,1.8773,1.8766,1.8807,1.8779,1.8715,1.8654,1.8484,1.8348,1.8294,1.8267,1.826,1.8274,1.8274,1.828,1.824,1.8226,1.8321,1.8247,1.8233,1.824,1.8084,1.8097,1.8023,1.7894,1.7717,1.7663,1.7656,1.7589,1.75,1.75,1.7507,1.7561,1.7582,1.7609,1.7609,1.7609,1.7656,1.7602,1.7582,1.7521,1.7473,1.7507,1.7467,1.7473,1.7467,1.746,1.7433,1.7419,1.7439,1.7426,1.7399,1.7345,1.7412,1.7372,1.7378,1.7399,1.7419,1.7392,1.7392,1.7405,1.729,1.7216,1.7195,1.71,1.7026,1.6838,1.6743,1.6696,1.6673,1.6625,1.6673,1.67,1.6666,1.6659,1.6594,1.6547,1.6537,1.6456,1.6361,1.6341,1.6313,1.6218,1.6171,1.6151,1.6173,1.6071,1.6356,1.8323,2.1263,2.4092,2.6064,2.7578,2.8861,2.9647,2.9967,2.9873,2.982,2.974,2.9619,2.9446,2.9299,1.6752,1.8765,1.8823,1.8843,1.8877,1.8936,1.8864,1.8902,1.8945,1.8905,1.8868,1.8884,1.8915,1.8827,1.882,1.882,1.882,1.882,1.882,1.8813,1.8694,1.8511,1.8355,1.8321,1.8328,1.8335,1.8348,1.8321,1.8321,1.8342,1.8335,1.8321,1.8342,1.8308,1.826,1.826,1.824,1.8206,1.8165,1.8124,1.8118,1.8084,1.8023,1.7921,1.7901,1.7867,1.7833,1.7921,1.7914,1.7819,1.7806,1.7806,1.7812,1.7765,1.7772,1.7846,1.7799,1.7792,1.7853,1.7806,1.7704,1.7561,1.7684,1.765,1.7439,1.7473,1.7467,1.746,1.7419,1.7419,1.7487,1.744,1.7433,1.7494,1.746,1.7372,1.7351,1.7331,1.7283,1.7196,1.7222,1.7134,1.7032,1.6985,1.6978,1.6931,1.689,1.6829,1.6763,1.6723,1.6662,1.6564,1.6476,1.6469,1.6385,1.6327,1.6266,1.6246,1.6235,1.6182,1.687,1.8296,2.1924,2.5497,2.6248,2.7505,2.9092,3.0274,3.014,3.006,2.9993,2.9967,2.982,2.9646,2.9526,1.7262,1.8857,1.8915,1.8949,1.8945,1.8945,1.8918,1.8877,1.8945,1.8905,1.881,1.885,1.8902,1.882,1.882,1.882,1.882,1.882,1.882,1.882,1.8807,1.866,1.8538,1.8504,1.8504,1.8504,1.8498,1.8511,1.8518,1.8504,1.8504,1.8518,1.8504,1.8477,1.8409,1.8352,1.8375,1.8328,1.8321,1.8321,1.8321,1.8321,1.828,1.8179,1.8131,1.8043,1.7982,1.7989,1.8002,1.8036,1.8057,1.8057,1.805,1.7989,1.8002,1.8084,1.8002,1.8051,1.8063,1.8057,1.8023,1.7893,1.7968,1.7874,1.7751,1.7738,1.7684,1.7629,1.7609,1.765,1.7697,1.7656,1.7656,1.7711,1.7663,1.7582,1.7528,1.7399,1.7426,1.7419,1.7412,1.7399,1.7297,1.729,1.7249,1.7195,1.7175,1.708,1.6939,1.6892,1.6817,1.6734,1.6632,1.6567,1.6527,1.6432,1.6388,1.6361,1.6286,1.6278,1.7353,1.8676,2.197,2.5141,2.6219,2.7482,2.9077,3.0299,3.0547,3.0408,3.0301,3.0194,3.0074,2.998,2.9833,1.8686,1.8966,1.8966,1.904,1.9128,1.9162,1.9074,1.9006,1.9013,1.8938,1.883,1.8854,1.8803,1.882,1.882,1.882,1.882,1.882,1.882,1.882,1.882,1.8786,1.8779,1.8701,1.8766,1.8773,1.8807,1.8793,1.8779,1.8807,1.8834,1.8762,1.8827,1.8715,1.862,1.8515,1.8427,1.8423,1.8416,1.8416,1.8416,1.8416,1.8382,1.828,1.8152,1.8118,1.8077,1.8036,1.8063,1.8355,1.8328,1.8267,1.826,1.8172,1.8145,1.8152,1.8152,1.8131,1.8186,1.8294,1.8271,1.8231,1.8179,1.8104,1.8023,1.7914,1.7881,1.7861,1.7908,1.7888,1.7888,1.7902,1.7888,1.7888,1.7895,1.7792,1.7684,1.7548,1.7467,1.7467,1.7473,1.7467,1.7446,1.7446,1.7433,1.7317,1.7311,1.7236,1.7141,1.7087,1.7019,1.6924,1.6836,1.6723,1.6662,1.6594,1.6506,1.649,1.6402,1.6602,1.7769,1.9462,2.216,2.4466,2.6054,2.7569,2.9073,2.993,3.0578,3.0715,3.0555,3.0515,3.0507,3.0381,3.0274,1.6661,1.881,1.881,1.883,1.8877,1.8986,1.902,1.9,1.9101,1.9047,1.8959,1.8938,1.8864,1.882,1.882,1.882,1.882,1.882,1.882,1.882,1.882,1.882,1.882,1.8827,1.8827,1.882,1.882,1.8827,1.8789,1.8884,1.8938,1.8938,1.8938,1.8925,1.8871,1.8755,1.8701,1.8725,1.8654,1.864,1.864,1.8633,1.8538,1.8348,1.8186,1.8172,1.8247,1.824,1.8369,1.8504,1.8362,1.8226,1.8314,1.8301,1.8308,1.8348,1.8321,1.8369,1.8538,1.8511,1.8484,1.84,1.8335,1.8219,1.8091,1.8004,1.7929,1.7915,1.7915,1.7915,1.7915,1.7915,1.7915,1.7915,1.7915,1.7908,1.7874,1.7779,1.78,1.78,1.7745,1.7724,1.7616,1.7548,1.75,1.746,1.7399,1.7351,1.7297,1.7243,1.7148,1.7066,1.6992,1.6917,1.6842,1.6768,1.6635,1.6554,1.6473,1.6486,1.7667,1.8839,2.0996,2.3587,2.6212,2.7569,2.8644,3.0309,3.1116,3.0969,3.0835,3.0808,3.0768,3.0728,3.0621,1.5998,1.8762,1.882,1.882,1.8834,1.885,1.8925,1.8979,1.8986,1.9,1.8979,1.8925,1.8837,1.882,1.882,1.882,1.882,1.882,1.882,1.882,1.882,1.882,1.8841,1.8823,1.8843,1.8789,1.8902,1.8864,1.8911,1.9006,1.9088,1.9088,1.9088,1.904,1.9,1.8963,1.883,1.882,1.882,1.882,1.882,1.8813,1.8667,1.8437,1.8287,1.8267,1.8403,1.8192,1.8362,1.8545,1.8409,1.8301,1.8464,1.8457,1.8437,1.8409,1.8393,1.843,1.8525,1.8606,1.8606,1.8474,1.8403,1.8253,1.8104,1.8004,1.7929,1.7915,1.7915,1.7915,1.7915,1.7915,1.7915,1.7915,1.7915,1.7915,1.7915,1.7915,1.7915,1.7915,1.7902,1.7819,1.7779,1.7738,1.7731,1.7656,1.7656,1.7602,1.7514,1.7446,1.729,1.7202,1.7127,1.7053,1.6971,1.689,1.675,1.6675,1.6601,1.6513,1.6965,1.8013,1.9144,2.169,2.4168,2.6491,2.7746,2.9592,3.1174,3.1356,3.1263,3.1156,3.1062,3.1009,3.0862,1.5968,1.8854,1.8834,1.8776,1.8854,1.8888,1.8925,1.9,1.8911,1.8986,1.8979,1.8922,1.8875,1.8827,1.882,1.882,1.882,1.882,1.882,1.882,1.882,1.882,1.8847,1.8877,1.8925,1.8823,1.8952,1.9006,1.9027,1.9149,1.9237,1.923,1.9196,1.9135,1.9047,1.8959,1.8929,1.8834,1.8803,1.8847,1.8841,1.8841,1.8708,1.847,1.8416,1.8369,1.8396,1.8247,1.8247,1.8694,1.8498,1.8525,1.8647,1.8647,1.8525,1.8409,1.8484,1.8504,1.8518,1.8599,1.8654,1.8494,1.8379,1.8314,1.8179,1.8036,1.7997,1.7956,1.7949,1.7915,1.7915,1.7915,1.7915,1.7915,1.7915,1.7915,1.7915,1.7915,1.7915,1.7915,1.7915,1.7895,1.7895,1.7881,1.7902,1.7915,1.7915,1.7826,1.7717,1.7561,1.7453,1.729,1.7209,1.7087,1.6998,1.6971,1.6883,1.6842,1.6723,1.6662,1.6639,1.7279,1.8302,1.9422,2.165,2.4123,2.6577,2.8536,2.9914,3.1038,3.1657,3.1423,3.1343,3.1303,3.1116,1.61,1.8938,1.8875,1.8837,1.8966,1.9074,1.9122,1.9183,1.9223,1.925,1.9135,1.9013,1.8871,1.8854,1.882,1.882,1.8827,1.882,1.882,1.882,1.882,1.882,1.8847,1.8911,1.8966,1.9006,1.9081,1.9101,1.9108,1.9244,1.9366,1.9366,1.9271,1.9189,1.9088,1.8952,1.8837,1.8854,1.8857,1.8877,1.8803,1.883,1.8755,1.847,1.8457,1.8457,1.8416,1.8423,1.8531,1.8779,1.8586,1.8606,1.8766,1.8786,1.8745,1.8633,1.8579,1.8572,1.8613,1.8599,1.8654,1.8654,1.8572,1.8484,1.8382,1.8213,1.807,1.8002,1.7983,1.7915,1.7915,1.7915,1.7915,1.7915,1.7915,1.7915,1.7915,1.7915,1.7915,1.7915,1.7915,1.7915,1.7915,1.7915,1.7915,1.7915,1.7915,1.7819,1.7731,1.7602,1.7514,1.7419,1.727,1.7134,1.7005,1.6998,1.6965,1.6937,1.6897,1.6897,1.6863,1.6904,1.7647,1.8553,1.9998,2.2285,2.4729,2.727,2.9453,3.1177,3.1492,3.1616,3.157,3.1463,3.1396,1.6221,1.9035,1.902,1.8986,1.9,1.9061,1.9094,1.9088,1.9088,1.9088,1.9074,1.902,1.8959,1.8891,1.8877,1.8843,1.8841,1.882,1.882,1.882,1.882,1.882,1.8847,1.8925,1.8979,1.9027,1.9122,1.9223,1.9237,1.944,1.9488,1.9367,1.9345,1.925,1.9128,1.904,1.8891,1.885,1.8898,1.8918,1.8776,1.885,1.8715,1.8626,1.8531,1.8531,1.8552,1.8416,1.8538,1.8681,1.8613,1.8633,1.8708,1.8813,1.8786,1.8667,1.8647,1.8626,1.8667,1.8626,1.8667,1.8626,1.8572,1.8491,1.8416,1.828,1.8186,1.8084,1.7955,1.7915,1.7915,1.7929,1.7915,1.7915,1.7922,1.7922,1.7915,1.7915,1.7915,1.7915,1.7915,1.7915,1.7915,1.7915,1.7915,1.7915,1.7915,1.7812,1.7751,1.7717,1.7677,1.7541,1.7392,1.7263,1.7134,1.71,1.708,1.7046,1.7005,1.7005,1.6985,1.6985,1.6944,1.7342,1.9047,2.0874,2.3799,2.6671,2.8958,3.0885,3.1034,3.1111,3.15,3.1671,3.1381,1.6384,1.9244,1.9217,1.9135,1.904,1.9033,1.902,1.8972,1.8911,1.8932,1.8986,1.902,1.902,1.9006,1.9006,1.8966,1.885,1.8922,1.8936,1.8936,1.8877,1.8864,1.8956,1.8993,1.9108,1.9156,1.9264,1.9318,1.9332,1.9447,1.9481,1.944,1.9406,1.9284,1.9101,1.9128,1.9006,1.8911,1.8945,1.8952,1.8843,1.8834,1.88,1.8786,1.862,1.8626,1.8633,1.8552,1.8565,1.8674,1.8667,1.864,1.8793,1.882,1.8715,1.866,1.8721,1.8674,1.866,1.8681,1.8701,1.864,1.8593,1.8518,1.8457,1.8409,1.8301,1.8152,1.8057,1.7982,1.8002,1.8031,1.8004,1.7976,1.7976,1.7956,1.7929,1.7915,1.7915,1.7915,1.7915,1.7915,1.7915,1.7915,1.7915,1.7915,1.7915,1.7915,1.7812,1.7819,1.7772,1.765,1.7521,1.7405,1.7304,1.7249,1.7222,1.7188,1.7121,1.7073,1.7039,1.7012,1.6971,1.699,1.7853,1.9849,2.2998,2.5124,2.6288,2.7663,2.943,3.0258,3.0101,3.0399,3.0491,1.6436,1.9333,1.9264,1.9189,1.9176,1.9169,1.9101,1.9,1.9067,1.9081,1.8979,1.9108,1.9101,1.9067,1.9135,1.9162,1.9135,1.9108,1.9101,1.9094,1.9101,1.9101,1.9149,1.9312,1.9305,1.9305,1.9461,1.9434,1.9352,1.9318,1.9352,1.94,1.9325,1.9203,1.9169,1.9183,1.9047,1.8929,1.9033,1.9088,1.8945,1.8875,1.8708,1.866,1.8674,1.8701,1.8674,1.8654,1.8742,1.8807,1.8807,1.88,1.882,1.882,1.8837,1.8857,1.8843,1.8813,1.8749,1.8769,1.8827,1.8715,1.8715,1.8715,1.8647,1.8538,1.843,1.8251,1.8253,1.8226,1.8206,1.824,1.8186,1.8111,1.8063,1.7989,1.7983,1.7976,1.797,1.7915,1.7915,1.7915,1.7915,1.7915,1.7915,1.7915,1.7915,1.7915,1.7915,1.7915,1.7902,1.7731,1.767,1.7555,1.746,1.7405,1.7351,1.7317,1.7249,1.7168,1.7154,1.7127,1.7046,1.7275,1.7849,1.8418,2.0575,2.2216,2.3027,2.4986,2.7437,2.8117,2.8132,2.8728,3.0154,1.8271,1.9556,1.9488,1.9359,1.921,1.9203,1.9067,1.8905,1.8925,1.8918,1.8918,1.9108,1.921,1.9237,1.9312,1.9278,1.9217,1.921,1.9203,1.9217,1.9217,1.921,1.9183,1.9203,1.923,1.9406,1.9352,1.9325,1.9298,1.9413,1.9481,1.9406,1.9359,1.9291,1.9237,1.9203,1.9135,1.9061,1.9054,1.9,1.8884,1.8803,1.8776,1.8789,1.8857,1.8837,1.8823,1.8843,1.8891,1.8877,1.8888,1.8915,1.8938,1.8959,1.8959,1.9081,1.9054,1.8979,1.8911,1.8898,1.885,1.8841,1.882,1.8807,1.8735,1.8633,1.8525,1.8393,1.8362,1.8335,1.8328,1.8321,1.8287,1.824,1.8219,1.8124,1.8043,1.8009,1.7989,1.7976,1.7915,1.7915,1.7915,1.7915,1.7915,1.7915,1.7915,1.7915,1.7915,1.7915,1.7902,1.7806,1.7758,1.7717,1.7623,1.7494,1.7473,1.7433,1.7378,1.7324,1.7311,1.727,1.7195,1.7161,1.7466,1.8121,1.8843,2.0074,2.1632,2.3651,2.5708,2.6358,2.7248,3.0287,3.1415,1.9725,1.9725,1.9725,1.9501,1.9264,1.9217,1.9061,1.8895,1.8789,1.8827,1.8902,1.9067,1.9284,1.942,1.9454,1.9434,1.9332,1.9318,1.9318,1.9318,1.9318,1.9339,1.9339,1.9264,1.9312,1.9481,1.9373,1.9352,1.9474,1.9563,1.9556,1.944,1.9413,1.9366,1.9305,1.9318,1.9312,1.9244,1.9081,1.8979,1.8911,1.8915,1.8918,1.8986,1.9047,1.904,1.9047,1.904,1.904,1.902,1.8966,1.9006,1.9122,1.9094,1.9115,1.9223,1.9237,1.921,1.9128,1.9067,1.8966,1.8864,1.8827,1.882,1.8749,1.8647,1.8593,1.8593,1.8525,1.8464,1.843,1.8443,1.8423,1.8409,1.8369,1.8274,1.8179,1.8124,1.8063,1.7996,1.7983,1.7915,1.7915,1.7915,1.7915,1.7915,1.7915,1.7915,1.7915,1.7915,1.7908,1.7826,1.7819,1.7799,1.7751,1.7677,1.7609,1.7555,1.7507,1.7473,1.7419,1.7419,1.7351,1.7324,1.7317,1.753,1.813,1.9208,2.0223,2.1012,2.2187,2.489,2.6959,3.0231,3.2372,1.9725,1.9725,1.9718,1.9556,1.94,1.9257,1.9115,1.8945,1.8881,1.8847,1.8864,1.9067,1.9291,1.944,1.9563,1.9677,1.9677,1.9684,1.965,1.965,1.9684,1.9643,1.9609,1.9596,1.9623,1.9617,1.9501,1.9529,1.9691,1.9691,1.9569,1.9454,1.9474,1.944,1.9447,1.9501,1.9454,1.9345,1.9156,1.9094,1.9074,1.9054,1.9047,1.9156,1.9189,1.9189,1.9189,1.9189,1.9189,1.9189,1.9135,1.9169,1.925,1.9217,1.9271,1.9379,1.9413,1.94,1.9359,1.925,1.9122,1.8986,1.8884,1.8875,1.8796,1.8841,1.8813,1.8762,1.8728,1.8721,1.8721,1.8715,1.8647,1.8559,1.8504,1.843,1.8328,1.8213,1.8145,1.807,1.8058,1.7997,1.7936,1.7942,1.7922,1.7915,1.7915,1.7915,1.7915,1.7915,1.7915,1.7908,1.7908,1.7902,1.7908,1.7847,1.7738,1.7704,1.767,1.7643,1.7575,1.7514,1.7521,1.748,1.7467,1.7433,1.7372,1.8229,1.8491,1.766,1.8983,2.2877,2.6397,2.9584,3.1527,1.9603,1.9522,1.9522,1.9488,1.942,1.9264,1.9122,1.8993,1.8932,1.9013,1.9156,1.921,1.9339,1.9535,1.9617,1.9725,1.9725,1.9725,1.9725,1.9725,1.9725,1.9725,1.9705,1.9596,1.9556,1.9624,1.959,1.959,1.9711,1.9725,1.9705,1.9583,1.9563,1.9576,1.961,1.961,1.9515,1.9373,1.9271,1.9264,1.9169,1.9169,1.9189,1.9325,1.9345,1.9345,1.9345,1.9339,1.9339,1.9325,1.9264,1.9332,1.942,1.9386,1.9427,1.9542,1.9569,1.9569,1.9542,1.9427,1.9278,1.9156,1.9061,1.8993,1.8918,1.8972,1.8966,1.8966,1.8972,1.8972,1.8905,1.8891,1.8843,1.8728,1.8633,1.8565,1.8484,1.8362,1.828,1.8226,1.8118,1.803,1.7968,1.7921,1.7942,1.7915,1.7915,1.7915,1.7915,1.7915,1.7915,1.7915,1.7915,1.7915,1.7915,1.7915,1.7915,1.7895,1.7806,1.7779,1.7745,1.7772,1.7724,1.767,1.7609,1.7582,1.7446,1.7372,1.7256,1.7208,1.9226,2.2471,2.5768,2.8708,3.0391,1.9501,1.9373,1.9353,1.934,1.9345,1.9203,1.9081,1.8993,1.8932,1.9061,1.9298,1.9271,1.9379,1.9563,1.9711,1.9725,1.9725,1.9725,1.9725,1.9725,1.9725,1.9725,1.9684,1.9596,1.9583,1.9677,1.9583,1.9583,1.9718,1.9725,1.9718,1.9711,1.9725,1.9718,1.9718,1.9711,1.9549,1.942,1.9366,1.9434,1.9339,1.9298,1.9345,1.9474,1.9501,1.9501,1.9501,1.9501,1.9535,1.9515,1.9488,1.9501,1.9576,1.9624,1.9596,1.9664,1.9786,1.9786,1.9678,1.9535,1.9393,1.9284,1.9203,1.9135,1.9115,1.9149,1.9108,1.9074,1.9135,1.9149,1.902,1.8966,1.8898,1.8769,1.8728,1.8667,1.8606,1.8511,1.845,1.8325,1.8267,1.8158,1.8104,1.8043,1.799,1.7949,1.7915,1.7915,1.7915,1.7915,1.7915,1.7915,1.7915,1.7915,1.7915,1.7915,1.7915,1.7915,1.7895,1.7902,1.7895,1.7915,1.7915,1.7792,1.7738,1.7663,1.7663,1.7582,1.7439,1.729,1.9628,2.203,2.354,2.6282,2.8924,1.9352,1.923,1.9366,1.9345,1.9217,1.9061,1.9013,1.902,1.8891,1.8918,1.9115,1.9298,1.9413,1.9488,1.9596,1.9718,1.9725,1.9725,1.9725,1.9725,1.9759,1.9739,1.9739,1.9725,1.9671,1.9718,1.9698,1.9691,1.9718,1.9725,1.9725,1.9725,1.9725,1.9725,1.9725,1.9725,1.9718,1.963,1.9501,1.9522,1.9549,1.9474,1.9515,1.9583,1.9677,1.961,1.961,1.961,1.9657,1.9732,1.9671,1.9712,1.982,1.9752,1.9752,1.9854,1.9929,1.9929,1.9841,1.959,1.9481,1.9427,1.9352,1.9264,1.9217,1.9223,1.9237,1.9217,1.925,1.9183,1.9074,1.9006,1.8945,1.885,1.8816,1.882,1.8701,1.8647,1.8579,1.8525,1.8416,1.8308,1.8253,1.8172,1.8023,1.799,1.7936,1.7915,1.7915,1.7915,1.7915,1.7915,1.7915,1.7915,1.7915,1.7915,1.7915,1.7915,1.7915,1.7915,1.7915,1.7915,1.7915,1.7915,1.7799,1.7724,1.7779,1.7881,1.765,1.7683,1.9136,2.1135,2.231,2.38,2.6368,1.9434,1.9217,1.9366,1.9345,1.9203,1.9156,1.9183,1.9244,1.9142,1.9135,1.9278,1.9406,1.9434,1.9481,1.9576,1.9725,1.9725,1.9725,1.9725,1.9739,1.9746,1.9854,1.9861,1.9848,1.9786,1.9773,1.9793,1.9725,1.9725,1.9725,1.9725,1.9725,1.9725,1.9725,1.9725,1.9725,1.9725,1.9718,1.961,1.961,1.9651,1.961,1.9664,1.9725,1.9725,1.9725,1.9739,1.9745,1.982,1.9943,1.9888,1.9881,1.999,1.9936,1.9963,2.0017,2.0024,1.9969,1.9908,1.9752,1.9685,1.9596,1.9522,1.9434,1.9373,1.9461,1.944,1.94,1.9427,1.9379,1.9332,1.9298,1.921,1.8993,1.8911,1.8843,1.8782,1.8742,1.8687,1.8647,1.8565,1.8423,1.8335,1.8274,1.8145,1.8023,1.8017,1.7942,1.7922,1.7922,1.7915,1.7915,1.7915,1.7915,1.7915,1.7915,1.7915,1.7915,1.7915,1.7915,1.7915,1.7915,1.7915,1.7915,1.7785,1.7717,1.7751,1.7772,1.7765,1.8236,1.9131,2.0058,2.1135,2.2187,2.3648,1.9337,1.9081,1.9271,1.9298,1.921,1.9203,1.9264,1.9339,1.9298,1.9345,1.942,1.9481,1.9515,1.9542,1.9603,1.9725,1.9725,1.9725,1.978,1.98,1.982,1.9854,1.9861,1.9868,1.9813,1.9793,1.9786,1.9725,1.9725,1.9725,1.9725,1.9725,1.9732,1.9725,1.9725,1.9725,1.9725,1.9718,1.9705,1.9711,1.9725,1.9711,1.9718,1.9725,1.9732,1.9745,1.978,1.982,1.9888,1.9942,2.0003,2.0031,2.0119,2.0132,2.0139,2.0159,2.0173,2.0126,2.0071,1.9888,1.9807,1.9739,1.9759,1.9617,1.9542,1.9583,1.9576,1.9569,1.9624,1.9549,1.9468,1.9447,1.9339,1.9115,1.904,1.8979,1.8891,1.885,1.8789,1.8755,1.8687,1.8545,1.8423,1.8348,1.8274,1.8152,1.8043,1.8024,1.7942,1.7922,1.7922,1.7915,1.7915,1.7915,1.7915,1.7915,1.7915,1.7915,1.7915,1.7915,1.7915,1.7915,1.7915,1.7902,1.7758,1.769,1.7629,1.769,1.7751,1.7765,1.8026,1.8987,2.0023,2.0744,2.1531,1.8918,1.8823,1.9088,1.9217,1.9203,1.9217,1.923,1.9244,1.9379,1.9374,1.944,1.9583,1.9617,1.9691,1.9651,1.9725,1.9725,1.9725,1.9786,1.9888,1.9881,1.9888,1.9888,1.9895,1.9854,1.9807,1.9732,1.9739,1.9739,1.9807,1.9807,1.978,1.9752,1.982,1.9814,1.9814,1.9786,1.9752,1.9759,1.9752,1.9732,1.9752,1.9745,1.9752,1.978,1.9834,1.9888,1.9875,2.0037,2.0139,2.0187,2.0227,2.0234,2.0193,2.0241,2.0288,2.0336,2.0315,2.0248,2.0044,1.9942,1.9881,1.9841,1.9766,1.9711,1.9644,1.963,1.963,1.9711,1.9563,1.9488,1.9447,1.9406,1.9291,1.9223,1.9128,1.9027,1.8959,1.8891,1.8837,1.8776,1.8667,1.8565,1.8484,1.8389,1.8308,1.8199,1.8097,1.8009,1.7936,1.7929,1.7915,1.7915,1.7915,1.7915,1.7915,1.7915,1.7915,1.7915,1.7915,1.7915,1.7915,1.7915,1.7881,1.7724,1.7622,1.7609,1.7717,1.7806,1.7806,1.7785,1.8026,1.906,1.8726,1.9372,1.9061,1.8959,1.9244,1.9305,1.9223,1.9318,1.9427,1.9589,1.9583,1.9542,1.944,1.9596,1.9677,1.9515,1.9603,1.9711,1.9725,1.9725,1.9739,1.9773,1.9915,1.9922,1.9942,1.9956,1.9915,1.9882,1.98,1.9793,1.9888,1.9888,1.9956,1.9983,1.9929,1.9942,1.9949,1.9969,1.9847,1.9759,1.978,1.9759,1.9746,1.9834,1.9752,1.9746,1.9868,1.9922,1.9929,2.0003,2.0153,2.0268,2.0288,2.0273,2.0451,2.0374,2.0395,2.0401,2.0471,2.0438,2.0343,2.0248,2.0146,2.0051,1.9976,1.9841,1.9807,1.9745,1.9745,1.9732,1.9725,1.9596,1.9569,1.9542,1.9488,1.942,1.9359,1.9291,1.9176,1.9054,1.8986,1.8871,1.881,1.8749,1.866,1.8586,1.8498,1.8379,1.8305,1.8253,1.8131,1.8002,1.797,1.7963,1.7915,1.7915,1.7915,1.7915,1.7915,1.7915,1.7915,1.7915,1.7915,1.7915,1.7915,1.7874,1.7738,1.7629,1.7595,1.7724,1.7812,1.7902,1.7888,1.7881,1.7868,1.784,1.7827,1.8979,1.8938,1.9156,1.9264,1.9318,1.9461,1.9583,1.9718,1.9725,1.9603,1.9535,1.9617,1.961,1.9556,1.9684,1.9725,1.9725,1.9725,1.9759,1.982,1.9936,1.9969,1.9997,1.9997,1.9976,1.9902,1.9916,1.9895,1.9956,2.0031,2.0092,2.0085,2.0098,2.0105,2.0105,2.0119,2.0058,1.9956,1.9902,1.9895,1.9902,1.9908,1.9888,1.9881,2.0044,2.0051,2.0064,2.0153,2.0261,2.0383,2.0347,2.0381,2.0469,2.0469,2.0469,2.0469,2.0462,2.0492,2.0431,2.0349,2.0275,2.0207,2.0139,2.001,1.9895,1.9882,1.9807,1.9739,1.9732,1.9718,1.9725,1.9711,1.959,1.9529,1.9488,1.9447,1.9312,1.9162,1.9033,1.8905,1.883,1.8834,1.8715,1.8654,1.8613,1.8586,1.8525,1.8423,1.828,1.8131,1.8043,1.7996,1.7976,1.7915,1.7922,1.7929,1.7915,1.7915,1.7915,1.7915,1.7922,1.7908,1.7902,1.7812,1.7758,1.7717,1.769,1.7738,1.7799,1.7888,1.7915,1.7908,1.7902,1.7895,1.7888,1.882,1.8841,1.8932,1.9183,1.9447,1.9576,1.9637,1.9718,1.9725,1.9725,1.9718,1.9725,1.9718,1.9691,1.9718,1.9725,1.9725,1.9725,1.9766,1.9861,1.9936,1.9963,1.9949,1.9976,2.0017,2.0017,2.0003,1.9969,2.0085,2.018,2.0207,2.0132,2.0166,2.0193,2.0227,2.0295,2.0261,2.0187,2.0139,2.0132,2.0092,2.0098,2.0112,2.0092,2.0139,2.0193,2.0282,2.0286,2.034,2.0428,2.0476,2.0469,2.0469,2.0539,2.0539,2.0539,2.0539,2.0526,2.0492,2.0431,2.032,2.0309,2.022,2.0159,2.0078,1.9963,1.9861,1.982,1.982,1.9834,1.982,1.98,1.9691,1.963,1.9583,1.9542,1.9461,1.9284,1.9081,1.8945,1.8881,1.8834,1.8813,1.8694,1.8687,1.8694,1.866,1.8565,1.8464,1.8301,1.8199,1.8124,1.8009,1.7997,1.797,1.797,1.7929,1.7915,1.7942,1.7963,1.8004,1.7901,1.7833,1.7812,1.7792,1.7765,1.7751,1.7792,1.7819,1.7895,1.7915,1.7915,1.7915,1.7915,1.7915,1.882,1.8834,1.8925,1.9223,1.9569,1.9515,1.9556,1.9725,1.9725,1.9725,1.9725,1.9725,1.9725,1.9725,1.9725,1.9725,1.9725,1.9752,1.9745,1.9813,1.9922,1.9956,1.9902,2.0064,2.0085,2.0003,2.0003,2.0139,2.0254,2.0286,2.0424,2.0424,2.0404,2.0383,2.039,2.0465,2.0431,2.0376,2.0376,2.0282,2.0166,2.0207,2.0241,2.0234,2.0254,2.0343,2.0347,2.0374,2.0422,2.0539,2.0539,2.0476,2.0539,2.0539,2.0539,2.0539,2.0539,2.0539,2.0526,2.0499,2.0471,2.0471,2.0424,2.0363,2.0268,2.0132,2.0037,2.0003,1.9956,1.9902,1.9841,1.9813,1.9773,1.978,1.9725,1.9691,1.959,1.9366,1.9128,1.8979,1.8837,1.8841,1.8827,1.882,1.882,1.8813,1.88,1.8694,1.864,1.8518,1.8403,1.8301,1.8138,1.8057,1.8023,1.7996,1.8038,1.8031,1.8002,1.8023,1.8036,1.8023,1.7996,1.7894,1.7833,1.7826,1.7819,1.7888,1.7908,1.7915,1.7915,1.7915,1.7915,1.7915,1.7915,1.8864,1.8891,1.9101,1.9325,1.9529,1.9535,1.9583,1.9711,1.9725,1.9725,1.9725,1.9725,1.9725,1.9725,1.9725,1.9725,1.9739,1.9793,1.9766,1.9847,1.9956,2.0037,2.0092,2.0153,2.022,2.0173,2.0241,2.0363,2.0361,2.0408,2.0526,2.0539,2.0539,2.0539,2.0539,2.0539,2.0539,2.0532,2.0539,2.0438,2.0282,2.0349,2.0327,2.032,2.0417,2.0478,2.0485,2.0442,2.0519,2.0539,2.0539,2.0539,2.0539,2.0539,2.0539,2.0539,2.0539,2.0539,2.0539,2.0539,2.0539,2.0539,2.0539,2.0444,2.0381,2.0309,2.0193,2.0146,2.0064,1.9997,1.9895,1.9841,1.9766,1.9766,1.9718,1.9684,1.9508,1.9332,1.9142,1.9,1.8929,1.8834,1.882,1.882,1.882,1.882,1.882,1.8827,1.8786,1.8752,1.8586,1.8491,1.8328,1.8219,1.8192,1.8158,1.8131,1.8124,1.8124,1.8158,1.8192,1.8192,1.8158,1.8043,1.7955,1.7914,1.797,1.7976,1.7929,1.7915,1.7915,1.7915,1.7922,1.7942,1.7929,1.9006,1.9081,1.9318,1.9447,1.9474,1.9596,1.9725,1.9725,1.9725,1.9725,1.9725,1.9725,1.9725,1.9725,1.9725,1.9725,1.9759,1.9786,1.9841,1.9908,2.0058,2.0105,2.0159,2.0227,2.0329,2.0417,2.0478,2.0492,2.0449,2.0539,2.0539,2.0539,2.0539,2.0539,2.0539,2.0539,2.0539,2.0539,2.0539,2.0539,2.0526,2.0539,2.0455,2.0455,2.0539,2.0539,2.0539,2.0539,2.0539,2.0539,2.0539,2.0539,2.0539,2.0539,2.0539,2.0539,2.0539,2.0539,2.0539,2.0539,2.0539,2.0539,2.0539,2.0469,2.0469,2.0408,2.0349,2.0275,2.0187,2.0078,1.9969,1.9854,1.9841,1.9759,1.9718,1.9691,1.9481,1.9339,1.9196,1.9054,1.8959,1.8909,1.8881,1.8875,1.8861,1.8854,1.8841,1.8841,1.8834,1.8807,1.8681,1.862,1.8525,1.8443,1.8369,1.8294,1.8253,1.826,1.826,1.8308,1.8285,1.8342,1.8287,1.8172,1.8097,1.807,1.8036,1.803,1.8024,1.799,1.7983,1.801,1.7982,1.8038,1.797,1.9128,1.9352,1.9353,1.9501,1.9603,1.9711,1.9725,1.9725,1.9725,1.9725,1.9725,1.9725,1.9725,1.9725,1.9725,1.9725,1.9745,1.9807,1.9861,1.9902,2.0139,2.0187,2.0234,2.0273,2.0408,2.0519,2.0539,2.0539,2.0539,2.0539,2.0539,2.0539,2.0539,2.0539,2.0539,2.0539,2.0539,2.0539,2.0539,2.0539,2.0539,2.0539,2.0539,2.0539,2.0539,2.0539,2.0539,2.0539,2.0539,2.0539,2.0539,2.0539,2.0539,2.0539,2.0539,2.0539,2.0539,2.0539,2.0539,2.0539,2.0539,2.0539,2.0539,2.0539,2.0469,2.0469,2.0451,2.0368,2.0329,2.018,2.0058,1.9915,1.9813,1.978,1.9711,1.9711,1.9643,1.9468,1.9339,1.925,1.9169,1.9101,1.9061,1.904,1.8993,1.8966,1.8877,1.8877,1.8925,1.8864,1.8847,1.8742,1.8701,1.8613,1.8518,1.8409,1.8362,1.8375,1.8409,1.8464,1.8498,1.8491,1.8423,1.8308,1.8274,1.8253,1.8213,1.8138,1.8172,1.8145,1.8084,1.8077,1.8104,1.8097,1.8036]},{"header":{"parameterUnit":"m.s-1","parameterCategory":1,"la1":31.0,"la2":29.5877,"lo1":-88.7671,"lo2":-86.6584,"dy":0.0162,"dx":0.0185,"nx":115,"ny":88,"refTime":"2026-04-09T00:00:00:Z","depth":0,"parameterNumber":3,"parameterNumberName":"V-component_of_WINDS"},"data":[0.0,0.0,0.0,0.0,0.0,0.0,0.0,0.0,0.0,0.0,0.0,0.0,0.0,0.0,0.0,0.0,0.0,0.0,0.0,0.0,0.0,0.0,0.0,0.0,0.0,0.0,0.0,0.0,0.0,0.0,0.0,0.0,0.0,0.0,0.0,0.0,0.0,0.0,0.0,0.0,0.0,0.0,0.0,0.0,0.0,0.0,0.0,0.0,0.0,0.0,0.0,0.0,0.0,0.0,0.0,0.0,0.0,0.0,0.0,0.0,0.0,0.0,0.0,0.0,0.0,0.0,0.0,0.0,0.0,0.0,0.0,0.0,0.0,0.0,0.0,0.0,0.0,0.0,0.0,0.0,0.0,0.0,0.0,0.0,0.0,0.0,0.0,0.0,0.0,0.0,0.0,0.0,0.0,0.0,0.0,0.0,0.0,0.0,0.0,0.0,0.0,0.0,0.0,0.0,0.0,0.0,0.0,0.0,0.0,0.0,0.0,0.0,0.0,0.0,0.0,0.0,0.0,0.0,0.0,0.0,0.0,0.0,0.0,0.0,0.0,0.0,0.0,0.0,0.0,0.0,0.0,0.0,0.0,0.0,0.0,0.0,0.0,0.0,0.0,0.0,0.0,0.0,0.0,0.0,0.0,0.0,0.0,0.0,0.0,0.0,0.0,0.0,0.0,0.0,0.0,0.0,0.0,0.0,0.0,0.0,0.0,0.0,0.0,0.0,0.0,0.0,0.0,0.0,0.0,0.0,0.0,0.0,0.0,0.0,0.0,0.0,0.0,0.0,0.0,0.0,0.0,0.0,0.0,0.0,0.0,0.0,0.0,0.0,0.0,0.0,0.0,0.0,0.0,0.0,0.0,0.0,0.0,0.0,0.0,0.0,0.0,0.0,0.0,0.0,0.0,0.0,0.0,0.0,0.0,0.0,0.0,0.0,0.0,0.0,0.0,0.0,0.0,0.0,0.0,0.0,0.0,0.0,0.0,0.0,0.0,0.0,0.0,0.0,0.0,0.0,0.0,0.0,0.0,0.0,0.0,0.0,0.0,0.0,0.0,0.0,0.0,0.0,0.0,0.0,0.0,0.0,0.0,0.0,0.0,0.0,0.0,0.0,0.0,0.0,0.0,0.0,0.0,0.0,0.0,0.0,0.0,0.0,0.0,0.0,0.0,0.0,0.0,0.0,0.0,0.0,0.0,0.0,0.0,0.0,0.0,0.0,0.0,0.0,0.0,0.0,0.0,0.0,0.0,0.0,0.0,0.0,0.0,0.0,0.0,0.0,0.0,0.0,0.0,0.0,0.0,0.0,0.0,0.0,0.0,0.0,0.0,0.0,0.0,0.0,0.0,0.0,0.0,0.0,0.0,0.0,0.0,0.0,0.0,0.0,0.0,0.0,0.0,0.0,0.0,0.0,0.0,0.0,0.0,0.0,0.0,0.0,0.0,0.0,0.0,0.0,0.0,0.0,0.0,0.0,0.0,0.0,0.0,0.0,0.0,0.0,0.0,0.0,0.0,0.0,0.0,0.0,0.0,0.0,0.0,0.0,0.0,0.0,0.0,0.0,0.0,0.0,0.0,0.0,0.0,0.0,0.0,0.0,0.0,0.0,0.0,0.0,0.0,0.0,0.0,0.0,0.0,0.0,0.0,0.0,0.0,0.0,0.0,0.0,0.0,0.0,0.0,0.0,0.0,0.0,0.0,0.0,0.0,0.0,0.0,0.0,0.0,0.0,0.0,0.0,0.0,0.0,0.0,0.0,0.0,0.0,0.0,0.0,0.0,0.0,0.0,0.0,0.0,0.0,0.0,0.0,0.0,0.0,0.0,0.0,0.0,0.0,0.0,0.0,0.0,0.0,0.0,0.0,0.0,0.0,0.0,0.0,0.0,0.0,0.0,0.0,0.0,0.0,0.0,0.0,0.0,0.0,0.0,0.0,0.0,0.0,0.0,0.0,0.0,0.0,0.0,0.0,0.0,0.0,0.0,0.0,0.0,0.0,0.0,0.0,0.0,0.0,0.0,0.0,0.0,0.0,0.0,0.0,0.0,0.0,0.0,0.0,0.0,0.0,0.0,0.0,0.0,0.0,0.0,0.0,0.0,0.0,0.0,0.0,0.0,0.0,0.0,0.0,0.0,0.0,0.0,0.0,0.0,0.0,0.0,0.0,0.0,0.0,0.0,0.0,0.0,0.0,0.0,0.0,0.0,0.0,0.0,0.0,0.0,0.0,0.0,0.0,0.0,0.0,0.0,0.0,0.0,0.0,0.0,0.0,0.0,0.0,0.0,0.0,0.0,0.0,0.0,0.0,0.0,0.0,0.0,0.0,0.0,0.0,0.0,0.0,0.0,0.0,0.0,0.0,0.0,0.0,0.0,0.0,0.0,0.0,0.0,0.0,0.0,0.0,0.0,0.0,0.0,0.0,0.0,0.0,0.0,0.0,0.0,0.0,0.0,0.0,0.0,0.0,0.0,0.0,0.0,0.0,0.0,0.0,0.0,0.0,0.0,0.0,0.0,0.0,0.0,0.0,0.0,0.0,0.0,0.0,0.0,0.0,0.0,0.0,0.0,0.0,0.0,0.0,0.0,0.0,0.0,0.0,0.0,0.0,0.0,0.0,0.0,0.0,0.0,0.0,0.0,0.0,0.0,0.0,0.0,0.0,0.0,0.0,0.0,0.0,0.0,0.0,0.0,0.0,0.0,0.0,0.0,0.0,0.0,0.0,0.0,0.0,0.0,0.0,0.0,0.0,0.0,0.0,0.0,0.0,0.0,0.0,0.0,0.0,0.0,0.0,0.0,0.0,0.0,0.0,0.0,0.0,0.0,0.0,0.0,0.0,0.0,0.0,0.0,0.0,0.0,0.0,0.0,0.0,0.0,0.0,0.0,0.0,0.0,0.0,0.0,0.0,0.0,0.0,0.0,0.0,0.0,0.0,0.0,0.0,0.0,0.0,0.0,0.0,0.0,0.0,0.0,0.0,0.0,0.0,0.0,0.0,0.0,0.0,0.0,0.0,0.0,0.0,0.0,0.0,0.0,0.0,0.0,0.0,0.0,0.0,0.0,0.0,0.0,0.0,0.0,0.0,0.0,0.0,0.0,0.0,0.0,0.0,0.0,0.0,0.0,0.0,0.0,0.0,0.0,0.0,0.0,0.0,0.0,0.0,0.0,0.0,0.0,0.0,0.0,0.0,0.0,0.0,0.0,0.0,0.0,0.0,0.0,0.0,0.0,0.0,0.0,0.0,0.0,0.0,0.0,0.0,0.0,0.0,0.0,0.0,0.0,0.0,0.0,0.0,0.0,0.0,0.0,0.0,0.0,0.0,0.0,0.0,0.0,0.0,0.0,0.0,0.0,0.0,0.0,0.0,0.0,0.0,0.0,0.0,0.0,0.0,0.0,0.0,0.0,0.0,0.0,0.0,0.0,0.0,0.0,0.0,0.0,0.0,0.0,0.0,0.0,0.0,0.0,0.0,0.0,0.0,0.0,0.0,0.0,0.0,0.0,0.0,0.0,0.0,0.0,0.0,0.0,0.0,0.0,0.0,0.0,0.0,0.0,0.0,0.0,0.0,0.0,0.0,0.0,0.0,0.0,0.0,0.0,0.0,0.0,0.0,0.0,0.0,0.0,0.0,0.0,0.0,0.0,0.0,0.0,0.0,0.0,0.0,0.0,0.0,0.0,0.0,0.0,0.0,0.0,0.0,0.0,0.0,0.0,0.0,0.0,0.0,0.0,0.0,0.0,0.0,0.0,0.0,0.0,0.0,0.0,0.0,0.0,0.0,0.0,0.0,0.0,0.0,0.0,0.0,0.0,0.0,0.0,0.0,0.0,0.0,0.0,0.0,0.0,0.0,0.0,0.0,0.0,0.0,0.0,0.0,0.0,0.0,0.0,0.0,0.0,0.0,0.0,0.0,0.0,0.0,0.0,0.0,0.0,0.0,0.0,0.0,0.0,0.0,0.0,0.0,0.0,0.0,0.0,0.0,0.0,0.0,0.0,0.0,0.0,0.0,0.0,0.0,0.0,0.0,0.0,0.0,0.0,0.0,0.0,0.0,0.0,0.0,0.0,0.0,0.0,0.0,0.0,0.0,0.0,0.0,0.0,0.0,0.0,0.0,0.0,0.0,0.0,0.0,0.0,0.0,0.0,0.0,0.0,0.0,0.0,0.0,0.0,0.0,0.0,0.0,0.0,0.0,0.0,0.0,0.0,0.0,0.0,0.0,0.0,0.0,0.0,0.0,0.0,0.0,0.0,0.0,0.0,0.0,4.3789,0.0,0.0,0.0,0.0,0.0,0.0,0.0,0.0,0.0,0.0,0.0,0.0,0.0,0.0,0.0,0.0,0.0,0.0,0.0,0.0,0.0,0.0,0.0,0.0,0.0,0.0,0.0,0.0,0.0,0.0,0.0,0.0,0.0,0.0,0.0,0.0,0.0,0.0,0.0,0.0,0.0,0.0,0.0,0.0,0.0,0.0,0.0,0.0,0.0,0.0,0.0,0.0,0.0,0.0,0.0,0.0,0.0,0.0,0.0,0.0,0.0,0.0,0.0,0.0,0.0,0.0,0.0,0.0,0.0,0.0,0.0,0.0,0.0,0.0,0.0,0.0,0.0,0.0,0.0,0.0,0.0,0.0,0.0,0.0,0.0,0.0,0.0,0.0,0.0,0.0,0.0,0.0,0.0,0.0,0.0,0.0,0.0,0.0,0.0,0.0,0.0,0.0,0.0,0.0,0.0,0.0,0.0,0.0,0.0,0.0,4.6289,4.6289,4.6289,4.5468,4.3739,0.0,0.0,0.0,0.0,0.0,0.0,0.0,0.0,0.0,0.0,0.0,0.0,0.0,0.0,0.0,0.0,0.0,0.0,0.0,0.0,0.0,0.0,0.0,0.0,0.0,0.0,0.0,0.0,0.0,0.0,0.0,0.0,0.0,0.0,0.0,0.0,0.0,0.0,0.0,0.0,0.0,0.0,0.0,0.0,0.0,0.0,0.0,0.0,0.0,0.0,0.0,0.0,0.0,0.0,0.0,0.0,0.0,0.0,0.0,0.0,0.0,0.0,0.0,0.0,0.0,0.0,0.0,0.0,0.0,0.0,0.0,0.0,0.0,0.0,0.0,0.0,0.0,0.0,0.0,0.0,0.0,0.0,0.0,0.0,0.0,0.0,0.0,0.0,0.0,0.0,0.0,0.0,0.0,0.0,0.0,0.0,0.0,0.0,0.0,0.0,0.0,0.0,0.0,0.0,0.0,0.0,0.0,0.0,0.0,0.0,0.0,0.0,4.6289,4.5467,4.369,0.0,0.0,0.0,0.0,0.0,0.0,0.0,0.0,0.0,0.0,0.0,0.0,0.0,0.0,0.0,0.0,0.0,0.0,0.0,0.0,0.0,0.0,0.0,0.0,0.0,0.0,0.0,0.0,0.0,0.0,0.0,0.0,0.0,0.0,0.0,0.0,0.0,0.0,0.0,0.0,0.0,0.0,0.0,0.0,0.0,0.0,0.0,0.0,0.0,0.0,0.0,0.0,0.0,0.0,0.0,0.0,0.0,0.0,0.0,0.0,0.0,0.0,0.0,0.0,0.0,0.0,0.0,0.0,0.0,0.0,0.0,0.0,0.0,0.0,0.0,0.0,0.0,0.0,0.0,0.0,0.0,0.0,0.0,0.0,0.0,0.0,0.0,0.0,0.0,0.0,0.0,0.0,0.0,0.0,0.0,0.0,0.0,0.0,0.0,0.0,0.0,0.0,0.0,0.0,0.0,0.0,0.0,0.0,0.0,0.0,4.6289,4.6289,4.6289,0.0,4.3828,0.0,0.0,0.0,0.0,0.0,0.0,0.0,0.0,0.0,0.0,0.0,0.0,0.0,0.0,0.0,0.0,0.0,0.0,0.0,0.0,0.0,0.0,0.0,0.0,0.0,0.0,0.0,0.0,0.0,0.0,0.0,0.0,0.0,0.0,0.0,0.0,0.0,0.0,0.0,0.0,0.0,0.0,0.0,0.0,0.0,0.0,0.0,0.0,0.0,0.0,0.0,0.0,0.0,0.0,0.0,0.0,0.0,0.0,0.0,0.0,0.0,0.0,0.0,0.0,0.0,0.0,0.0,0.0,0.0,0.0,0.0,0.0,0.0,0.0,0.0,0.0,0.0,0.0,0.0,0.0,0.0,0.0,0.0,0.0,0.0,0.0,0.0,0.0,0.0,0.0,0.0,0.0,0.0,0.0,0.0,0.0,0.0,0.0,0.0,0.0,0.0,0.0,0.0,0.0,0.0,0.0,0.0,0.0,0.0,0.0,4.6289,4.6289,4.5268,4.4369,0.0,0.0,0.0,0.0,0.0,0.0,0.0,0.0,0.0,0.0,0.0,0.0,0.0,0.0,0.0,0.0,0.0,0.0,0.0,0.0,0.0,0.0,0.0,0.0,0.0,0.0,0.0,0.0,0.0,0.0,0.0,0.0,0.0,0.0,0.0,0.0,0.0,0.0,0.0,0.0,0.0,0.0,0.0,0.0,0.0,0.0,0.0,0.0,0.0,0.0,0.0,0.0,0.0,0.0,0.0,0.0,0.0,0.0,0.0,0.0,0.0,0.0,0.0,0.0,0.0,0.0,0.0,0.0,0.0,0.0,0.0,0.0,0.0,0.0,0.0,0.0,0.0,0.0,0.0,0.0,0.0,0.0,0.0,0.0,0.0,0.0,0.0,0.0,0.0,0.0,0.0,0.0,0.0,0.0,0.0,0.0,0.0,0.0,0.0,0.0,0.0,0.0,0.0,0.0,0.0,0.0,0.0,0.0,0.0,0.0,4.6289,4.6172,4.5898,4.4914,4.4014,4.3359,0.0,0.0,0.0,0.0,0.0,0.0,0.0,0.0,0.0,0.0,0.0,0.0,0.0,0.0,0.0,0.0,0.0,0.0,0.0,0.0,0.0,0.0,0.0,0.0,0.0,0.0,0.0,0.0,0.0,0.0,0.0,0.0,0.0,0.0,0.0,0.0,0.0,0.0,0.0,0.0,0.0,0.0,0.0,0.0,0.0,0.0,0.0,0.0,0.0,0.0,0.0,0.0,0.0,0.0,0.0,0.0,0.0,0.0,0.0,0.0,0.0,0.0,0.0,0.0,0.0,0.0,0.0,0.0,0.0,0.0,0.0,0.0,0.0,0.0,0.0,0.0,0.0,0.0,0.0,0.0,0.0,0.0,0.0,0.0,0.0,0.0,0.0,0.0,0.0,0.0,0.0,0.0,0.0,0.0,0.0,0.0,0.0,0.0,0.0,0.0,0.0,0.0,0.0,0.0,0.0,0.0,0.0,0.0,0.0,4.6289,4.5898,4.5156,4.5781,4.5,0.0,0.0,0.0,0.0,0.0,0.0,0.0,0.0,0.0,0.0,0.0,0.0,0.0,0.0,0.0,0.0,0.0,0.0,0.0,0.0,0.0,0.0,0.0,0.0,0.0,0.0,0.0,0.0,0.0,0.0,0.0,0.0,0.0,0.0,0.0,0.0,0.0,0.0,0.0,0.0,0.0,0.0,0.0,0.0,0.0,0.0,0.0,0.0,0.0,0.0,0.0,0.0,0.0,0.0,0.0,0.0,0.0,0.0,0.0,0.0,0.0,0.0,0.0,0.0,0.0,0.0,0.0,0.0,0.0,0.0,0.0,0.0,0.0,0.0,0.0,0.0,0.0,0.0,0.0,0.0,0.0,0.0,0.0,0.0,0.0,0.0,0.0,0.0,0.0,0.0,0.0,0.0,0.0,0.0,0.0,0.0,0.0,0.0,0.0,0.0,0.0,0.0,0.0,0.0,0.0,0.0,0.0,0.0,0.0,4.6289,4.6289,4.6172,4.582,4.5078,4.418,0.0,0.0,0.0,0.0,0.0,0.0,0.0,0.0,0.0,0.0,0.0,0.0,0.0,0.0,0.0,0.0,0.0,0.0,0.0,0.0,0.0,0.0,0.0,0.0,0.0,0.0,0.0,0.0,0.0,0.0,0.0,0.0,0.0,0.0,0.0,0.0,0.0,0.0,0.0,0.0,0.0,0.0,0.0,0.0,0.0,0.0,0.0,0.0,0.0,0.0,0.0,0.0,0.0,0.0,0.0,0.0,0.0,0.0,0.0,0.0,0.0,0.0,0.0,0.0,0.0,0.0,0.0,0.0,0.0,0.0,0.0,0.0,0.0,0.0,0.0,0.0,0.0,0.0,0.0,0.0,0.0,0.0,0.0,0.0,0.0,0.0,0.0,0.0,0.0,0.0,0.0,0.0,0.0,0.0,0.0,0.0,0.0,0.0,0.0,0.0,0.0,0.0,0.0,0.0,0.0,0.0,0.0,0.0,0.0,4.5898,0.0,4.6016,0.0,4.4609,4.375,0.0,0.0,0.0,0.0,0.0,0.0,0.0,0.0,0.0,0.0,0.0,0.0,0.0,0.0,0.0,0.0,0.0,0.0,0.0,0.0,0.0,0.0,0.0,0.0,0.0,0.0,0.0,0.0,0.0,0.0,0.0,0.0,0.0,0.0,0.0,0.0,0.0,0.0,0.0,0.0,0.0,0.0,0.0,0.0,0.0,0.0,0.0,0.0,0.0,0.0,0.0,0.0,0.0,0.0,0.0,0.0,0.0,0.0,0.0,0.0,0.0,0.0,0.0,0.0,0.0,0.0,0.0,0.0,0.0,0.0,0.0,0.0,0.0,0.0,0.0,0.0,0.0,0.0,0.0,0.0,0.0,0.0,0.0,0.0,0.0,0.0,0.0,0.0,0.0,0.0,0.0,0.0,0.0,0.0,0.0,0.0,0.0,0.0,0.0,0.0,0.0,0.0,0.0,0.0,0.0,0.0,0.0,0.0,4.5039,4.5039,4.5859,4.5547,4.3867,4.4531,4.3789,0.0,0.0,0.0,0.0,0.0,0.0,0.0,0.0,0.0,0.0,0.0,0.0,0.0,0.0,0.0,0.0,0.0,0.0,0.0,0.0,0.0,0.0,0.0,0.0,0.0,0.0,0.0,0.0,0.0,0.0,0.0,0.0,0.0,0.0,0.0,0.0,0.0,0.0,0.0,0.0,0.0,0.0,0.0,0.0,0.0,0.0,0.0,0.0,0.0,0.0,0.0,0.0,0.0,0.0,0.0,0.0,0.0,0.0,0.0,0.0,0.0,0.0,0.0,0.0,0.0,0.0,0.0,0.0,0.0,0.0,0.0,0.0,0.0,0.0,0.0,0.0,0.0,0.0,0.0,0.0,0.0,0.0,0.0,0.0,0.0,0.0,0.0,0.0,0.0,0.0,0.0,0.0,0.0,0.0,0.0,0.0,0.0,0.0,0.0,0.0,0.0,0.0,0.0,0.0,0.0,0.0,0.0,0.0,0.0,4.49,4.5645,4.5802,4.5368,4.4471,4.3701,0.0,0.0,0.0,0.0,0.0,0.0,0.0,0.0,0.0,0.0,0.0,0.0,0.0,0.0,0.0,0.0,0.0,0.0,0.0,0.0,0.0,0.0,0.0,0.0,0.0,0.0,0.0,0.0,0.0,0.0,0.0,0.0,0.0,0.0,0.0,0.0,0.0,0.0,0.0,0.0,0.0,0.0,0.0,0.0,0.0,0.0,0.0,0.0,0.0,0.0,0.0,0.0,0.0,0.0,0.0,0.0,0.0,0.0,0.0,0.0,0.0,0.0,0.0,0.0,0.0,0.0,0.0,0.0,0.0,0.0,0.0,0.0,0.0,0.0,0.0,0.0,0.0,0.0,0.0,0.0,0.0,0.0,0.0,0.0,0.0,0.0,0.0,0.0,0.0,0.0,0.0,0.0,0.0,0.0,0.0,0.0,0.0,0.0,0.0,0.0,0.0,0.0,0.0,0.0,0.0,0.0,0.0,0.0,0.0,4.5262,4.595,4.6105,4.558,4.4835,4.4204,4.3664,0.0,0.0,0.0,0.0,0.0,0.0,0.0,0.0,0.0,0.0,0.0,0.0,0.0,0.0,0.0,0.0,0.0,0.0,0.0,0.0,0.0,0.0,0.0,0.0,0.0,0.0,0.0,0.0,0.0,0.0,0.0,0.0,0.0,0.0,0.0,0.0,0.0,0.0,0.0,0.0,0.0,0.0,0.0,0.0,0.0,0.0,0.0,0.0,0.0,0.0,0.0,0.0,0.0,0.0,0.0,0.0,0.0,0.0,0.0,0.0,0.0,0.0,0.0,0.0,0.0,0.0,0.0,0.0,0.0,0.0,0.0,0.0,0.0,0.0,0.0,0.0,0.0,0.0,0.0,0.0,0.0,0.0,0.0,0.0,0.0,0.0,0.0,0.0,0.0,0.0,0.0,0.0,0.0,0.0,0.0,0.0,0.0,0.0,0.0,0.0,0.0,0.0,0.0,0.0,0.0,0.0,0.0,0.0,4.5992,4.6848,4.6568,4.4928,4.5507,4.521,0.0,0.0,0.0,0.0,0.0,0.0,0.0,0.0,0.0,0.0,0.0,0.0,0.0,0.0,0.0,0.0,0.0,0.0,0.0,0.0,0.0,0.0,0.0,0.0,0.0,0.0,0.0,0.0,0.0,0.0,0.0,0.0,0.0,0.0,0.0,0.0,0.0,0.0,0.0,0.0,0.0,0.0,0.0,0.0,0.0,0.0,0.0,0.0,0.0,0.0,0.0,0.0,0.0,0.0,0.0,0.0,0.0,0.0,0.0,0.0,0.0,0.0,0.0,0.0,0.0,0.0,0.0,0.0,0.0,0.0,0.0,0.0,0.0,0.0,0.0,0.0,0.0,0.0,0.0,0.0,0.0,0.0,0.0,0.0,0.0,0.0,0.0,0.0,0.0,0.0,0.0,0.0,0.0,0.0,0.0,0.0,0.0,0.0,0.0,0.0,0.0,0.0,0.0,0.0,0.0,0.0,0.0,0.0,0.0,4.7038,4.8419,4.8251,4.6493,4.6012,4.5395,0.0,0.0,0.0,0.0,0.0,0.0,0.0,0.0,0.0,0.0,0.0,0.0,0.0,0.0,0.0,0.0,0.0,0.0,0.0,0.0,0.0,0.0,0.0,0.0,0.0,0.0,0.0,0.0,0.0,0.0,0.0,0.0,0.0,0.0,0.0,0.0,0.0,0.0,0.0,0.0,0.0,0.0,0.0,0.0,0.0,0.0,0.0,0.0,0.0,0.0,0.0,0.0,0.0,0.0,0.0,0.0,0.0,0.0,0.0,0.0,0.0,0.0,0.0,0.0,0.0,0.0,0.0,0.0,0.0,0.0,0.0,0.0,0.0,0.0,0.0,0.0,0.0,0.0,0.0,0.0,0.0,0.0,0.0,0.0,0.0,0.0,0.0,0.0,0.0,0.0,0.0,0.0,0.0,0.0,0.0,0.0,0.0,0.0,0.0,0.0,0.0,0.0,0.0,0.0,0.0,0.0,0.0,0.0,4.7574,4.7962,4.9175,4.9279,4.8213,4.7347,4.6593,0.0,0.0,0.0,0.0,0.0,0.0,0.0,0.0,0.0,0.0,0.0,0.0,0.0,0.0,0.0,0.0,0.0,0.0,0.0,0.0,0.0,0.0,0.0,0.0,0.0,0.0,0.0,0.0,0.0,0.0,0.0,0.0,0.0,0.0,0.0,0.0,0.0,0.0,0.0,0.0,0.0,0.0,0.0,0.0,0.0,0.0,0.0,0.0,0.0,0.0,0.0,0.0,0.0,0.0,0.0,0.0,0.0,0.0,0.0,0.0,0.0,0.0,0.0,0.0,0.0,0.0,0.0,0.0,0.0,0.0,0.0,0.0,0.0,0.0,0.0,0.0,0.0,0.0,0.0,0.0,0.0,0.0,0.0,0.0,0.0,0.0,0.0,0.0,0.0,0.0,0.0,0.0,0.0,0.0,0.0,0.0,0.0,0.0,0.0,0.0,0.0,0.0,0.0,0.0,0.0,0.0,0.0,0.0,4.7972,4.8827,4.9588,4.9975,4.9936,4.9013,4.8154,0.0,0.0,0.0,0.0,0.0,0.0,0.0,0.0,0.0,0.0,0.0,0.0,0.0,0.0,0.0,0.0,0.0,0.0,0.0,0.0,0.0,0.0,0.0,0.0,0.0,0.0,0.0,0.0,0.0,0.0,0.0,0.0,0.0,0.0,0.0,0.0,0.0,0.0,0.0,0.0,0.0,0.0,0.0,0.0,0.0,0.0,0.0,0.0,0.0,0.0,0.0,0.0,0.0,0.0,0.0,0.0,0.0,0.0,0.0,0.0,0.0,0.0,0.0,0.0,0.0,0.0,0.0,0.0,0.0,0.0,0.0,0.0,0.0,0.0,0.0,0.0,0.0,0.0,0.0,0.0,0.0,0.0,0.0,0.0,0.0,0.0,0.0,0.0,0.0,0.0,0.0,0.0,0.0,0.0,0.0,0.0,0.0,0.0,0.0,0.0,0.0,0.0,0.0,0.0,0.0,0.0,0.0,0.0,4.9021,4.9881,5.0658,5.1047,5.1047,4.9398,4.8154,0.0,0.0,0.0,0.0,0.0,0.0,0.0,0.0,0.0,0.0,0.0,0.0,0.0,0.0,0.0,0.0,0.0,0.0,0.0,0.0,0.0,0.0,0.0,0.0,0.0,0.0,0.0,0.0,0.0,0.0,0.0,0.0,0.0,0.0,0.0,0.0,0.0,0.0,0.0,0.0,0.0,0.0,0.0,0.0,0.0,0.0,0.0,0.0,5.0438,0.0,0.0,0.0,0.0,0.0,0.0,0.0,0.0,0.0,0.0,0.0,0.0,0.0,0.0,0.0,0.0,0.0,0.0,0.0,0.0,0.0,0.0,0.0,0.0,0.0,0.0,0.0,0.0,0.0,0.0,0.0,0.0,0.0,0.0,0.0,0.0,0.0,0.0,0.0,0.0,0.0,0.0,0.0,0.0,0.0,0.0,0.0,0.0,0.0,0.0,0.0,0.0,0.0,0.0,0.0,0.0,0.0,0.0,0.0,4.9336,5.0195,5.0976,5.1406,5.1328,5.0018,4.891,0.0,0.0,0.0,0.0,0.0,0.0,0.0,0.0,0.0,0.0,0.0,0.0,0.0,0.0,0.0,0.0,0.0,0.0,0.0,0.0,0.0,0.0,0.0,0.0,0.0,0.0,0.0,0.0,0.0,0.0,0.0,0.0,0.0,0.0,0.0,0.0,0.0,0.0,0.0,0.0,0.0,0.0,0.0,0.0,0.0,0.0,0.0,0.0,0.0,0.0,0.0,0.0,0.0,0.0,0.0,0.0,0.0,0.0,0.0,0.0,0.0,0.0,0.0,0.0,0.0,0.0,0.0,0.0,0.0,0.0,0.0,0.0,0.0,0.0,0.0,0.0,0.0,0.0,0.0,0.0,0.0,0.0,0.0,0.0,0.0,0.0,0.0,0.0,0.0,0.0,0.0,0.0,0.0,0.0,0.0,0.0,0.0,0.0,0.0,0.0,0.0,0.0,0.0,0.0,0.0,0.0,0.0,4.8516,4.9375,5.0351,5.1055,5.1406,5.1406,5.0625,4.9805,4.8906,0.0,0.0,0.0,0.0,0.0,0.0,0.0,0.0,0.0,0.0,0.0,0.0,0.0,0.0,0.0,0.0,0.0,0.0,0.0,0.0,0.0,0.0,0.0,0.0,0.0,0.0,0.0,0.0,0.0,0.0,0.0,0.0,0.0,0.0,0.0,0.0,0.0,0.0,4.8846,5.0267,0.0,0.0,0.0,0.0,0.0,0.0,0.0,0.0,5.0053,0.0,0.0,0.0,0.0,0.0,0.0,0.0,0.0,0.0,0.0,0.0,0.0,0.0,0.0,0.0,0.0,0.0,0.0,0.0,0.0,0.0,0.0,0.0,0.0,0.0,0.0,0.0,0.0,0.0,0.0,0.0,0.0,0.0,0.0,0.0,0.0,0.0,0.0,0.0,0.0,0.0,0.0,0.0,0.0,0.0,0.0,0.0,0.0,0.0,0.0,0.0,0.0,0.0,0.0,0.0,0.0,4.8672,4.8828,4.9648,5.1133,5.1328,5.1406,5.1367,5.0625,4.9766,4.8906,0.0,0.0,0.0,0.0,0.0,0.0,0.0,0.0,0.0,0.0,0.0,0.0,0.0,0.0,0.0,0.0,0.0,0.0,0.0,0.0,0.0,0.0,0.0,0.0,0.0,0.0,0.0,0.0,0.0,0.0,0.0,0.0,0.0,0.0,0.0,0.0,0.0,0.0,0.0,5.2029,5.279,0.0,0.0,0.0,0.0,0.0,0.0,0.0,0.0,5.0202,0.0,0.0,0.0,0.0,0.0,0.0,0.0,0.0,0.0,0.0,0.0,0.0,0.0,0.0,0.0,0.0,0.0,0.0,0.0,0.0,0.0,0.0,0.0,0.0,0.0,0.0,0.0,0.0,0.0,0.0,0.0,0.0,0.0,0.0,0.0,0.0,0.0,0.0,0.0,0.0,0.0,0.0,0.0,0.0,0.0,0.0,0.0,0.0,0.0,0.0,0.0,0.0,0.0,0.0,0.0,4.8828,4.9336,5.0156,5.1328,5.1406,5.1406,5.1367,5.0625,4.9805,0.0,0.0,0.0,0.0,0.0,0.0,0.0,0.0,0.0,0.0,0.0,0.0,0.0,0.0,0.0,0.0,0.0,0.0,0.0,0.0,0.0,0.0,0.0,0.0,0.0,0.0,0.0,0.0,0.0,0.0,0.0,0.0,0.0,0.0,0.0,0.0,0.0,0.0,0.0,0.0,5.333,5.3634,5.401,0.0,0.0,0.0,0.0,0.0,0.0,5.0587,5.0625,0.0,0.0,0.0,0.0,0.0,0.0,0.0,0.0,0.0,0.0,0.0,0.0,0.0,0.0,0.0,0.0,0.0,0.0,0.0,0.0,0.0,0.0,0.0,0.0,0.0,0.0,0.0,0.0,0.0,0.0,0.0,0.0,0.0,0.0,0.0,0.0,0.0,0.0,0.0,0.0,0.0,0.0,0.0,0.0,0.0,0.0,0.0,0.0,0.0,0.0,0.0,0.0,0.0,0.0,0.0,4.8906,4.9766,5.0586,5.1367,5.1406,5.1406,5.1367,5.0625,4.9805,0.0,0.0,0.0,0.0,0.0,0.0,0.0,0.0,0.0,0.0,0.0,0.0,0.0,0.0,0.0,0.0,0.0,0.0,0.0,0.0,0.0,0.0,0.0,0.0,0.0,0.0,0.0,0.0,0.0,0.0,0.0,0.0,0.0,0.0,0.0,0.0,0.0,0.0,0.0,0.0,0.0,5.4615,5.5295,5.3549,0.0,0.0,0.0,0.0,5.1515,5.1592,0.0,0.0,0.0,0.0,0.0,0.0,0.0,0.0,0.0,0.0,0.0,0.0,0.0,0.0,0.0,0.0,0.0,0.0,0.0,0.0,0.0,0.0,0.0,0.0,0.0,0.0,0.0,0.0,0.0,0.0,0.0,0.0,0.0,0.0,0.0,0.0,0.0,0.0,0.0,0.0,0.0,0.0,0.0,0.0,0.0,0.0,0.0,0.0,0.0,0.0,0.0,0.0,0.0,0.0,0.0,0.0,4.8867,4.9766,5.0586,5.1367,5.1406,5.1406,5.1367,5.0625,4.9805,0.0,0.0,0.0,0.0,0.0,0.0,0.0,0.0,0.0,0.0,0.0,0.0,0.0,0.0,0.0,0.0,0.0,0.0,0.0,0.0,0.0,0.0,0.0,0.0,0.0,0.0,0.0,0.0,0.0,0.0,0.0,0.0,0.0,0.0,0.0,0.0,0.0,0.0,0.0,0.0,0.0,5.6214,5.4127,5.3408,5.3005,0.0,0.0,5.3313,5.3972,5.467,0.0,0.0,0.0,0.0,0.0,0.0,0.0,0.0,0.0,0.0,0.0,0.0,0.0,0.0,0.0,0.0,0.0,0.0,0.0,0.0,0.0,0.0,0.0,0.0,0.0,0.0,0.0,0.0,0.0,0.0,0.0,0.0,0.0,0.0,0.0,0.0,0.0,0.0,0.0,0.0,0.0,0.0,0.0,0.0,0.0,0.0,0.0,0.0,0.0,0.0,0.0,0.0,0.0,0.0,0.0,4.8789,4.9648,5.0937,5.2031,5.2812,5.2383,5.2148,5.2109,5.0898,4.9805,0.0,0.0,0.0,0.0,0.0,0.0,0.0,0.0,0.0,0.0,0.0,0.0,0.0,0.0,0.0,0.0,0.0,0.0,0.0,0.0,0.0,0.0,0.0,0.0,0.0,0.0,0.0,0.0,0.0,0.0,0.0,0.0,0.0,0.0,0.0,0.0,0.0,0.0,0.0,0.0,0.0,0.0,5.5841,5.5594,0.0,0.0,0.0,5.5895,5.5285,0.0,0.0,0.0,0.0,0.0,0.0,0.0,0.0,0.0,0.0,0.0,0.0,0.0,0.0,0.0,0.0,0.0,0.0,0.0,0.0,0.0,0.0,0.0,0.0,0.0,0.0,0.0,0.0,0.0,0.0,0.0,0.0,0.0,0.0,0.0,0.0,0.0,0.0,0.0,0.0,0.0,0.0,0.0,0.0,0.0,0.0,0.0,0.0,0.0,0.0,0.0,0.0,0.0,0.0,0.0,0.0,0.0,5.0195,5.207,5.3359,5.3945,5.3359,5.3047,5.3008,5.1601,0.0,0.0,0.0,0.0,0.0,0.0,0.0,0.0,0.0,0.0,0.0,0.0,0.0,0.0,0.0,0.0,0.0,0.0,0.0,0.0,0.0,0.0,0.0,0.0,0.0,0.0,0.0,4.6172,0.0,0.0,0.0,0.0,0.0,0.0,0.0,0.0,0.0,0.0,0.0,0.0,0.0,0.0,5.718,5.7729,5.7832,5.7934,0.0,0.0,5.8242,5.7165,5.8434,5.8313,0.0,0.0,0.0,0.0,0.0,0.0,0.0,0.0,0.0,0.0,0.0,0.0,0.0,0.0,0.0,0.0,0.0,0.0,0.0,0.0,0.0,0.0,0.0,0.0,0.0,0.0,0.0,0.0,0.0,0.0,0.0,0.0,0.0,0.0,0.0,0.0,0.0,0.0,0.0,0.0,0.0,0.0,0.0,0.0,0.0,0.0,0.0,0.0,0.0,0.0,0.0,0.0,0.0,0.0,0.0,5.0273,5.2656,5.3984,5.4023,5.3945,5.3906,5.3906,5.3008,5.1758,0.0,0.0,0.0,0.0,0.0,0.0,0.0,0.0,0.0,0.0,0.0,0.0,0.0,0.0,0.0,0.0,0.0,0.0,0.0,0.0,0.0,0.0,0.0,0.0,0.0,0.0,0.0,0.0,0.0,0.0,0.0,0.0,0.0,0.0,0.0,0.0,0.0,0.0,0.0,0.0,0.0,5.8763,5.8798,5.9269,6.0171,0.0,6.0511,5.9665,6.0325,6.1864,6.155,5.7401,0.0,0.0,0.0,0.0,0.0,0.0,0.0,0.0,0.0,0.0,0.0,0.0,0.0,0.0,0.0,0.0,0.0,0.0,0.0,0.0,0.0,0.0,0.0,0.0,0.0,0.0,0.0,0.0,0.0,0.0,0.0,0.0,0.0,0.0,0.0,0.0,0.0,0.0,0.0,0.0,0.0,0.0,0.0,0.0,0.0,0.0,0.0,0.0,0.0,0.0,0.0,0.0,0.0,5.0703,5.1758,5.4297,5.6133,5.7109,5.6172,5.5586,5.5586,5.4258,5.2461,0.0,0.0,0.0,0.0,0.0,0.0,0.0,0.0,0.0,0.0,0.0,0.0,0.0,0.0,0.0,0.0,0.0,0.0,0.0,0.0,0.0,0.0,0.0,0.0,0.0,0.0,0.0,0.0,5.0183,4.9876,4.9877,0.0,0.0,0.0,0.0,0.0,0.0,0.0,0.0,0.0,0.0,6.0173,6.1541,6.2157,0.0,0.0,6.2878,6.2063,6.1938,6.2426,6.153,5.7827,5.6815,0.0,0.0,0.0,0.0,0.0,0.0,0.0,0.0,0.0,0.0,0.0,0.0,0.0,0.0,0.0,0.0,0.0,0.0,0.0,0.0,0.0,0.0,0.0,0.0,0.0,0.0,0.0,0.0,0.0,0.0,0.0,0.0,0.0,0.0,0.0,0.0,0.0,0.0,0.0,0.0,0.0,0.0,0.0,0.0,0.0,0.0,0.0,0.0,0.0,0.0,0.0,0.0,5.1914,5.3086,5.5937,5.7969,5.918,5.8008,5.7383,5.7344,5.5937,5.3945,0.0,0.0,0.0,0.0,0.0,0.0,0.0,0.0,0.0,0.0,0.0,0.0,0.0,0.0,0.0,0.0,0.0,0.0,0.0,0.0,0.0,0.0,0.0,0.0,0.0,0.0,0.0,0.0,5.187,5.1367,5.1363,0.0,0.0,0.0,0.0,0.0,0.0,0.0,0.0,0.0,0.0,6.2002,6.3768,6.4301,6.4589,6.4917,6.405,6.3319,6.3001,6.3151,6.2295,5.943,0.0,0.0,0.0,0.0,0.0,0.0,0.0,0.0,0.0,0.0,0.0,0.0,0.0,0.0,0.0,0.0,0.0,0.0,0.0,0.0,0.0,0.0,0.0,0.0,0.0,0.0,0.0,5.4742,0.0,0.0,5.351,0.0,0.0,0.0,0.0,0.0,0.0,0.0,0.0,0.0,0.0,0.0,0.0,0.0,0.0,0.0,0.0,0.0,0.0,0.0,0.0,0.0,0.0,5.3906,5.4062,5.7422,5.918,5.9297,5.918,5.918,5.914,5.8281,5.6601,5.3945,0.0,0.0,0.0,0.0,0.0,0.0,0.0,0.0,0.0,0.0,0.0,0.0,0.0,0.0,0.0,0.0,0.0,0.0,0.0,0.0,0.0,0.0,0.0,0.0,0.0,0.0,5.2734,5.1953,5.1402,0.0,0.0,0.0,0.0,0.0,0.0,0.0,0.0,0.0,0.0,6.1199,6.4307,6.5118,6.5328,6.5411,6.5358,6.3789,6.2879,6.3696,6.4477,6.4477,0.0,0.0,0.0,0.0,0.0,0.0,0.0,0.0,0.0,0.0,0.0,0.0,0.0,0.0,0.0,0.0,0.0,0.0,0.0,0.0,0.0,0.0,0.0,0.0,0.0,0.0,0.0,5.9293,5.8288,0.0,0.0,0.0,0.0,0.0,0.0,0.0,0.0,0.0,0.0,0.0,6.0469,6.1289,0.0,0.0,0.0,0.0,0.0,0.0,0.0,0.0,0.0,0.0,0.0,0.0,5.4844,5.6601,5.9414,6.1445,6.2539,6.2031,6.1719,6.1719,6.0312,5.8086,5.4961,0.0,0.0,0.0,0.0,0.0,0.0,0.0,0.0,0.0,0.0,0.0,0.0,0.0,0.0,0.0,0.0,0.0,0.0,0.0,0.0,0.0,0.0,0.0,0.0,0.0,5.4701,0.0,0.0,0.0,0.0,0.0,0.0,0.0,0.0,0.0,0.0,0.0,5.7949,5.9587,6.2662,6.5036,6.5729,6.6633,6.7407,0.0,0.0,0.0,0.0,0.0,0.0,0.0,0.0,0.0,0.0,0.0,0.0,0.0,0.0,6.482,5.8929,5.805,5.8127,5.7896,0.0,0.0,0.0,0.0,0.0,0.0,0.0,0.0,0.0,0.0,0.0,0.0,0.0,0.0,6.2834,6.2331,6.2052,0.0,0.0,0.0,0.0,0.0,0.0,0.0,0.0,6.4624,6.5618,6.5703,6.6562,6.6523,0.0,6.3945,6.0781,0.0,0.0,0.0,0.0,0.0,0.0,0.0,0.0,5.6797,5.8789,6.1289,6.3164,6.4219,6.375,6.3437,6.3437,6.1758,5.9648,5.7148,5.457,5.2695,0.0,0.0,0.0,0.0,0.0,0.0,0.0,0.0,0.0,0.0,0.0,0.0,0.0,0.0,0.0,0.0,0.0,0.0,0.0,0.0,0.0,0.0,0.0,5.6344,0.0,0.0,0.0,0.0,0.0,0.0,0.0,0.0,0.0,5.7562,5.8831,6.0528,6.245,6.4831,6.6478,6.6604,0.0,0.0,0.0,0.0,0.0,0.0,0.0,6.5195,6.5147,6.5185,6.5599,6.6847,6.8917,7.0279,6.9826,0.0,0.0,6.3391,6.2429,6.2512,6.2204,6.3057,6.3789,6.3602,6.3938,6.397,0.0,0.0,0.0,0.0,6.5402,0.0,0.0,0.0,6.6871,6.6945,0.0,6.6128,0.0,0.0,0.0,0.0,6.1785,6.434,0.0,0.0,7.1246,7.2461,7.1055,7.1758,7.1719,7.0859,6.918,6.7461,6.5508,5.9922,0.0,0.0,0.0,0.0,0.0,0.0,5.9687,6.0664,6.3125,6.4453,6.4531,6.4492,6.4453,6.4414,6.2773,6.1484,6.0508,5.8086,5.5976,5.4297,5.2539,0.0,0.0,0.0,0.0,0.0,0.0,0.0,0.0,0.0,0.0,0.0,0.0,0.0,0.0,0.0,0.0,0.0,0.0,0.0,0.0,5.7969,0.0,0.0,0.0,0.0,0.0,0.0,0.0,0.0,0.0,0.0,6.0436,6.15,6.3276,6.555,0.0,0.0,0.0,0.0,6.8007,6.7304,6.6406,6.6211,6.707,6.8437,6.9367,6.9224,0.0,0.0,7.0527,7.0916,7.1185,7.0302,7.1467,7.1828,7.0129,6.893,6.8122,6.7359,6.7186,6.7051,6.6664,6.711,6.7258,7.3663,0.0,0.0,0.0,0.0,7.0784,7.187,7.2974,7.3148,7.2535,7.1364,7.0507,0.0,0.0,0.0,0.0,0.0,0.0,7.0309,7.234,7.3671,7.4961,7.625,7.5898,7.5898,7.6172,7.3906,7.2187,7.1015,6.8125,6.332,5.6875,0.0,0.0,0.0,0.0,6.1992,6.4101,6.6094,6.7344,6.793,6.793,6.7656,6.7109,6.5976,6.4687,6.3203,6.1289,5.9726,5.8594,5.6367,0.0,0.0,0.0,0.0,0.0,0.0,0.0,0.0,0.0,0.0,0.0,0.0,0.0,0.0,0.0,0.0,0.0,0.0,0.0,5.8531,5.9153,5.9172,0.0,0.0,0.0,0.0,0.0,0.0,0.0,0.0,0.0,6.7505,6.6509,6.5753,0.0,0.0,6.8148,6.6756,6.8287,6.9962,7.0895,7.0809,0.0,7.1825,7.1315,7.0793,7.0787,7.2192,7.3384,7.3592,7.4312,7.4707,7.4314,7.4616,7.4745,7.4207,7.2514,7.1129,7.0769,7.0401,7.0304,7.0671,7.038,6.984,8.0405,7.6779,7.4396,7.3794,7.4426,7.5322,7.6467,7.7757,7.7889,7.7539,7.6836,7.5937,7.3867,7.0898,6.9531,0.0,0.0,0.0,7.4336,7.7148,7.75,7.8672,8.039,7.9961,7.9805,7.9883,7.7695,7.6172,7.5351,7.289,6.8945,6.3594,0.0,0.0,6.1015,6.2812,6.4687,6.6601,6.8008,6.8945,6.9414,6.9414,6.918,6.8672,6.8203,6.7265,6.5898,6.4844,6.3711,6.25,6.0351,5.8555,0.0,0.0,0.0,0.0,0.0,0.0,0.0,0.0,0.0,0.0,0.0,5.6914,5.6367,0.0,0.0,0.0,5.8594,5.9527,5.9909,6.0995,0.0,0.0,0.0,0.0,0.0,0.0,0.0,6.6963,6.8629,7.0206,7.1706,7.1168,7.0443,6.9975,7.0637,7.0775,6.9768,0.0,7.2577,7.3589,7.3737,7.4009,7.4833,7.4398,7.4021,7.4287,7.5091,7.5879,7.6332,7.6842,7.7119,7.7011,7.6984,7.6924,7.6675,7.5331,7.3959,7.3069,7.2409,7.213,7.2367,7.2139,7.1851,8.6679,8.4804,7.9258,7.7734,7.9062,7.9883,8.0664,8.1406,8.1406,8.1797,8.2422,8.1562,7.9844,7.7344,7.4258,0.0,7.6406,7.6484,7.8242,8.1328,8.207,8.2812,8.3594,8.3515,8.3086,8.2265,8.0625,7.9414,7.8555,7.539,7.332,7.2344,6.9297,6.707,6.5898,6.6719,6.7617,6.8515,6.9375,6.9805,6.9805,6.9805,6.9726,6.9609,6.9609,6.9258,6.8555,6.8437,6.7695,6.6172,6.4375,6.2656,6.0937,0.0,0.0,0.0,0.0,0.0,0.0,0.0,0.0,0.0,0.0,0.0,0.0,0.0,0.0,0.0,6.1443,0.0,6.1997,6.343,0.0,0.0,0.0,6.5891,6.7596,6.839,6.943,7.1014,0.0,0.0,7.3892,7.5284,7.6322,7.6399,7.5639,7.5033,7.4972,7.513,7.5473,7.5565,7.562,7.5936,7.6682,7.7201,7.7681,7.817,7.8629,7.8336,7.8314,7.8391,7.8453,7.8407,7.8454,7.8236,7.7673,7.7313,7.6741,7.4438,7.3649,7.3086,7.2744,7.308,7.3305,8.8554,8.8594,8.6523,8.4765,8.3476,8.4297,8.4765,8.4961,8.4961,8.4726,8.4219,8.3359,8.1914,8.0078,7.9922,8.0195,8.0781,8.1484,8.2539,8.3906,8.3515,8.3398,8.3554,8.2929,8.25,8.2226,8.1211,8.0586,8.0312,7.8906,7.7422,7.5976,7.5156,7.2344,6.7812,6.9062,7.0234,7.1094,7.1953,7.2422,7.2383,7.2383,7.207,7.1367,7.0742,7.0625,7.1055,7.043,7.0234,7.039,6.8242,6.6445,6.5351,6.1055,0.0,0.0,0.0,0.0,0.0,0.0,0.0,0.0,0.0,5.988,5.7818,0.0,6.0252,0.0,6.3572,6.5464,6.6091,6.7097,0.0,0.0,6.8994,6.9574,7.1788,7.2202,7.2661,7.3668,7.5322,7.663,7.7253,7.8246,7.9162,7.9746,7.7511,7.5519,7.4941,7.6004,7.7067,7.7659,7.8238,7.879,7.8894,7.8611,7.8418,7.8553,7.8536,7.8484,7.8484,7.8484,7.8484,7.8462,7.8083,7.7784,7.7665,7.69,7.6141,7.5468,7.5222,7.5084,7.4943,7.4741,7.4476,8.9922,8.9961,8.9492,8.8476,8.7187,8.7695,8.7695,8.7304,8.7304,8.6836,8.6015,8.5117,8.4138,8.3147,8.3264,8.3483,8.3761,8.4228,8.4932,8.5715,8.5245,8.4876,8.4553,8.4084,8.3508,8.2851,8.2383,8.1953,8.1523,8.0703,7.9609,7.832,7.7969,7.5742,7.1797,7.1797,7.2109,7.2578,7.3047,7.3476,7.3867,7.3867,7.3281,7.207,7.1914,7.1523,7.0859,7.0742,7.0742,7.0781,6.914,6.7812,6.6875,6.3476,6.1094,0.0,0.0,0.0,0.0,0.0,0.0,0.0,0.0,0.0,0.0,0.0,6.2985,6.452,6.703,6.8742,6.9162,7.0662,7.1925,7.2672,7.3027,7.3851,7.5536,7.6084,7.6623,7.7476,7.84,7.9169,7.9592,8.0054,8.0554,8.1054,7.9477,7.8092,7.7746,7.8438,7.9169,7.96,8.0054,8.0362,8.0392,7.9977,7.9677,7.9669,7.9677,7.9638,7.9677,7.9638,7.9577,7.9259,7.8929,7.8529,7.8008,7.7441,7.6837,7.6533,7.6485,7.6189,7.556,7.5138,7.4903,9.1367,9.0664,9.0664,9.0586,9.0508,9.0508,8.9883,8.8867,8.8867,8.8398,8.7577,8.6795,8.6268,8.5873,8.5221,8.5203,8.5685,8.5747,8.6151,8.6855,8.6751,8.6358,8.5812,8.5641,8.4904,8.3705,8.3591,8.3162,8.242,8.1562,8.0742,7.9844,7.918,7.7969,7.625,7.4609,7.375,7.3633,7.375,7.4101,7.4726,7.4765,7.3945,7.2305,7.2812,7.207,6.9883,7.0469,7.0586,6.9922,6.9219,6.8515,6.7734,6.5937,6.4256,0.0,6.2418,0.0,0.0,0.0,0.0,0.0,0.0,0.0,0.0,6.6135,6.6975,6.9285,7.1111,7.2123,7.1988,7.4054,7.5465,7.5551,7.6784,7.7977,7.8907,7.9592,8.0285,8.1016,8.1093,8.1093,8.1016,8.1093,8.1093,8.1093,8.0977,8.0746,8.0977,8.09,8.09,8.1093,8.1093,8.0977,8.1016,8.1016,8.1016,8.1054,8.0977,8.1093,8.0977,8.1016,8.0866,8.0341,7.9963,7.9534,7.8563,7.8261,7.7937,7.7324,7.7203,7.6836,7.5734,7.5389,7.5197,9.4375,9.4219,9.4219,9.3828,9.3164,9.3164,9.1875,8.9765,8.9765,8.9172,8.8229,8.8071,8.7463,8.6622,8.6629,8.6701,8.6802,8.7038,8.7215,8.733,8.6412,8.5949,8.5769,8.4913,8.4348,8.4039,8.3612,8.3263,8.3108,8.2416,8.1601,8.0781,8.0625,7.9687,7.8047,0.0,0.0,0.0,7.6094,7.6211,7.5664,7.5664,7.4805,7.3125,7.25,0.0,7.1562,7.168,7.1992,7.2539,7.2422,0.0,0.0,0.0,0.0,0.0,0.0,0.0,0.0,0.0,0.0,0.0,6.9997,6.8568,6.7314,6.938,7.1338,7.2566,7.4802,7.617,7.6153,7.7148,7.8397,7.9715,7.9554,7.99,8.1362,8.117,8.0939,8.1054,8.1093,8.1093,8.117,8.1093,8.1131,8.117,8.1093,8.1093,8.1131,8.1131,8.1093,8.1093,8.1093,8.1093,8.1093,8.1093,8.1093,8.1093,8.1093,8.1093,8.1093,8.1093,8.1085,8.083,8.0066,7.9335,7.8998,7.8218,7.748,7.732,7.7326,7.7215,7.6922,7.6848,7.6848,9.5195,9.5195,9.5195,9.4961,0.0,9.4531,9.3473,9.1697,9.0838,8.9895,8.8829,8.8829,8.8492,8.7917,8.8005,8.7996,8.7878,8.8048,8.8101,8.8058,8.704,8.6652,8.6683,8.5355,8.4733,8.4811,8.4097,8.3714,8.3717,8.3401,8.2612,8.1364,8.1364,8.0505,7.8827,7.8359,7.7386,7.5898,7.6758,7.6992,7.6601,7.7344,7.6562,7.4062,7.4336,0.0,0.0,0.0,0.0,0.0,0.0,0.0,0.0,0.0,0.0,7.0868,7.0431,7.0638,7.1769,7.2652,7.3754,7.5272,7.5819,7.481,7.1833,7.4284,7.6322,7.72,7.8784,7.9754,7.9785,8.0516,8.137,8.2216,8.1939,8.2054,8.2747,8.2593,8.2331,8.2331,8.2331,8.2331,8.2324,8.2324,8.2324,8.2331,8.2331,8.2131,8.1747,8.1323,8.1093,8.1093,8.1093,8.1093,8.1093,8.1093,8.1093,8.1093,8.1093,8.1093,8.1093,8.1093,8.0896,8.0296,7.9627,7.9058,7.8379,7.7702,7.7326,7.7326,7.7326,7.7326,7.7326,7.7326,7.7326,9.5742,9.5583,9.5583,9.5463,9.53,9.53,9.464,9.3512,9.1861,0.0,0.0,8.9464,8.9277,8.8944,8.8997,8.8907,8.8727,8.8791,8.8822,8.8784,8.8011,8.7764,8.7836,8.6475,8.5885,8.599,8.5077,8.4595,8.4595,8.4324,8.3528,8.224,8.2123,8.1271,7.968,7.9559,7.8615,7.6821,7.7255,7.7529,7.7568,7.8896,7.8193,7.5224,7.6396,7.5653,7.2724,7.3271,7.325,7.2394,7.2468,7.2456,7.2312,7.2419,7.2788,7.3522,7.4308,7.5173,7.6026,7.7367,7.8509,7.9346,8.0862,8.0516,7.7553,7.9246,8.0746,8.1477,8.2285,8.2708,8.2554,8.3139,8.3717,8.3986,8.3793,8.3678,8.3947,8.3717,8.3524,8.3601,8.3524,8.3601,8.3524,8.3524,8.3601,8.3563,8.3447,8.337,8.2601,8.1708,8.1093,8.1093,8.1246,8.1362,8.1323,8.1362,8.1323,8.1362,8.1208,8.1093,8.1085,8.0991,8.049,7.9712,7.9244,7.864,7.7753,7.7441,7.7304,7.7326,7.7326,7.7326,7.7326,7.7326,7.7326,9.7919,9.7081,9.7081,9.6508,9.5619,9.5619,9.502,9.3921,9.2418,9.117,9.0164,9.0158,8.9652,8.8749,8.8928,8.8997,8.8978,8.9122,8.9187,8.9216,8.8931,8.8784,8.881,8.839,8.821,8.8135,8.6771,8.6091,8.5965,8.4821,8.4072,8.3874,8.3839,8.2979,8.1462,8.1259,8.0738,7.9785,7.9172,7.8825,7.8825,7.9062,7.8631,7.7417,7.6871,7.6083,7.4908,7.4989,7.4976,7.4831,7.5457,7.5797,7.5802,7.6313,7.6698,7.6842,7.7473,7.8563,8.0091,8.0469,8.1262,8.2763,8.3785,8.3824,8.267,8.2832,8.3101,8.3293,8.4093,8.4209,8.3563,8.364,8.4371,8.544,8.4486,8.4178,8.5478,8.4555,8.3755,8.3717,8.3601,8.3678,8.3755,8.3717,8.3755,8.364,8.3793,8.3601,8.3255,8.2093,8.1208,8.1208,8.1708,8.2054,8.2131,8.2131,8.2131,8.2139,8.1593,8.1208,8.1323,8.0878,8.0401,8.0007,7.9277,7.8508,7.81,7.7666,7.7381,7.7326,7.7326,7.7326,7.7326,7.7326,7.7289,9.907,9.8761,9.8601,9.8336,9.7908,9.668,9.5919,9.5303,9.3604,9.2383,9.1524,9.1516,9.098,9.012,9.065,9.0651,9.0196,9.0791,9.079,9.0312,8.9769,8.9725,9.0057,8.9187,8.894,8.9265,8.8205,8.7634,8.7571,8.6917,8.6178,8.5249,8.4333,8.3482,8.2779,8.2689,8.2496,8.2115,8.1485,8.0913,8.0485,8.1384,8.1228,7.9894,7.9894,7.9582,7.8758,7.8719,7.8703,7.8612,7.8961,7.9093,7.9013,7.9288,7.9632,8.0095,8.0376,8.1131,8.2362,8.2901,8.367,8.4863,8.5786,8.6324,8.6371,8.5909,8.5871,8.6333,8.6756,8.6786,8.641,8.6371,8.6671,8.7448,8.6786,8.6478,8.6632,8.6209,8.5478,8.5055,8.4939,8.4939,8.4978,8.4939,8.4939,8.4901,8.4632,8.4324,8.4286,8.3247,8.2439,8.2477,8.2747,8.2986,8.3024,8.2978,8.2986,8.2986,8.2324,8.2016,8.2247,8.1811,8.1097,8.0459,7.9807,7.9037,7.815,7.7525,7.7335,7.7326,7.7326,7.7326,7.7326,7.7326,7.7142,10.0069,9.9797,9.9609,9.9578,9.9462,9.76,9.6923,9.6893,9.511,9.3941,9.3364,9.2979,9.2402,9.1864,9.2479,9.2402,9.1902,9.2479,9.2411,9.1748,9.1047,9.1133,9.1595,9.0402,9.0056,9.0355,8.9633,8.9171,8.8979,8.8795,8.8017,8.6671,8.5371,8.464,8.4486,8.464,8.464,8.4449,8.4293,8.3504,8.2145,8.3402,8.3402,8.2223,8.2688,8.2732,8.2101,8.2062,8.2012,8.1916,8.1897,8.1817,8.1701,8.167,8.1939,8.2516,8.2593,8.3062,8.4101,8.4978,8.5824,8.6632,8.7478,8.8248,8.8825,8.8556,8.8325,8.8679,8.8756,8.8833,8.8564,8.8603,8.8756,8.8902,8.8795,8.841,8.8055,8.7825,8.744,8.6824,8.6671,8.6671,8.6671,8.6671,8.6594,8.6286,8.5709,8.5201,8.5085,8.4555,8.4209,8.414,8.4024,8.3901,8.3909,8.3901,8.3909,8.3909,8.3178,8.2986,8.3192,8.2883,8.2041,8.1017,8.0424,7.9547,7.8005,7.7399,7.7326,7.7326,7.7326,7.7326,7.7326,7.7105,7.6959,10.141,9.9756,9.9649,9.9313,9.8897,9.7878,9.7881,9.8295,9.6768,9.6019,9.5788,9.4326,9.3595,9.348,9.3557,9.3518,9.3403,9.3557,9.3518,9.3403,9.3403,9.3403,9.3364,9.321,9.2903,9.221,9.1364,9.0594,8.994,8.9171,8.8641,8.8449,8.8295,8.7756,8.7179,8.7756,8.7795,8.7094,8.7784,8.6631,8.3626,8.3557,8.3595,8.3434,8.3526,8.3518,8.3556,8.3395,8.3426,8.3387,8.3472,8.341,8.3409,8.3409,8.3409,8.3524,8.3524,8.417,8.5709,8.6671,8.7517,8.841,8.9133,8.9624,8.9816,9.0441,9.0171,8.9286,8.9402,8.9479,8.8795,8.8795,8.9133,8.9701,8.9248,8.8902,8.9355,8.9017,8.8564,8.8487,8.8256,8.8449,8.8256,8.8218,8.8025,8.7325,8.6671,8.6094,8.6017,8.6017,8.5824,8.5709,8.5286,8.4863,8.4786,8.4777,8.4786,8.4709,8.4055,8.3692,8.358,8.3186,8.2406,8.1585,8.0592,7.9605,7.8633,7.7913,7.7399,7.7509,7.7472,7.7362,7.7252,7.6848,7.6592,10.2158,10.0813,10.0672,10.0496,10.0154,9.9365,9.925,9.9413,9.8288,9.7788,9.7711,9.7019,9.5595,9.3749,9.422,9.422,9.3749,9.4258,9.4181,9.371,9.3672,9.3672,9.3672,9.3672,9.3518,9.321,9.2826,9.2518,9.2056,9.1325,9.071,9.0133,8.9671,8.8979,8.8256,8.8526,8.8526,8.8171,8.8526,8.7987,8.6833,8.6602,8.6602,8.6602,8.664,8.6602,8.6602,8.6602,8.6602,8.6602,8.6602,8.6602,8.6602,8.6602,8.6602,8.664,8.6602,8.691,8.7594,8.7979,8.8517,8.9363,8.9701,9.0086,9.0624,9.1018,9.0864,9.0402,9.0479,9.0509,9.021,9.0171,9.0325,9.0586,9.0364,9.0133,8.9893,8.9633,8.9248,8.8795,8.8679,8.8718,8.8679,8.8679,8.8564,8.8218,8.7786,8.744,8.7017,8.7286,8.7363,8.6978,8.6555,8.617,8.5747,8.5593,8.5593,8.5478,8.4939,8.4407,8.4335,8.3878,8.3107,8.2121,8.1302,8.0231,7.8811,7.8458,7.806,7.8075,7.8075,7.8075,7.806,7.7399,7.7105,10.3234,10.2376,10.1881,10.151,10.1202,10.0442,10.0221,10.025,9.9288,9.8904,9.9144,9.8913,9.7442,9.5374,9.5528,9.5335,9.4864,9.5172,9.5027,9.4441,9.4403,9.4403,9.4403,9.4403,9.4287,9.4095,9.4057,9.3912,9.3681,9.3133,9.2479,9.1864,9.1248,9.0633,9.0141,9.0064,9.0064,9.0094,9.0064,9.0064,9.0064,9.0064,8.9641,8.8833,8.8679,8.8679,8.8679,8.8679,8.8679,8.8679,8.8679,8.8679,8.8679,8.8679,8.8679,8.8718,8.891,8.9017,8.9017,8.9248,8.9633,9.0201,9.0432,9.0893,9.1441,9.1748,9.1902,9.1902,9.1864,9.1787,9.1201,9.1201,9.1201,9.1201,9.1201,9.0893,9.0393,9.0239,9.0056,8.9479,8.9564,8.9363,8.9363,8.9248,8.9056,8.9017,8.8786,8.8564,8.7987,8.8218,8.841,8.7872,8.7756,8.7401,8.6632,8.617,8.617,8.6017,8.5508,8.5202,8.5166,8.4531,8.3823,8.2819,8.2369,8.1502,7.9998,7.9376,7.8919,7.8883,7.8772,7.8626,7.8479,7.7839,7.7399,10.5106,10.3971,10.2999,10.2097,10.1279,10.0519,10.0558,10.1135,9.9596,9.9288,9.9875,9.9259,9.875,9.8404,9.7711,9.7365,9.7211,9.6596,9.6288,9.6172,9.6172,9.6163,9.6211,9.6172,9.5788,9.522,9.5181,9.472,9.3903,9.3719,9.3642,9.3557,9.348,9.348,9.321,9.3172,9.3403,9.3133,9.3095,9.3326,9.3335,9.3326,9.1796,8.9295,8.8795,8.8949,8.8872,8.8756,8.8795,8.8756,8.891,8.8872,8.8795,8.8833,8.891,8.8949,8.9517,8.9893,9.0056,9.0671,9.1133,9.1287,9.1864,9.2364,9.2441,9.2979,9.3326,9.3518,9.3364,9.2826,9.1633,9.1518,9.1432,9.1402,9.1287,9.1287,9.121,9.1287,9.1163,9.1095,9.1018,9.0941,9.1018,9.0355,8.9932,8.9739,8.9248,8.8756,8.8709,8.8718,8.8795,8.8718,8.8564,8.8333,8.7517,8.7017,8.6478,8.6401,8.6513,8.5893,8.5389,8.4919,8.4213,8.3415,8.2589,8.18,8.1045,8.0424,7.991,7.9543,7.9066,7.8846,7.8883,7.7949,7.7436,10.5016,10.3979,10.3599,10.3251,10.2866,10.2058,10.1866,10.202,10.0904,10.0558,10.0789,10.0558,10.0404,10.0317,9.9519,9.8865,9.8365,9.8019,9.7904,9.7904,9.7904,9.7904,9.7904,9.7904,9.775,9.748,9.7413,9.698,9.6134,9.5634,9.5057,9.4711,9.5095,9.4864,9.398,9.4258,9.4296,9.3749,9.3672,9.3672,9.3749,9.3672,9.3056,9.2027,9.1911,9.1902,9.1911,9.1911,9.1911,9.1911,9.1902,9.1902,9.1911,9.1911,9.1911,9.1911,9.2172,9.2326,9.2364,9.2595,9.2787,9.2826,9.3056,9.3287,9.3287,9.3518,9.3672,9.371,9.371,9.3326,9.3056,9.2787,9.2787,9.2787,9.2787,9.271,9.2787,9.2787,9.2787,9.271,9.2402,9.2018,9.1787,9.1287,9.0748,9.0701,9.0479,9.0056,8.971,8.9902,9.0056,8.9586,8.944,8.9363,8.9124,8.8325,8.7786,8.7795,8.7667,8.6993,8.6402,8.5551,8.4833,8.3597,8.2685,8.199,8.1291,8.0975,8.0571,8.0424,7.991,7.9396,7.936,7.8332,7.7656,10.5191,10.4358,10.4289,10.4135,10.3828,10.3251,10.302,10.2943,10.2404,10.2135,10.2135,10.2135,10.2135,10.2058,10.1568,10.1029,10.0289,9.9365,9.8788,9.8788,9.8788,9.8788,9.8788,9.8788,9.8788,9.875,9.8788,9.8481,9.7942,9.7365,9.6788,9.6336,9.6865,9.6557,9.5595,9.5951,9.5912,9.5403,9.5057,9.4941,9.4903,9.4672,9.4518,9.4518,9.4518,9.4249,9.3749,9.3672,9.3826,9.4057,9.4143,9.4104,9.4104,9.3835,9.3672,9.371,9.395,9.3989,9.3787,9.3941,9.3989,9.3749,9.398,9.4143,9.4143,9.4364,9.4518,9.4518,9.4557,9.4557,9.4557,9.4557,9.4326,9.3864,9.3672,9.3672,9.3672,9.3672,9.3518,9.3172,9.2749,9.2402,9.2095,9.1556,9.1364,9.1556,9.1441,9.097,9.0902,9.0902,9.1056,9.047,9.0316,9.0316,9.0201,8.971,8.8786,8.8679,8.8556,8.7932,8.7128,8.6267,8.5259,8.3937,8.2956,8.2237,8.1764,8.1484,8.1342,8.1305,8.0755,8.0131,7.9543,7.8699,7.8023,10.5877,10.5174,10.5107,10.4713,10.4174,10.3943,10.3905,10.3866,10.3789,10.3635,10.3558,10.3751,10.3597,10.3712,10.3482,10.3674,10.2981,10.0596,9.9365,9.9327,9.9173,9.9096,9.9173,9.9096,9.9096,9.9019,9.8865,9.8827,9.8788,9.8634,9.8481,9.8634,9.8596,9.8528,9.8634,9.8442,9.8596,9.825,9.7596,9.7326,9.7403,9.6673,9.6288,9.6288,9.6326,9.5634,9.4057,9.3941,9.4412,9.5066,9.5181,9.5066,9.5143,9.4595,9.3941,9.4249,9.4681,9.4604,9.4095,9.4643,9.4681,9.4296,9.4604,9.5104,9.5104,9.5711,9.6134,9.598,9.6057,9.6134,9.6172,9.6095,9.548,9.4095,9.4018,9.4018,9.3903,9.3787,9.348,9.3056,9.2864,9.2249,9.1595,9.1556,9.1825,9.221,9.1979,9.1672,9.1979,9.171,9.1325,9.1133,9.097,9.0855,9.1009,9.1047,9.0094,8.9325,8.9162,8.8741,8.7772,8.686,8.6032,8.482,8.3438,8.2713,8.2063,8.1819,8.1893,8.1746,8.1232,8.0681,8.0021,7.9213,7.8332,10.6251,10.602,10.5982,10.5867,10.5559,10.4982,10.4713,10.4636,10.4174,10.3905,10.3905,10.3905,10.3905,10.3905,10.3905,10.3905,10.3789,10.2751,10.2299,10.2174,10.1673,10.1366,10.1289,10.0789,10.0519,10.0404,9.9942,9.9683,9.9644,9.9183,9.8788,9.8865,9.9452,9.9336,9.899,9.9375,9.9452,9.8827,9.8519,9.8404,9.8365,9.8134,9.8019,9.8019,9.8019,9.7711,9.7211,9.6634,9.6749,9.7519,9.7605,9.7596,9.7528,9.7365,9.7211,9.7173,9.6865,9.6673,9.6326,9.6019,9.5826,9.5672,9.6249,9.6365,9.6057,9.6673,9.6865,9.6442,9.6326,9.648,9.6903,9.6596,9.6095,9.5557,9.548,9.5441,9.5403,9.5441,9.5403,9.5134,9.4595,9.4143,9.3749,9.3326,9.2941,9.321,9.3018,9.2903,9.2556,9.2364,9.1825,9.1364,9.1278,9.1317,9.1402,9.1325,9.071,9.0171,9.0009,8.9538,8.8557,8.7641,8.6779,8.5413,8.4106,8.3119,8.2465,8.2186,8.2186,8.2003,8.1489,8.1012,8.0571,7.9874,7.8993,10.6867,10.6867,10.6856,10.7059,10.729,10.6713,10.6328,10.602,10.552,10.5136,10.4905,10.4828,10.4828,10.4828,10.4828,10.4828,10.4828,10.4828,10.4828,10.4597,10.3558,10.3097,10.3058,10.2558,10.2289,10.2212,10.175,10.1529,10.1491,10.0991,10.0721,10.0837,10.126,10.1096,10.0327,10.0673,10.0596,9.9827,9.9452,9.9288,9.9211,9.8981,9.8788,9.8788,9.8788,9.8952,9.9173,9.875,9.8711,9.9183,9.9298,9.9298,9.9259,9.8942,9.8788,9.8673,9.8327,9.7942,9.7942,9.748,9.7211,9.7326,9.7711,9.7788,9.7442,9.775,9.7673,9.7326,9.7288,9.7442,9.7788,9.7557,9.725,9.7211,9.6903,9.6788,9.6702,9.648,9.6057,9.5672,9.5211,9.4912,9.445,9.4134,9.3864,9.4027,9.3903,9.3826,9.3326,9.3172,9.2595,9.2133,9.1979,9.1941,9.1748,9.1518,9.1201,9.1047,9.0932,9.0316,8.9518,8.8591,8.771,8.5512,8.3915,8.3076,8.2402,8.2267,8.215,8.1893,8.1709,8.1379,8.0975,8.0461,7.9727,10.7629,10.7636,10.7598,10.7867,10.8444,10.8406,10.7905,10.7559,10.7521,10.6982,10.6405,10.6328,10.6328,10.6318,10.6126,10.6087,10.6318,10.6164,10.6136,10.579,10.4828,10.4059,10.3751,10.3597,10.3558,10.3635,10.3635,10.3674,10.3443,10.3366,10.3905,10.3482,10.3405,10.3443,10.2558,10.2635,10.2212,10.1481,10.0798,10.0491,10.0452,9.975,9.925,9.925,9.9288,9.9596,10.0029,10.0183,10.0183,10.0183,10.0135,10.0144,10.0029,9.9365,9.9096,9.9288,9.9058,9.9096,9.9058,9.9019,9.8865,9.8788,9.8904,9.8827,9.8673,9.8682,9.875,9.8519,9.8557,9.8673,9.8788,9.8634,9.8634,9.8711,9.8057,9.7634,9.7519,9.698,9.6557,9.5797,9.5258,9.4989,9.4557,9.4287,9.4557,9.4711,9.4518,9.448,9.4412,9.4143,9.3787,9.3326,9.2787,9.2672,9.2518,9.1979,9.171,9.1595,9.1432,9.0855,9.0169,8.9312,8.7934,8.5782,8.4264,8.3328,8.2644,8.2573,8.2333,8.2076,8.1929,8.1709,8.1379,8.0901,8.0498,10.6898,10.6762,10.6751,10.6867,10.7059,10.7049,10.6982,10.6856,10.7444,10.7213,10.6664,10.7098,10.6933,10.6433,10.6395,10.6395,10.6395,10.6395,10.6395,10.6356,10.602,10.4982,10.4097,10.3905,10.3943,10.3982,10.4059,10.3905,10.3905,10.402,10.3982,10.3905,10.402,10.3828,10.3558,10.3558,10.3443,10.3251,10.302,10.2789,10.2751,10.2558,10.2212,10.1635,10.152,10.1327,10.1135,10.1635,10.1597,10.1058,10.0981,10.0981,10.1019,10.075,10.0789,10.1212,10.0943,10.0904,10.125,10.0981,10.0404,9.9913,10.0289,10.0096,9.8904,9.9413,9.9375,9.9019,9.8788,9.9106,9.949,9.9221,9.9183,9.9529,9.9019,9.8519,9.8404,9.8288,9.8019,9.7836,9.7673,9.7173,9.6596,9.6326,9.6288,9.6019,9.5788,9.5441,9.5374,9.5143,9.4797,9.3941,9.3441,9.3403,9.3219,9.2595,9.2249,9.2133,9.1778,9.1192,9.0472,8.9676,8.7933,8.5905,8.5188,8.4339,8.3598,8.3177,8.281,8.259,8.2406,8.2333,8.1929,8.1452,8.1122,10.7094,10.6944,10.6933,10.7126,10.7444,10.7444,10.729,10.7059,10.7444,10.7213,10.6674,10.6905,10.6856,10.6395,10.6395,10.6395,10.6395,10.6395,10.6395,10.6395,10.6318,10.5828,10.5136,10.4943,10.4943,10.4943,10.4905,10.4982,10.502,10.4943,10.4943,10.502,10.4943,10.4789,10.4405,10.4415,10.4212,10.3943,10.3905,10.3905,10.3905,10.3905,10.3674,10.3097,10.2828,10.2327,10.1981,10.202,10.2097,10.2289,10.2404,10.2404,10.2366,10.202,10.2097,10.2558,10.2097,10.2048,10.2443,10.2404,10.2212,10.1799,10.1904,10.1366,10.0673,10.0596,10.0289,9.9981,9.9865,10.0096,10.0366,10.0135,10.0135,10.0442,10.0173,9.9712,9.9404,9.899,9.8827,9.8788,9.875,9.8673,9.8096,9.8057,9.7827,9.7519,9.7403,9.6865,9.6374,9.6105,9.5681,9.4903,9.4326,9.4258,9.4027,9.3489,9.2941,9.2787,9.2364,9.1731,9.0858,9.0036,8.8324,8.6783,8.6096,8.5373,8.4595,8.3958,8.3785,8.3544,8.3251,8.2957,8.2627,8.237,8.1966,10.7688,10.7559,10.7559,10.7982,10.8482,10.8675,10.8175,10.779,10.7829,10.7405,10.679,10.6587,10.6636,10.6395,10.6395,10.6395,10.6395,10.6395,10.6395,10.6395,10.6395,10.6203,10.6164,10.6059,10.6087,10.6126,10.6318,10.6241,10.6164,10.6318,10.6472,10.6405,10.6433,10.6136,10.5597,10.5338,10.4838,10.4482,10.4443,10.4443,10.4443,10.4443,10.4251,10.3674,10.2943,10.2751,10.252,10.2289,10.2443,10.4097,10.3943,10.3597,10.3558,10.3058,10.2904,10.2943,10.2943,10.2828,10.3135,10.3751,10.3953,10.3722,10.3097,10.2674,10.2212,10.1597,10.1087,10.0971,10.1241,10.1125,10.1125,10.1202,10.1125,10.1125,10.1164,10.0904,10.0289,9.9519,9.9058,9.9058,9.9096,9.9058,9.8942,9.8942,9.8865,9.8211,9.8173,9.775,9.7211,9.6903,9.6519,9.598,9.548,9.5143,9.4797,9.4412,9.3912,9.3518,9.3018,9.2387,9.1414,9.0349,8.888,8.7665,8.7084,8.6289,8.534,8.496,8.4729,8.4389,8.3948,8.3838,8.3675,8.3471,8.3177,10.7466,10.6674,10.6674,10.679,10.7059,10.7675,10.7867,10.7752,10.8329,10.8021,10.7521,10.7405,10.6982,10.6395,10.6395,10.6395,10.6395,10.6395,10.6395,10.6395,10.6395,10.6395,10.6395,10.6433,10.6433,10.6395,10.6395,10.6433,10.6559,10.7098,10.7405,10.7405,10.7405,10.7328,10.7021,10.6367,10.6059,10.5856,10.579,10.5713,10.5713,10.5674,10.5136,10.4059,10.3135,10.3058,10.3482,10.3443,10.4174,10.4943,10.4135,10.3366,10.3866,10.3789,10.3828,10.4059,10.3905,10.4174,10.5136,10.4982,10.4828,10.4684,10.3982,10.3328,10.2597,10.1779,10.1356,10.1279,10.1279,10.1279,10.1279,10.1279,10.1279,10.1279,10.1279,10.1241,10.1048,10.0827,10.0625,10.0625,10.0635,10.0519,9.9904,9.9837,9.9567,9.9019,9.8673,9.8404,9.8096,9.7788,9.725,9.6788,9.6365,9.5942,9.5518,9.5095,9.4643,9.4181,9.3719,9.3201,9.2229,9.1319,9.0045,8.8998,8.8138,8.7272,8.6391,8.5738,8.549,8.5086,8.4719,8.4646,8.4535,8.4425,8.4132,10.7448,10.6405,10.6395,10.6395,10.6472,10.6905,10.7328,10.7636,10.7675,10.7752,10.7636,10.7328,10.6828,10.6395,10.6395,10.6395,10.6395,10.6395,10.6395,10.6395,10.6395,10.6395,10.651,10.6751,10.6867,10.6559,10.6856,10.6982,10.7251,10.779,10.8252,10.8252,10.8252,10.7982,10.7752,10.7203,10.679,10.6395,10.6395,10.6395,10.6395,10.6356,10.5867,10.4559,10.3712,10.3597,10.4366,10.3174,10.4135,10.5174,10.4405,10.3789,10.4713,10.4674,10.4559,10.4405,10.4646,10.452,10.5059,10.552,10.552,10.5107,10.4366,10.352,10.2674,10.1779,10.1356,10.1279,10.1279,10.1279,10.1279,10.1279,10.1279,10.1279,10.1279,10.1279,10.1279,10.1279,10.1279,10.1279,10.1202,10.1058,10.0827,10.0596,10.0558,10.0135,10.0135,9.9827,9.9327,9.8942,9.8057,9.7557,9.7134,9.6711,9.6249,9.5788,9.5297,9.4874,9.445,9.395,9.3235,9.2401,9.1535,9.0564,8.961,8.8544,8.7667,8.702,8.6383,8.6151,8.5894,8.56,8.5343,8.5196,8.4792,10.765,10.6587,10.6472,10.6482,10.6587,10.678,10.7328,10.7752,10.7251,10.7675,10.7636,10.6972,10.6703,10.6433,10.6395,10.6395,10.6395,10.6395,10.6395,10.6395,10.6395,10.6395,10.6549,10.7059,10.7328,10.6751,10.7482,10.779,10.7905,10.8598,10.9098,10.906,10.8867,10.8521,10.8021,10.7521,10.701,10.6472,10.6636,10.6549,10.651,10.651,10.6097,10.4751,10.4443,10.4174,10.4328,10.3482,10.3482,10.602,10.4905,10.5059,10.5751,10.5751,10.5059,10.4405,10.4828,10.4943,10.502,10.5482,10.579,10.5223,10.4569,10.3866,10.3097,10.2289,10.1741,10.151,10.1471,10.1279,10.1279,10.1279,10.1279,10.1279,10.1279,10.1279,10.1279,10.1279,10.1279,10.1279,10.1279,10.1164,10.1164,10.1087,10.1202,10.1279,10.1279,10.1096,10.0481,9.9913,9.8981,9.8057,9.7596,9.6903,9.6403,9.6249,9.5749,9.5518,9.5143,9.4797,9.4364,9.409,9.334,9.2115,9.1055,9.0027,8.9007,8.8152,8.7653,8.7344,8.6831,8.6334,8.6114,8.6004,8.549,10.8539,10.7405,10.6703,10.6828,10.7559,10.8175,10.8444,10.879,10.9021,10.9175,10.8521,10.7829,10.7021,10.6587,10.6395,10.6395,10.6433,10.6395,10.6395,10.6395,10.6395,10.6395,10.6549,10.7251,10.7559,10.779,10.8213,10.8329,10.8367,10.9136,10.9829,10.9829,10.929,10.8829,10.8252,10.7482,10.6828,10.6587,10.6944,10.7059,10.6636,10.679,10.6367,10.4751,10.4674,10.4674,10.4443,10.4482,10.5097,10.6164,10.5405,10.552,10.6087,10.6203,10.5972,10.5674,10.5366,10.5328,10.5559,10.5482,10.579,10.579,10.5328,10.4828,10.4251,10.3289,10.2481,10.2097,10.1664,10.1279,10.1279,10.1279,10.1279,10.1279,10.1279,10.1279,10.1279,10.1279,10.1279,10.1279,10.1279,10.1279,10.1279,10.1279,10.1279,10.1279,10.1279,10.1058,10.0558,10.0144,9.9644,9.8788,9.7942,9.7173,9.6442,9.6403,9.6211,9.6057,9.5826,9.5826,9.5634,9.5865,9.5214,9.3808,9.2591,9.1505,9.0511,8.9369,8.8345,8.7585,8.7265,8.7012,8.6738,8.6444,8.6261,10.935,10.8301,10.7867,10.7675,10.7752,10.8098,10.829,10.8252,10.8252,10.8252,10.8175,10.7867,10.7521,10.7136,10.7059,10.6867,10.651,10.6395,10.6395,10.6395,10.6395,10.6395,10.6549,10.7328,10.7636,10.7905,10.8444,10.9021,10.9098,11.0252,11.0521,11.0186,10.9713,10.9175,10.8482,10.7982,10.7136,10.6905,10.7175,10.729,10.6482,10.6905,10.6136,10.5636,10.5097,10.5097,10.5213,10.4443,10.5136,10.5944,10.5559,10.5674,10.6097,10.6356,10.6203,10.5867,10.5751,10.5636,10.5867,10.5636,10.5867,10.5636,10.5328,10.4866,10.4443,10.3674,10.3135,10.2558,10.1827,10.1279,10.1279,10.1356,10.1279,10.1279,10.1317,10.1317,10.1279,10.1279,10.1279,10.1279,10.1279,10.1279,10.1279,10.1279,10.1279,10.1279,10.1279,10.1019,10.0673,10.0481,10.025,9.9481,9.8634,9.7904,9.7173,9.698,9.6865,9.6673,9.6442,9.6442,9.6326,9.6326,9.6095,9.531,9.4147,9.2958,9.1406,9.0039,8.896,8.7978,8.7636,8.7401,8.7137,8.6867,8.6807,11.0037,10.9136,10.8983,10.8521,10.7982,10.7944,10.7867,10.7598,10.7251,10.7367,10.7675,10.7867,10.7867,10.779,10.779,10.7559,10.6905,10.6972,10.7049,10.7049,10.7059,10.6982,10.7164,10.7713,10.8367,10.8636,10.9252,10.956,10.9637,11.0291,11.0483,11.0252,11.006,10.9367,10.8329,10.8482,10.779,10.7251,10.7444,10.7482,10.6867,10.6472,10.628,10.6203,10.5597,10.5636,10.5674,10.5213,10.529,10.5905,10.5867,10.5713,10.6241,10.6395,10.6136,10.5828,10.6174,10.5905,10.5828,10.5944,10.6059,10.5713,10.5443,10.502,10.4674,10.4405,10.3789,10.2943,10.2404,10.1981,10.2097,10.1933,10.1779,10.1625,10.1625,10.151,10.1356,10.1279,10.1279,10.1279,10.1279,10.1279,10.1279,10.1279,10.1279,10.1279,10.1279,10.1279,10.1019,10.1058,10.0789,10.0096,9.9365,9.8711,9.8134,9.7827,9.7673,9.748,9.7096,9.6826,9.6634,9.648,9.6249,9.6048,9.5454,9.4141,9.2456,9.1172,9.0558,8.978,8.8599,8.8031,8.8043,8.7817,8.7619,11.0384,10.9993,10.9252,10.8829,10.8752,10.8713,10.8329,10.7752,10.8136,10.8213,10.7636,10.8367,10.8329,10.8136,10.8521,10.8675,10.8521,10.8367,10.8329,10.829,10.8329,10.8329,10.8598,10.9521,10.9483,10.9483,11.0367,11.0214,10.9752,10.956,10.9752,11.0021,10.9598,10.8906,10.8713,10.879,10.8021,10.701,10.7944,10.8252,10.7444,10.6703,10.6097,10.5828,10.5905,10.6059,10.5905,10.579,10.629,10.6318,10.6318,10.628,10.6395,10.6395,10.6828,10.6944,10.6867,10.6356,10.6328,10.6444,10.6433,10.6136,10.6136,10.6136,10.5751,10.5136,10.452,10.3838,10.352,10.3366,10.3251,10.3443,10.3135,10.2712,10.2443,10.202,10.1664,10.1625,10.1587,10.1279,10.1279,10.1279,10.1279,10.1279,10.1279,10.1279,10.1279,10.1279,10.1279,10.1279,10.1202,10.0558,10.0212,9.9558,9.9019,9.8711,9.8404,9.8211,9.7827,9.7365,9.7288,9.7134,9.6673,9.6433,9.6011,9.5585,9.4265,9.3209,9.2569,9.1453,9.0094,8.9516,8.9224,8.8911,8.8355,11.1046,11.0906,11.0521,10.979,10.8944,10.8906,10.8136,10.7213,10.7328,10.729,10.729,10.8367,10.8944,10.9098,10.9521,10.9329,10.8983,10.8944,10.8906,10.8983,10.8983,10.8944,10.879,10.8906,10.906,11.006,10.9752,10.9598,10.9444,11.0098,11.0483,11.006,10.979,10.9406,10.9098,10.8906,10.8521,10.8098,10.8059,10.7752,10.7098,10.6636,10.6482,10.6559,10.6944,10.6828,10.6751,10.6867,10.7136,10.7059,10.678,10.6933,10.7405,10.7521,10.7521,10.8213,10.8059,10.7636,10.7251,10.7175,10.6905,10.651,10.6395,10.6318,10.6251,10.5674,10.5059,10.4646,10.4135,10.3982,10.3943,10.3905,10.3712,10.3443,10.3328,10.2789,10.2327,10.2135,10.202,10.1625,10.1279,10.1279,10.1279,10.1279,10.1279,10.1279,10.1279,10.1279,10.1279,10.1279,10.1202,10.0981,10.0712,10.0481,9.9942,9.9529,9.9096,9.8865,9.8557,9.825,9.8173,9.7942,9.7519,9.7326,9.7193,9.6596,9.5821,9.4692,9.3467,9.2492,9.1536,9.0985,9.0356,8.9383,8.8868,11.1511,11.1511,11.1511,11.0598,10.9252,10.8983,10.8098,10.6818,10.6559,10.6433,10.6856,10.8136,10.9367,11.0137,11.0329,11.0214,10.9637,10.956,10.956,10.956,10.956,10.9675,10.9675,10.9252,10.9521,11.0483,10.9867,10.9752,11.0444,11.0944,11.0906,11.0252,11.0098,10.9829,10.9483,10.956,10.9521,10.9136,10.8213,10.7636,10.7251,10.6933,10.729,10.7675,10.8021,10.7982,10.8021,10.7982,10.7982,10.7867,10.7559,10.779,10.8444,10.829,10.8406,10.9021,10.9098,10.8944,10.8482,10.8136,10.7559,10.6982,10.6433,10.6395,10.6328,10.5751,10.5443,10.5443,10.5059,10.4713,10.452,10.4597,10.4482,10.4405,10.4174,10.3635,10.3097,10.2789,10.2443,10.2058,10.1664,10.1279,10.1279,10.1279,10.1279,10.1279,10.1279,10.1279,10.1279,10.1279,10.1241,10.1096,10.1058,10.0943,10.0673,10.025,9.9865,9.9558,9.9288,9.9096,9.9106,9.8788,9.8404,9.825,9.8211,9.7856,9.723,9.5748,9.4381,9.4048,9.3537,9.2288,9.1379,9.035,8.9397,11.1511,11.1511,11.1472,11.0906,11.0021,10.9213,10.8406,10.7444,10.6741,10.6549,10.6982,10.8136,10.9406,11.0252,11.0944,11.1242,11.1242,11.128,11.1088,11.1088,11.128,11.1049,11.0857,11.078,11.0934,11.1252,11.0598,11.0752,11.1318,11.1318,11.0983,11.0329,11.0444,11.0252,11.0291,11.0598,11.0329,10.9713,10.8636,10.829,10.8175,10.8059,10.8021,10.8636,10.8829,10.8829,10.8829,10.8829,10.8829,10.8829,10.8521,10.8713,10.9175,10.8983,10.929,10.9906,11.0098,11.0021,10.979,10.9175,10.8444,10.7675,10.7098,10.6703,10.6597,10.651,10.6356,10.6405,10.6213,10.6174,10.6174,10.6136,10.5751,10.5251,10.4943,10.452,10.3943,10.3289,10.2904,10.2481,10.2087,10.1741,10.1394,10.1433,10.1317,10.1279,10.1279,10.1279,10.1279,10.1279,10.1279,10.1241,10.1241,10.1202,10.1241,10.0894,10.0596,10.0404,10.0212,10.0058,9.999,9.9644,9.9365,9.9135,9.9058,9.8865,9.8519,9.7172,9.6247,9.6165,9.5435,9.3934,9.2437,9.1221,9.0278,11.1175,11.0714,11.0714,11.0521,11.0137,10.9252,10.8444,10.7713,10.7367,10.7829,10.8636,10.8944,10.9675,11.0791,11.1252,11.1511,11.1511,11.1511,11.1511,11.1511,11.1511,11.1511,11.1395,11.1137,11.0906,11.1291,11.1098,11.1098,11.1434,11.1511,11.1395,11.106,11.0944,11.1021,11.1214,11.1214,11.0675,10.9867,10.929,10.9252,10.8713,10.8713,10.8829,10.9598,10.9713,10.9713,10.9713,10.9675,10.9675,10.9598,10.9252,10.9637,11.0137,10.9944,11.0175,11.0829,11.0983,11.0983,11.0829,11.0175,10.9329,10.8636,10.8098,10.7713,10.729,10.7598,10.7559,10.7559,10.7598,10.7598,10.7213,10.7136,10.6867,10.6213,10.5674,10.529,10.4828,10.4135,10.3674,10.3366,10.2751,10.2251,10.1904,10.1635,10.1433,10.1279,10.1279,10.1279,10.1279,10.1279,10.1279,10.1279,10.1279,10.1279,10.1279,10.1279,10.1279,10.1164,10.0981,10.0827,10.0635,10.0789,10.0519,10.0212,9.9865,9.9712,9.9259,9.8519,9.7865,9.7279,9.6382,9.5196,9.3709,9.2278,9.1491,11.0598,10.9867,11.0109,11.0032,10.9713,10.8906,10.8213,10.7713,10.7367,10.8098,10.9444,10.929,10.9906,11.0944,11.1434,11.1511,11.1511,11.1511,11.1511,11.1511,11.1511,11.1511,11.128,11.1137,11.106,11.1242,11.106,11.106,11.1472,11.1511,11.1472,11.1434,11.1511,11.1472,11.1472,11.1434,11.0868,11.0137,10.9829,11.0214,10.9675,10.9444,10.9713,11.0444,11.0598,11.0598,11.0598,11.0598,11.0791,11.0675,11.0521,11.0598,11.1021,11.1291,11.1137,11.1522,11.1857,11.1857,11.1598,11.0791,10.9983,10.9367,10.8906,10.8521,10.8406,10.8598,10.8367,10.8175,10.8521,10.8598,10.7867,10.7559,10.7175,10.6444,10.6213,10.5867,10.552,10.4982,10.4636,10.4261,10.3597,10.2981,10.2674,10.2327,10.1702,10.1471,10.1279,10.1279,10.1279,10.1279,10.1279,10.1279,10.1279,10.1279,10.1279,10.1279,10.1279,10.1279,10.1164,10.1202,10.1164,10.1279,10.1279,10.0904,10.0596,10.0491,10.0173,9.9712,9.8904,9.8057,9.7018,9.59,9.53,9.3972,9.3152,10.9752,10.906,10.9829,10.9713,10.8983,10.8098,10.7829,10.7867,10.7136,10.729,10.8406,10.9444,11.0098,11.0521,11.1137,11.1472,11.1511,11.1511,11.1511,11.1511,11.1703,11.1588,11.1588,11.1511,11.156,11.1472,11.1357,11.1318,11.1472,11.1511,11.1511,11.1511,11.1511,11.1511,11.1511,11.1511,11.1472,11.1329,11.0598,11.0714,11.0868,11.0444,11.0675,11.106,11.1242,11.1214,11.1214,11.1214,11.1483,11.1906,11.156,11.1791,11.2406,11.2022,11.2022,11.2599,11.2665,11.2665,11.2522,11.1098,11.0483,11.0175,10.9752,10.9252,10.8983,10.9021,10.9098,10.8983,10.9175,10.879,10.8175,10.779,10.7444,10.6905,10.6713,10.6395,10.6059,10.5751,10.5366,10.5059,10.4443,10.3828,10.352,10.3058,10.2212,10.1702,10.1394,10.1279,10.1279,10.1279,10.1279,10.1279,10.1279,10.1279,10.1279,10.1279,10.1279,10.1279,10.1279,10.1279,10.1279,10.1279,10.1279,10.1279,10.0943,10.0519,10.0827,10.1087,10.0096,9.9019,9.7594,9.6581,9.6156,9.5678,9.488,11.0214,10.8983,10.9829,10.9713,10.8906,10.8636,10.879,10.9136,10.8559,10.8521,10.9329,11.006,11.0214,11.0483,11.1021,11.1511,11.1511,11.1511,11.1511,11.1588,11.1983,11.2242,11.228,11.2203,11.2214,11.2137,11.1895,11.1511,11.1511,11.1511,11.1511,11.1511,11.1511,11.1511,11.1511,11.1511,11.1511,11.1472,11.1214,11.1214,11.1445,11.1214,11.1165,11.1511,11.1511,11.1511,11.1588,11.1626,11.2049,11.2742,11.2434,11.2753,11.3368,11.306,11.3214,11.3522,11.356,11.3253,11.2906,11.2022,11.1637,11.1137,11.0714,11.0214,10.9867,11.0367,11.0252,11.0021,11.0175,10.9906,10.9637,10.9444,10.8944,10.7713,10.7251,10.6867,10.6521,10.629,10.5982,10.5751,10.529,10.4482,10.3982,10.3635,10.2904,10.2212,10.1856,10.1433,10.1317,10.1317,10.1279,10.1279,10.1279,10.1279,10.1279,10.1279,10.1279,10.1279,10.1279,10.1279,10.1279,10.1279,10.1279,10.1279,10.0866,10.0481,10.0673,10.0789,10.075,9.9912,9.871,9.7768,9.7341,9.7067,9.6641,10.9318,10.8213,10.929,10.9444,10.8944,10.8906,10.9252,10.9675,10.9444,10.9713,11.0137,11.0483,11.0675,11.0829,11.1175,11.1511,11.1511,11.1511,11.1819,11.1934,11.2406,11.2599,11.2637,11.2676,11.2368,11.2252,11.1857,11.1511,11.1511,11.1511,11.1511,11.1511,11.1549,11.1511,11.1511,11.1511,11.1511,11.1472,11.1395,11.1434,11.1511,11.1434,11.1472,11.1511,11.1549,11.1626,11.1819,11.2049,11.2434,11.3099,11.3445,11.3599,11.4099,11.4176,11.4214,11.433,11.4407,11.4137,11.383,11.2791,11.2329,11.1945,11.1703,11.1252,11.0829,11.106,11.1021,11.0983,11.1291,11.0868,11.0406,11.0291,10.9675,10.8406,10.7982,10.7636,10.7136,10.6905,10.6559,10.6367,10.5982,10.5174,10.4482,10.4059,10.3635,10.2943,10.2327,10.1894,10.1433,10.1317,10.1317,10.1279,10.1279,10.1279,10.1279,10.1279,10.1279,10.1279,10.1279,10.1279,10.1279,10.1279,10.1279,10.1202,10.0712,10.0327,10.0298,10.0327,10.0673,10.075,10.0307,9.9414,9.8692,9.8384,9.8134,10.729,10.6751,10.8252,10.8983,10.8906,10.8983,10.906,10.9136,10.9906,11.0224,11.0252,11.106,11.1252,11.1318,11.1445,11.1511,11.1511,11.1511,11.1857,11.2434,11.2753,11.2791,11.2791,11.2829,11.2599,11.1972,11.1549,11.1588,11.1588,11.1972,11.1972,11.1819,11.2022,11.2049,11.2011,11.2011,11.1857,11.1665,11.1703,11.1665,11.1549,11.1665,11.1626,11.1665,11.1819,11.2126,11.2434,11.2714,11.3637,11.4214,11.4484,11.4714,11.4753,11.4522,11.4791,11.5061,11.533,11.5215,11.483,11.3676,11.3099,11.2753,11.2165,11.1742,11.1434,11.1406,11.1329,11.1329,11.1434,11.0944,11.0521,11.0291,11.006,10.9406,10.9021,10.8482,10.7905,10.7521,10.7136,10.6828,10.6482,10.5867,10.529,10.4828,10.4289,10.3828,10.3212,10.2635,10.2135,10.1394,10.1356,10.1279,10.1279,10.1279,10.1279,10.1279,10.1279,10.1279,10.1279,10.1279,10.1279,10.1279,10.1279,10.1087,10.0519,10.026,10.0183,10.0481,10.0981,10.0981,10.0866,10.0624,9.9798,9.9821,9.9658,10.8098,10.7521,10.9136,10.9483,10.9021,10.956,11.0175,11.0741,11.106,11.0829,11.0252,11.1137,11.1242,11.0675,11.1175,11.1434,11.1511,11.1511,11.1588,11.2137,11.2945,11.2983,11.3099,11.3176,11.2945,11.2395,11.1934,11.1895,11.2434,11.2791,11.3176,11.333,11.3022,11.3099,11.3137,11.3253,11.256,11.206,11.2175,11.206,11.1983,11.2126,11.2022,11.1983,11.2676,11.2983,11.3022,11.3445,11.4291,11.4945,11.5061,11.5341,11.5984,11.5918,11.6034,11.6072,11.6099,11.5907,11.5368,11.483,11.4253,11.3714,11.3291,11.2522,11.1972,11.1626,11.1626,11.1549,11.1511,11.1137,11.0983,11.0829,11.0521,11.0137,10.979,10.9406,10.8752,10.8059,10.7675,10.7021,10.6674,10.6328,10.5828,10.5405,10.4905,10.4569,10.4145,10.352,10.2828,10.2097,10.1587,10.1548,10.1279,10.1279,10.1279,10.1279,10.1279,10.1279,10.1279,10.1279,10.1279,10.1279,10.1279,10.1048,10.0596,10.0298,10.0106,10.0519,10.1019,10.1202,10.1125,10.1087,10.101,10.0856,10.0779,10.7636,10.7405,10.8636,10.9252,10.956,11.0367,11.106,11.1472,11.1511,11.1175,11.0791,11.1252,11.1214,11.0906,11.128,11.1511,11.1511,11.1511,11.1703,11.2406,11.306,11.3253,11.3407,11.3407,11.3291,11.2868,11.2588,11.2472,11.3176,11.3599,11.3945,11.3907,11.3984,11.4022,11.4022,11.4099,11.3753,11.3176,11.2868,11.2829,11.2868,11.2906,11.2791,11.2753,11.3676,11.3714,11.3791,11.4291,11.4907,11.5599,11.5764,11.5957,11.6457,11.6457,11.6457,11.6457,11.6418,11.6215,11.5869,11.5407,11.4984,11.4599,11.4214,11.3483,11.2829,11.2395,11.1972,11.1588,11.1549,11.1472,11.1511,11.1434,11.1098,11.0752,11.0521,11.0291,10.9521,10.8675,10.7944,10.7213,10.679,10.6472,10.6136,10.579,10.5559,10.5405,10.5059,10.4482,10.3674,10.2828,10.2327,10.2058,10.1625,10.1279,10.1317,10.1356,10.1279,10.1279,10.1279,10.1279,10.1317,10.1241,10.1202,10.1019,10.0712,10.0481,10.0327,10.0596,10.0943,10.1125,10.1279,10.1241,10.1202,10.1164,10.1125,10.6395,10.651,10.7367,10.879,11.0291,11.1021,11.1368,11.1472,11.1511,11.1511,11.1472,11.1511,11.1472,11.1318,11.1472,11.1511,11.1511,11.1511,11.1742,11.2637,11.306,11.3214,11.3137,11.3291,11.3522,11.3522,11.3445,11.3253,11.3907,11.4445,11.4599,11.4176,11.4368,11.4522,11.4714,11.5099,11.4907,11.4484,11.4214,11.4176,11.3945,11.3984,11.406,11.3945,11.4214,11.4522,11.5022,11.5418,11.5726,11.6226,11.6495,11.6457,11.6457,11.6484,11.6484,11.6484,11.6484,11.6407,11.6215,11.5869,11.561,11.5176,11.4676,11.433,11.3868,11.3214,11.2637,11.2406,11.2406,11.2126,11.2049,11.1934,11.1675,11.1329,11.106,11.0829,11.0367,10.9367,10.8213,10.7444,10.6741,10.6472,10.6356,10.602,10.5982,10.602,10.5828,10.529,10.4713,10.3789,10.3212,10.2789,10.2135,10.1741,10.1587,10.1587,10.1356,10.1279,10.1433,10.1548,10.1779,10.152,10.1135,10.1019,10.0904,10.075,10.0673,10.0904,10.1058,10.1164,10.1279,10.1279,10.1279,10.1279,10.1279,10.6395,10.6472,10.7328,10.9021,11.0983,11.0675,11.0906,11.1511,11.1511,11.1511,11.1511,11.1511,11.1511,11.1511,11.1511,11.1511,11.1511,11.1665,11.1626,11.2368,11.2983,11.3176,11.2868,11.3791,11.3907,11.3445,11.3445,11.4214,11.4868,11.5418,11.583,11.583,11.5715,11.5599,11.5638,11.6061,11.5869,11.5561,11.5561,11.5022,11.4368,11.4599,11.4791,11.4753,11.4868,11.5368,11.5764,11.5918,11.6187,11.6484,11.6484,11.6495,11.6484,11.6484,11.6484,11.6484,11.6484,11.6484,11.6407,11.6253,11.6099,11.6099,11.583,11.5484,11.4945,11.4176,11.3637,11.3445,11.3176,11.2868,11.2522,11.2368,11.2137,11.1819,11.1511,11.1318,11.1098,10.9829,10.8482,10.7636,10.6828,10.651,10.6433,10.6395,10.6395,10.6356,10.628,10.602,10.5713,10.502,10.4366,10.3789,10.2866,10.2404,10.2212,10.2058,10.1971,10.1933,10.2097,10.2212,10.2289,10.2212,10.2058,10.1481,10.1135,10.1096,10.1058,10.1125,10.1241,10.1279,10.1279,10.1279,10.1279,10.1279,10.1279,10.6982,10.7136,10.8329,10.9598,11.0752,11.0791,11.106,11.1434,11.1511,11.1511,11.1511,11.1511,11.1511,11.1511,11.1511,11.1511,11.1588,11.1895,11.2099,11.256,11.3176,11.3637,11.3945,11.4291,11.4676,11.4407,11.4791,11.5484,11.5841,11.611,11.6407,11.6484,11.6484,11.6484,11.6484,11.6484,11.6484,11.6446,11.6484,11.5907,11.5022,11.5407,11.5649,11.561,11.5792,11.6138,11.6176,11.6303,11.6369,11.6484,11.6484,11.6484,11.6484,11.6484,11.6484,11.6484,11.6484,11.6484,11.6484,11.6484,11.6484,11.6484,11.6484,11.5945,11.5957,11.5176,11.4522,11.4253,11.3791,11.3407,11.2829,11.2522,11.2099,11.1742,11.1472,11.128,11.0637,10.9637,10.8559,10.7752,10.701,10.6472,10.6395,10.6395,10.6395,10.6395,10.6395,10.6433,10.6203,10.601,10.5405,10.4866,10.3943,10.3328,10.3174,10.2981,10.2828,10.2789,10.2789,10.2981,10.3174,10.3174,10.2981,10.2327,10.1827,10.1597,10.1587,10.1625,10.1356,10.1279,10.1279,10.1279,10.1317,10.1433,10.1356,10.779,10.8213,10.956,11.0291,11.0444,11.1137,11.1511,11.1511,11.1511,11.1511,11.1511,11.1511,11.1511,11.1511,11.1511,11.1511,11.1703,11.2214,11.2522,11.2906,11.3753,11.4022,11.433,11.4714,11.5291,11.5792,11.6138,11.6215,11.6341,11.6484,11.6484,11.6484,11.6484,11.6484,11.6484,11.6484,11.6484,11.6484,11.6484,11.6484,11.6407,11.6484,11.638,11.638,11.6484,11.6484,11.6484,11.6484,11.6484,11.6484,11.6484,11.6484,11.6484,11.6484,11.6484,11.6484,11.6484,11.6484,11.6484,11.6484,11.6484,11.6484,11.6484,11.6457,11.6457,11.611,11.5407,11.4984,11.4484,11.3868,11.3253,11.2599,11.2165,11.1703,11.1472,11.1318,11.0483,10.9675,10.8867,10.8059,10.7521,10.6895,10.6741,10.6703,10.6626,10.6587,10.651,10.651,10.6472,10.6318,10.5944,10.5597,10.5059,10.4597,10.4174,10.3751,10.352,10.3558,10.3558,10.3828,10.403,10.402,10.3712,10.3058,10.2635,10.2481,10.2289,10.2251,10.1894,10.1702,10.1664,10.1818,10.1981,10.1971,10.1587,10.8482,10.9752,11.0109,11.0598,11.1175,11.1434,11.1511,11.1511,11.1511,11.1511,11.1511,11.1511,11.1511,11.1511,11.1511,11.1511,11.1626,11.2329,11.2637,11.2868,11.4214,11.4484,11.4753,11.5341,11.611,11.6369,11.6484,11.6484,11.6484,11.6484,11.6484,11.6484,11.6484,11.6484,11.6484,11.6484,11.6484,11.6484,11.6484,11.6484,11.6484,11.6484,11.6484,11.6484,11.6484,11.6484,11.6484,11.6484,11.6484,11.6484,11.6484,11.6484,11.6484,11.6484,11.6484,11.6484,11.6484,11.6484,11.6484,11.6484,11.6484,11.6484,11.6484,11.6484,11.6457,11.6457,11.5984,11.588,11.5291,11.4445,11.3753,11.2945,11.2368,11.1819,11.1434,11.1434,11.1049,11.0406,10.9675,10.9175,10.8713,10.8329,10.8098,10.7982,10.7713,10.7559,10.7059,10.7059,10.7328,10.6982,10.6549,10.629,10.6059,10.5559,10.502,10.4405,10.4135,10.4212,10.4405,10.4713,10.4905,10.4866,10.4482,10.3828,10.3635,10.352,10.3289,10.2866,10.3058,10.2904,10.2558,10.252,10.2674,10.2635,10.2289]}]]